[[{"header":{"parameterUnit":"m.s-1","parameterCategory":1,"la1":30.6,"la2":29.2853,"lo1":-89.7004,"lo2":-87.6739,"dx":0.0162,"dy":0.0183,"nx":112,"ny":82,"refTime":"2023-02-09T06:00:00:Z","depth":0,"parameterNumber":2,"parameterNumberName":"U-component_of_WINDS"},"data":[0.0,0.0,0.0,0.0,0.0,0.0,0.0,0.0,0.0,0.0,0.0,0.0,0.0,0.0,0.0,0.0,0.0,0.0,0.0,0.0,0.0,0.0,0.0,0.0,0.0,0.0,0.0,0.0,0.0,0.0,0.0,0.0,0.0,0.0,0.0,0.0,0.0,0.0,0.0,0.0,0.0,0.0,0.0,0.0,0.0,0.0,0.0,0.0,0.0,0.0,0.0,0.0,0.0,0.0,0.0,0.0,0.0,0.0,0.0,0.0,0.0,0.0,0.0,0.0,0.0,0.0,0.0,0.0,0.0,0.0,0.0,0.0,0.0,0.0,0.0,0.0,0.0,0.0,0.0,0.0,0.0,0.0,0.0,0.0,0.0,0.0,0.0,0.0,0.0,0.0,-3.3889,-3.4111,-3.3954,-3.3807,-3.3807,-3.3807,-3.3807,-3.3807,0.0,0.0,0.0,0.0,0.0,0.0,0.0,0.0,0.0,0.0,0.0,0.0,0.0,0.0,0.0,0.0,0.0,0.0,0.0,0.0,0.0,0.0,0.0,0.0,0.0,0.0,0.0,0.0,0.0,0.0,0.0,0.0,0.0,0.0,0.0,0.0,0.0,0.0,0.0,0.0,0.0,0.0,0.0,0.0,0.0,0.0,0.0,0.0,0.0,0.0,0.0,0.0,0.0,0.0,0.0,0.0,0.0,0.0,0.0,0.0,0.0,0.0,0.0,0.0,0.0,0.0,0.0,0.0,0.0,0.0,0.0,0.0,0.0,0.0,0.0,0.0,0.0,0.0,0.0,0.0,0.0,0.0,0.0,0.0,0.0,0.0,0.0,0.0,0.0,0.0,0.0,0.0,0.0,0.0,0.0,0.0,0.0,0.0,0.0,0.0,0.0,0.0,0.0,0.0,-3.3815,-3.3868,-3.3815,-3.3807,-3.3807,-3.3807,-3.3807,-3.3807,0.0,0.0,0.0,0.0,0.0,0.0,0.0,0.0,0.0,0.0,0.0,0.0,0.0,0.0,0.0,0.0,0.0,0.0,0.0,0.0,0.0,0.0,0.0,0.0,0.0,0.0,0.0,0.0,0.0,0.0,0.0,0.0,0.0,0.0,0.0,0.0,0.0,0.0,0.0,0.0,0.0,0.0,0.0,0.0,0.0,0.0,0.0,0.0,0.0,0.0,0.0,0.0,0.0,0.0,0.0,0.0,0.0,0.0,0.0,0.0,0.0,0.0,0.0,0.0,0.0,0.0,0.0,0.0,0.0,0.0,0.0,0.0,0.0,0.0,0.0,0.0,0.0,0.0,0.0,0.0,0.0,0.0,0.0,0.0,0.0,0.0,0.0,0.0,0.0,0.0,0.0,0.0,0.0,0.0,0.0,0.0,0.0,0.0,0.0,0.0,0.0,0.0,0.0,-3.3807,-3.3807,-3.3807,-3.3807,-3.3807,-3.3807,-3.3807,-3.3807,-3.3807,-3.3807,0.0,0.0,0.0,0.0,0.0,0.0,0.0,0.0,0.0,0.0,0.0,0.0,0.0,0.0,0.0,0.0,0.0,0.0,0.0,0.0,0.0,0.0,0.0,0.0,0.0,0.0,0.0,0.0,0.0,0.0,0.0,0.0,0.0,0.0,0.0,0.0,0.0,0.0,0.0,0.0,0.0,0.0,0.0,0.0,0.0,0.0,0.0,0.0,0.0,0.0,0.0,0.0,0.0,0.0,0.0,0.0,0.0,0.0,0.0,0.0,0.0,0.0,0.0,0.0,0.0,0.0,0.0,0.0,0.0,0.0,0.0,0.0,0.0,0.0,0.0,0.0,0.0,0.0,0.0,0.0,0.0,0.0,0.0,0.0,0.0,0.0,0.0,0.0,0.0,0.0,0.0,0.0,0.0,0.0,0.0,0.0,0.0,0.0,0.0,0.0,0.0,0.0,-3.3917,-3.3807,-3.3807,-3.3807,-3.3807,-3.3807,-3.3807,-3.3807,-3.3807,-3.3807,0.0,0.0,0.0,0.0,0.0,0.0,0.0,0.0,0.0,0.0,0.0,0.0,0.0,0.0,0.0,0.0,0.0,0.0,0.0,0.0,0.0,0.0,0.0,0.0,0.0,0.0,0.0,0.0,0.0,0.0,0.0,0.0,0.0,0.0,0.0,0.0,0.0,0.0,0.0,0.0,0.0,0.0,0.0,0.0,0.0,0.0,0.0,0.0,0.0,0.0,0.0,0.0,0.0,0.0,0.0,0.0,0.0,0.0,0.0,0.0,0.0,0.0,0.0,0.0,0.0,0.0,0.0,0.0,0.0,0.0,0.0,0.0,0.0,0.0,0.0,0.0,0.0,0.0,0.0,0.0,0.0,0.0,0.0,0.0,0.0,0.0,0.0,0.0,0.0,0.0,0.0,0.0,0.0,0.0,0.0,0.0,0.0,0.0,0.0,0.0,0.0,0.0,-3.4266,-3.3807,-3.3807,-3.3807,-3.3807,-3.3807,-3.3807,-3.3807,-3.3807,-3.3807,0.0,0.0,0.0,0.0,0.0,0.0,0.0,0.0,0.0,0.0,0.0,0.0,0.0,0.0,0.0,0.0,0.0,0.0,0.0,0.0,0.0,0.0,0.0,0.0,0.0,0.0,0.0,0.0,0.0,0.0,0.0,0.0,0.0,0.0,0.0,0.0,0.0,0.0,0.0,0.0,0.0,0.0,0.0,0.0,0.0,0.0,0.0,0.0,0.0,0.0,0.0,0.0,0.0,0.0,0.0,0.0,0.0,0.0,0.0,0.0,0.0,0.0,0.0,0.0,0.0,0.0,0.0,0.0,0.0,0.0,0.0,0.0,0.0,0.0,0.0,0.0,0.0,0.0,0.0,0.0,0.0,0.0,0.0,0.0,0.0,0.0,0.0,0.0,0.0,0.0,0.0,0.0,0.0,0.0,0.0,0.0,0.0,0.0,0.0,0.0,0.0,0.0,-3.4289,-3.3807,-3.3807,-3.3807,-3.3807,-3.3807,-3.3807,-3.3807,-3.3807,0.0,0.0,0.0,0.0,0.0,0.0,0.0,0.0,0.0,0.0,0.0,0.0,0.0,0.0,0.0,0.0,0.0,0.0,0.0,0.0,0.0,0.0,0.0,0.0,0.0,0.0,0.0,0.0,0.0,0.0,0.0,0.0,0.0,0.0,0.0,0.0,0.0,0.0,0.0,0.0,0.0,0.0,0.0,0.0,0.0,0.0,0.0,0.0,0.0,0.0,0.0,0.0,0.0,0.0,0.0,0.0,0.0,0.0,0.0,0.0,0.0,0.0,0.0,0.0,0.0,0.0,0.0,0.0,0.0,0.0,0.0,0.0,0.0,0.0,0.0,0.0,0.0,0.0,0.0,0.0,0.0,0.0,0.0,0.0,0.0,0.0,0.0,0.0,0.0,0.0,0.0,0.0,0.0,0.0,0.0,0.0,0.0,0.0,0.0,0.0,0.0,0.0,-3.5756,-3.5092,-3.4486,-3.4211,-3.4192,-3.4082,-3.3825,-3.3807,-3.3807,-3.3807,0.0,0.0,0.0,0.0,0.0,0.0,0.0,0.0,0.0,0.0,0.0,0.0,0.0,0.0,0.0,0.0,0.0,0.0,0.0,0.0,0.0,0.0,0.0,0.0,0.0,0.0,0.0,0.0,0.0,0.0,0.0,0.0,0.0,0.0,0.0,0.0,0.0,0.0,0.0,0.0,0.0,0.0,0.0,0.0,0.0,0.0,0.0,0.0,0.0,0.0,0.0,0.0,0.0,0.0,0.0,0.0,0.0,0.0,0.0,0.0,0.0,0.0,0.0,0.0,0.0,0.0,0.0,0.0,0.0,0.0,0.0,0.0,0.0,0.0,0.0,0.0,0.0,0.0,0.0,0.0,0.0,0.0,0.0,0.0,0.0,0.0,0.0,0.0,0.0,0.0,0.0,0.0,0.0,0.0,0.0,0.0,0.0,0.0,0.0,0.0,0.0,0.0,-3.7401,-3.6813,-3.5973,-3.5114,-3.5023,-3.4674,-3.388,-3.3807,-3.3807,0.0,0.0,0.0,0.0,0.0,0.0,0.0,0.0,0.0,0.0,0.0,0.0,0.0,0.0,0.0,0.0,0.0,0.0,0.0,0.0,0.0,0.0,0.0,0.0,0.0,0.0,0.0,0.0,0.0,0.0,0.0,0.0,0.0,0.0,0.0,0.0,0.0,0.0,0.0,0.0,0.0,0.0,0.0,0.0,0.0,0.0,0.0,0.0,0.0,0.0,0.0,0.0,0.0,0.0,0.0,0.0,0.0,0.0,0.0,0.0,0.0,0.0,0.0,0.0,0.0,0.0,0.0,0.0,0.0,0.0,0.0,0.0,0.0,0.0,0.0,0.0,0.0,0.0,0.0,0.0,0.0,0.0,0.0,0.0,0.0,0.0,0.0,0.0,0.0,0.0,0.0,0.0,0.0,0.0,0.0,0.0,0.0,0.0,0.0,0.0,0.0,0.0,0.0,-3.7474,-3.6813,-3.6193,-3.5936,-3.5371,-3.4912,-3.4674,-3.4137,-3.3807,-3.3807,0.0,0.0,0.0,0.0,0.0,0.0,0.0,0.0,0.0,0.0,0.0,0.0,0.0,0.0,0.0,0.0,0.0,0.0,0.0,0.0,0.0,0.0,0.0,0.0,0.0,0.0,0.0,0.0,0.0,0.0,0.0,0.0,0.0,0.0,0.0,0.0,0.0,0.0,0.0,0.0,0.0,0.0,0.0,0.0,0.0,0.0,0.0,0.0,0.0,0.0,0.0,0.0,0.0,0.0,0.0,0.0,0.0,0.0,0.0,0.0,0.0,0.0,0.0,0.0,0.0,0.0,0.0,0.0,0.0,0.0,0.0,0.0,0.0,0.0,0.0,0.0,0.0,0.0,0.0,0.0,0.0,0.0,0.0,0.0,0.0,0.0,0.0,0.0,0.0,0.0,0.0,0.0,0.0,0.0,0.0,0.0,0.0,0.0,0.0,0.0,0.0,0.0,-3.7988,-3.7551,-3.7129,-3.6813,-3.6303,-3.572,-3.5059,-3.4564,-3.4137,-3.3825,0.0,0.0,0.0,0.0,0.0,0.0,0.0,0.0,0.0,0.0,0.0,0.0,0.0,0.0,0.0,0.0,0.0,0.0,0.0,0.0,0.0,0.0,0.0,0.0,0.0,0.0,0.0,0.0,0.0,0.0,0.0,0.0,0.0,0.0,0.0,0.0,0.0,0.0,0.0,0.0,0.0,0.0,0.0,0.0,0.0,0.0,0.0,0.0,0.0,0.0,0.0,0.0,0.0,0.0,0.0,0.0,0.0,0.0,0.0,0.0,0.0,0.0,0.0,0.0,0.0,0.0,0.0,0.0,0.0,0.0,0.0,0.0,0.0,0.0,0.0,0.0,0.0,0.0,0.0,0.0,0.0,0.0,0.0,0.0,0.0,0.0,0.0,0.0,0.0,0.0,0.0,0.0,0.0,0.0,0.0,0.0,0.0,0.0,0.0,0.0,0.0,0.0,-3.8707,-3.8707,-3.8414,-3.7694,-3.7547,-3.6886,-3.5353,-3.5096,-3.4692,-3.3972,0.0,0.0,0.0,0.0,0.0,0.0,0.0,0.0,0.0,0.0,0.0,0.0,0.0,0.0,0.0,0.0,0.0,0.0,0.0,0.0,0.0,0.0,0.0,0.0,0.0,0.0,0.0,0.0,0.0,0.0,0.0,0.0,0.0,0.0,0.0,0.0,0.0,0.0,0.0,0.0,0.0,0.0,0.0,0.0,0.0,0.0,0.0,0.0,0.0,0.0,0.0,0.0,0.0,0.0,0.0,0.0,0.0,0.0,0.0,0.0,-3.5808,-3.5911,0.0,0.0,0.0,0.0,0.0,0.0,0.0,0.0,0.0,0.0,0.0,0.0,0.0,0.0,0.0,0.0,0.0,0.0,0.0,0.0,0.0,0.0,0.0,0.0,0.0,0.0,0.0,0.0,0.0,0.0,0.0,0.0,0.0,0.0,0.0,0.0,0.0,0.0,0.0,0.0,-3.8707,-3.8707,-3.8634,-3.8469,-3.7878,-3.7364,-3.7015,-3.5756,-3.4931,-3.4747,-3.4156,0.0,0.0,0.0,0.0,0.0,0.0,0.0,0.0,0.0,0.0,0.0,0.0,0.0,0.0,0.0,0.0,0.0,0.0,0.0,0.0,0.0,0.0,0.0,0.0,0.0,0.0,0.0,0.0,0.0,0.0,0.0,0.0,0.0,0.0,0.0,0.0,0.0,0.0,0.0,0.0,0.0,0.0,0.0,0.0,0.0,0.0,0.0,0.0,0.0,0.0,0.0,0.0,0.0,0.0,0.0,0.0,0.0,0.0,0.0,-3.6122,-3.5783,0.0,0.0,0.0,0.0,0.0,0.0,0.0,0.0,0.0,0.0,0.0,0.0,0.0,0.0,0.0,0.0,0.0,0.0,0.0,0.0,0.0,0.0,0.0,0.0,0.0,0.0,0.0,0.0,0.0,0.0,0.0,0.0,0.0,0.0,0.0,0.0,0.0,0.0,0.0,0.0,-3.8707,-3.8707,-3.8707,-3.8707,-3.8322,-3.7918,-3.7529,-3.6358,-3.5445,-3.5041,-3.4234,0.0,0.0,0.0,0.0,0.0,0.0,0.0,0.0,0.0,0.0,0.0,0.0,0.0,0.0,0.0,0.0,0.0,0.0,0.0,0.0,0.0,0.0,0.0,0.0,0.0,0.0,0.0,0.0,0.0,0.0,0.0,0.0,0.0,0.0,0.0,0.0,0.0,0.0,0.0,0.0,0.0,0.0,0.0,0.0,0.0,0.0,0.0,0.0,0.0,0.0,0.0,0.0,0.0,-3.6615,-3.7023,-3.7226,-3.7942,-3.8325,-3.8291,-3.6793,-3.6138,-3.6162,-3.7038,0.0,0.0,0.0,0.0,0.0,0.0,0.0,0.0,0.0,0.0,0.0,0.0,0.0,0.0,0.0,0.0,0.0,0.0,0.0,0.0,0.0,0.0,0.0,0.0,-3.9295,-3.907,-3.9042,0.0,0.0,0.0,0.0,0.0,0.0,0.0,0.0,0.0,0.0,0.0,-3.8707,-3.8707,-3.8707,-3.8707,-3.8707,-3.8432,-3.7768,-3.6978,-3.6138,-3.5279,-3.4454,-3.3954,0.0,0.0,0.0,0.0,0.0,0.0,0.0,0.0,0.0,0.0,0.0,0.0,0.0,0.0,0.0,0.0,0.0,0.0,0.0,0.0,0.0,0.0,0.0,0.0,0.0,0.0,0.0,0.0,0.0,0.0,0.0,0.0,-3.5069,-3.434,0.0,0.0,0.0,0.0,0.0,0.0,0.0,0.0,0.0,0.0,0.0,0.0,0.0,-3.6904,-3.7661,-3.7661,-3.7661,-3.7661,-3.7777,-3.7894,-3.8054,-3.8151,-3.8246,-3.8306,-3.8063,0.0,-3.8034,-3.8184,0.0,0.0,0.0,0.0,0.0,0.0,0.0,0.0,0.0,0.0,0.0,0.0,0.0,0.0,0.0,0.0,0.0,0.0,0.0,0.0,0.0,0.0,-4.0208,-4.0304,-4.03,-4.0208,0.0,-3.9406,-3.9061,-3.9474,-3.9073,-3.8777,0.0,0.0,0.0,0.0,0.0,0.0,-3.8707,-3.8707,-3.8707,-3.8707,-3.8707,-3.867,-3.856,-3.7804,-3.6997,-3.6174,-3.5316,-3.4527,-3.3825,-3.3807,0.0,0.0,0.0,0.0,0.0,0.0,0.0,0.0,0.0,0.0,0.0,0.0,0.0,0.0,0.0,0.0,0.0,0.0,0.0,0.0,0.0,0.0,0.0,0.0,0.0,0.0,0.0,0.0,0.0,-3.6095,-3.5803,-3.5433,-3.5742,-3.6004,0.0,0.0,0.0,0.0,0.0,0.0,0.0,0.0,0.0,-3.743,-3.743,-3.7603,-3.8007,-3.8007,-3.8007,-3.8007,-3.8488,-3.8787,-3.89,-3.9418,-3.9727,-3.9814,-3.9907,-3.9946,-3.9934,-3.9352,-3.9177,-3.9268,0.0,0.0,0.0,0.0,-4.0059,-4.0059,-4.0059,-4.0059,-4.0039,-3.9899,0.0,0.0,0.0,0.0,0.0,0.0,0.0,-4.0496,0.0,0.0,-4.0496,-4.0496,-4.0496,-4.0473,-4.0356,-3.9993,-3.9599,-3.9364,-3.898,-3.875,-3.8855,-3.8792,0.0,0.0,0.0,-3.8707,-3.8707,-3.8707,-3.8707,-3.8707,-3.8707,-3.8707,-3.8707,-3.797,-3.7162,-3.634,-3.5481,-3.4637,-3.3825,-3.3807,-3.3807,0.0,0.0,0.0,0.0,0.0,0.0,0.0,0.0,0.0,0.0,0.0,0.0,0.0,0.0,0.0,0.0,0.0,0.0,0.0,0.0,0.0,0.0,0.0,0.0,0.0,0.0,0.0,0.0,-3.652,-3.6523,-3.6321,-3.6535,-3.6695,0.0,0.0,0.0,0.0,0.0,0.0,-3.7636,-3.8078,-3.8334,-3.8334,-3.8334,-3.843,-3.8642,-3.8642,-3.8642,-3.8642,-3.9304,-3.9655,-3.9766,-4.0466,-4.087,-4.1017,-4.1104,-4.1171,-4.1133,-4.0381,-4.008,-4.0161,-4.0917,-4.1191,-4.1191,-4.1191,-4.1191,-4.1191,-4.1191,-4.1191,-4.1172,-4.1081,-4.1025,-4.0988,-4.0877,0.0,0.0,0.0,0.0,-4.0496,-4.0496,-4.0496,-4.0496,-4.0496,-4.0496,-4.0481,-4.0406,-4.0232,-3.9943,0.0,-3.9059,-3.8803,-3.8803,-3.875,0.0,-3.8707,-3.8707,-3.8707,-3.8707,-3.8707,-3.8707,-3.8707,-3.8707,-3.8707,-3.8707,-3.8138,-3.7382,-3.6358,-3.5697,-3.4857,-3.3844,-3.3807,-3.3807,-3.3807,0.0,0.0,0.0,0.0,0.0,0.0,0.0,0.0,0.0,0.0,0.0,0.0,0.0,0.0,0.0,0.0,0.0,0.0,0.0,0.0,0.0,0.0,0.0,0.0,0.0,0.0,0.0,0.0,0.0,-3.6376,-3.6535,0.0,0.0,0.0,0.0,-3.7471,-3.8261,-3.8504,-3.7997,-3.8777,-3.9227,-3.9227,-3.9227,-3.9611,-4.0362,-4.0362,-4.0362,-4.0362,-4.0419,-4.0516,-4.0639,-4.069,-4.0818,-4.0996,-4.1017,-4.108,-4.1191,-4.1152,-4.1113,-4.1133,-4.1172,-4.1191,-4.1191,-4.1191,-4.1191,-4.1191,-4.1191,-4.1191,-4.1191,-4.1191,-4.1104,-4.0996,-4.0992,-4.0844,0.0,0.0,-4.0596,-4.0496,-4.0496,-4.0496,-4.0496,-4.0496,-4.0496,-4.0441,-4.0177,-4.011,-4.0091,0.0,-3.9529,-3.9085,-3.9085,0.0,-3.8707,-3.8707,-3.8707,-3.8707,-3.8707,-3.8707,-3.8707,-3.8707,-3.8707,-3.8707,-3.8707,-3.867,-3.7973,-3.6395,-3.6266,-3.5495,-3.3862,-3.3807,-3.3807,-3.3807,-3.3807,0.0,0.0,0.0,0.0,0.0,0.0,0.0,0.0,0.0,0.0,0.0,0.0,0.0,0.0,0.0,0.0,0.0,0.0,0.0,0.0,0.0,0.0,0.0,0.0,0.0,0.0,0.0,0.0,-3.7881,-3.793,0.0,-3.7999,-3.8062,-3.8169,-3.8266,-3.8721,-3.9003,-3.9029,-3.9537,-3.9881,-4.0065,-4.0073,-4.0208,-4.0496,-4.0496,-4.0496,-4.0496,-4.0496,-4.0534,-4.0561,-4.0655,-4.0767,-4.0874,-4.0959,-4.1078,-4.1191,-4.1191,-4.1191,-4.1191,-4.1191,-4.1191,-4.1191,-4.1191,-4.1191,-4.1191,-4.1191,-4.1191,-4.1191,-4.1191,-4.1171,-4.1105,-4.1025,-4.089,-4.0757,-4.0707,-4.0603,-4.0496,-4.0496,-4.0496,-4.0496,-4.0496,-4.0496,-4.0473,-4.0372,-4.0356,-4.025,-3.9851,-3.9401,-3.9049,-3.8869,-3.8762,-3.8707,-3.8707,-3.8707,-3.8707,-3.8707,-3.8707,-3.8707,-3.8707,-3.8707,-3.8707,-3.8707,-3.8707,-3.823,-3.7144,-3.6578,-3.5789,-3.4619,-3.4082,-3.3807,-3.3807,-3.3807,-3.3447,0.0,0.0,0.0,0.0,0.0,0.0,0.0,0.0,0.0,0.0,0.0,0.0,0.0,0.0,0.0,0.0,0.0,0.0,0.0,0.0,0.0,0.0,0.0,0.0,0.0,-3.7998,-3.8433,-3.8433,-3.8578,-3.8707,-3.8707,-3.8707,-3.875,-3.8829,-3.8999,-3.9238,-3.9587,-3.9912,-4.0177,-4.0356,-4.0457,-4.0496,-4.0496,-4.0496,-4.0496,-4.0496,-4.0496,-4.0496,-4.0496,-4.0582,-4.069,-4.0766,-4.087,-4.1019,-4.1148,-4.1171,-4.1191,-4.1191,-4.1191,-4.1191,-4.1191,-4.1191,-4.1191,-4.1191,-4.1191,-4.1191,-4.1191,-4.1191,-4.1191,-4.1172,-4.1083,-4.093,-4.0785,-4.0742,-4.063,-4.0496,-4.0496,-4.0496,-4.0496,-4.0496,-4.0496,-4.0496,-4.0496,-4.0496,-4.0328,-3.9724,-3.9414,-3.9144,-3.878,-3.8707,-3.8707,-3.8707,-3.8707,-3.8707,-3.8707,-3.8707,-3.8707,-3.8707,-3.8707,-3.8707,-3.8707,-3.8707,-3.8358,-3.7547,-3.6725,-3.5917,-3.5041,-3.4215,-3.3935,-3.4197,-3.4197,-3.372,-3.2747,0.0,0.0,0.0,0.0,0.0,0.0,0.0,0.0,0.0,0.0,0.0,0.0,0.0,0.0,0.0,0.0,0.0,0.0,0.0,0.0,0.0,0.0,0.0,-3.6395,-3.7268,-3.7893,-3.7893,-3.8382,-3.8707,-3.8707,-3.8707,-3.8818,-3.9058,-3.9085,-3.9225,-3.9576,-3.9891,-4.0081,-4.0101,-4.0356,-4.0489,-4.0496,-4.0496,-4.0496,-4.0496,-4.0496,-4.0496,-4.0496,-4.0496,-4.0561,-4.0709,-4.077,-4.0874,-4.1019,-4.1149,-4.1191,-4.1191,-4.1191,-4.1191,-4.1191,-4.1191,-4.1191,-4.1191,-4.1191,-4.1191,-4.1191,-4.1191,-4.1191,-4.1191,-4.1191,-4.1,-4.0797,-4.0797,-4.0651,-4.0496,-4.0496,-4.0496,-4.0496,-4.0496,-4.0496,-4.0496,-4.0496,-4.0496,-4.0328,-3.9724,-3.9599,-3.9414,-3.8807,-3.8707,-3.8707,-3.8707,-3.8707,0.0,-3.8707,-3.8707,-3.8707,-3.8707,-3.8707,-3.8707,-3.8707,-3.8707,-3.8377,-3.7584,-3.6758,-3.5917,-3.5078,-3.4247,-3.4174,-3.4949,-3.4954,-3.4381,-3.3199,0.0,0.0,0.0,0.0,0.0,0.0,0.0,0.0,0.0,0.0,0.0,0.0,0.0,0.0,0.0,0.0,0.0,0.0,0.0,0.0,0.0,-3.5413,-3.5963,-3.635,-3.7268,-3.7893,-3.7893,-3.8382,-3.8707,-3.8707,-3.8707,-3.8735,-3.8803,-3.8818,-3.8937,-3.9212,-3.9314,-3.9599,-4.0091,-4.0167,-4.0294,-4.0496,-4.0496,-4.0496,-4.0496,-4.0496,-4.0496,-4.0496,-4.0496,-4.0561,-4.0709,-4.077,-4.0874,-4.1019,-4.1149,-4.1191,-4.1191,-4.1191,-4.1191,-4.1191,-4.1191,-4.1191,-4.1191,-4.1191,-4.1191,-4.1191,-4.1191,-4.1191,-4.1191,-4.1191,-4.1,-4.0797,-4.0797,-4.0651,-4.0496,-4.0496,-4.0496,-4.0496,-4.0496,-4.0496,-4.0496,-4.0496,-4.0496,-4.0328,-3.9724,-3.9599,-3.9414,-3.8807,-3.8707,-3.8707,-3.8707,-3.8707,0.0,-3.8707,-3.8707,-3.8707,-3.8707,-3.8707,-3.8707,-3.8707,-3.8707,-3.8615,-3.8377,-3.7074,-3.6193,-3.5954,-3.4559,-3.3899,-3.4137,-3.3836,-3.352,0.0,0.0,0.0,0.0,0.0,0.0,0.0,0.0,0.0,0.0,0.0,0.0,0.0,0.0,0.0,0.0,0.0,0.0,0.0,0.0,0.0,0.0,-3.5339,-3.5717,-3.6028,-3.6944,-3.7614,-3.7614,-3.8251,-3.8707,-3.8707,-3.8707,-3.8707,-3.8707,-3.8707,-3.8777,-3.8919,-3.9036,-3.9276,-3.9668,-3.9943,-4.0167,-4.0339,-4.043,-4.0496,-4.0496,-4.0496,-4.0496,-4.0496,-4.0496,-4.0537,-4.063,-4.0726,-4.0813,-4.0922,-4.1055,-4.115,0.0,0.0,0.0,0.0,0.0,-4.1191,-4.1191,-4.1191,-4.1191,-4.1191,-4.1191,-4.1191,-4.1191,-4.1191,-4.1,-4.0797,-4.0797,-4.0651,-4.0496,-4.0496,-4.0496,-4.0496,-4.0496,-4.0496,-4.0496,-4.0496,-4.0496,-4.0353,-3.9893,-3.9709,0.0,-3.8952,-3.8777,-3.8707,-3.8707,-3.8707,-3.8707,-3.8707,-3.8707,-3.8707,-3.8707,-3.8707,-3.8707,-3.8707,-3.8707,0.0,0.0,0.0,-3.5991,-3.5275,-3.4651,0.0,0.0,0.0,-3.3778,-3.3451,0.0,0.0,0.0,-3.188,-3.1584,0.0,0.0,0.0,0.0,0.0,0.0,0.0,0.0,0.0,0.0,0.0,0.0,0.0,0.0,0.0,0.0,-3.5492,-3.56,-3.56,-3.646,-3.7097,-3.7097,-3.7999,-3.8611,-3.8611,-3.8658,-3.8707,-3.8707,-3.8707,-3.8707,-3.8707,-3.8937,0.0,0.0,0.0,-4.0071,-4.0101,-4.0364,-4.0496,-4.0496,-4.0496,-4.0496,-4.0496,-4.0496,-4.0496,-4.0504,-4.0649,-4.0736,-4.0809,-4.0947,-4.108,-4.1191,-4.1191,-4.1191,-4.1191,-4.1191,-4.1191,-4.1191,-4.1191,0.0,0.0,-4.1191,-4.1191,-4.1191,-4.1191,-4.1,-4.0797,-4.0797,-4.0651,-4.0496,-4.0496,-4.0496,-4.0496,-4.0496,-4.0496,-4.0496,-4.0496,-4.0496,-4.0414,-4.0148,-3.987,-3.9541,-3.916,-3.8884,-3.8707,-3.8707,-3.8707,-3.8707,-3.8707,-3.8707,-3.8707,-3.8707,0.0,0.0,-3.8707,-3.8707,-3.8707,-3.8707,-3.7184,-3.555,-3.3862,-3.4491,-3.4527,-3.3807,-3.4491,-3.4509,-3.3807,-3.3408,-3.2968,-3.2484,-3.2022,-3.1584,0.0,0.0,0.0,0.0,0.0,0.0,0.0,0.0,0.0,0.0,0.0,0.0,0.0,0.0,0.0,-3.4037,-3.4887,-3.56,-3.56,-3.6161,-3.6542,-3.6542,-3.7451,-3.8047,-3.8047,-3.8449,-3.8707,-3.8707,-3.8707,-3.8707,-3.8707,-3.8747,-3.8884,-3.9099,-3.9493,-3.9819,-4.0101,-4.0364,-4.0496,-4.0496,-4.0496,0.0,-4.0496,-4.0496,-4.0496,-4.0504,-4.0649,-4.0715,-4.0726,-4.0928,-4.108,-4.1191,-4.1191,-4.1191,-4.1191,-4.1191,-4.1191,-4.1191,-4.1191,-4.1191,-4.1191,-4.1191,-4.1191,-4.1191,-4.1191,-4.1,0.0,-4.0797,-4.0651,-4.0496,-4.0496,-4.0496,-4.0496,-4.0496,-4.0496,-4.0496,-4.0496,-4.0496,-4.0414,-4.0148,-4.0061,-3.9808,-3.9199,-3.8884,-3.8707,-3.8707,-3.8707,-3.8707,-3.8707,-3.8707,-3.8707,-3.8707,-3.8707,-3.8707,-3.8707,-3.8707,-3.8707,-3.8707,-3.7184,-3.555,-3.3862,-3.3954,-3.3972,-3.3807,-3.3954,-3.3954,-3.3807,-3.3408,-3.2968,-3.2484,-3.2022,-3.1584,0.0,0.0,0.0,0.0,0.0,0.0,0.0,0.0,0.0,0.0,0.0,-3.2064,0.0,0.0,-3.3582,-3.3582,-3.4447,-3.5098,-3.5098,-3.5621,-3.6203,-3.6744,-3.7433,-3.8015,-3.8283,-3.8546,-3.8707,-3.8707,-3.8707,-3.8707,-3.8707,-3.8707,-3.8762,-3.8913,-3.9364,-3.9679,-3.9859,-4.0274,-4.0496,-4.0496,-4.0496,-4.0496,-4.0496,-4.0496,-4.0496,-4.0504,-4.0574,-4.0643,-4.0721,-4.0919,-4.108,-4.1191,-4.1191,-4.1191,-4.1191,-4.1191,-4.1191,-4.1191,-4.1191,-4.1191,-4.1191,-4.1191,-4.1191,-4.1191,-4.1191,-4.1055,-4.0899,-4.0813,-4.0707,-4.0575,-4.0519,-4.0496,-4.0496,-4.0496,-4.0496,-4.0496,-4.0496,-4.0496,-4.0465,-4.033,-4.0186,-3.9992,-3.9656,-3.9352,-3.905,-3.875,-3.8707,-3.8707,-3.8707,-3.8707,-3.8707,-3.8707,-3.8707,-3.8707,-3.8707,-3.8707,-3.8524,-3.812,-3.6964,-3.5734,-3.4454,-3.4009,-3.3807,-3.3807,-3.3807,-3.3807,-3.3807,-3.3166,-3.2729,-3.2484,-3.1806,-3.1391,0.0,0.0,0.0,0.0,0.0,0.0,0.0,0.0,-3.1511,-3.1511,-3.1511,-3.1682,-3.2272,-3.2504,-3.2815,-3.3479,-3.4161,-3.4664,-3.4783,-3.5253,-3.5946,-3.6941,-3.747,-3.7929,-3.8368,-3.8596,-3.8707,-3.8707,-3.8707,-3.8707,-3.8707,-3.8707,-3.8707,-3.8707,-3.9229,-3.9522,-3.9599,-4.0148,-4.0457,-4.0496,-4.0496,-4.0496,-4.0496,-4.0496,-4.0496,-4.0496,-4.0496,-4.0581,-4.0701,-4.0883,-4.1049,-4.1151,-4.1191,-4.1191,-4.1191,-4.1191,-4.1191,-4.1191,-4.1191,-4.1191,-4.1191,-4.1191,-4.1191,-4.1191,-4.1191,-4.1104,-4.0986,-4.0867,-4.0771,-4.0687,-4.0574,-4.0527,-4.0496,-4.0496,-4.0496,-4.0496,-4.0496,-4.0496,-4.0496,-4.0496,-4.033,-4.0158,-4.011,-3.988,-3.95,-3.8873,-3.8792,-3.8762,-3.8707,-3.8707,-3.8707,-3.8707,-3.8707,-3.8707,-3.8707,-3.8707,-3.8358,-3.7547,-3.6725,-3.5917,-3.5041,-3.4215,-3.3807,-3.3807,-3.3807,-3.3807,-3.3807,-3.3029,-3.2583,-3.2484,-3.1694,-3.1271,-2.6499,-2.6499,-2.6521,-2.6624,-2.7887,-2.916,0.0,0.0,-3.1511,-3.1511,-3.1511,-3.1539,-3.1611,-3.2176,-3.2815,-3.3479,-3.4161,-3.4807,-3.5407,-3.5538,-3.581,-3.6416,-3.696,-3.7304,-3.736,-3.8168,-3.8707,-3.8707,-3.8707,-3.8707,-3.8707,-3.8707,-3.8707,-3.8707,-3.9004,-3.9289,-3.9599,-3.9963,-4.0258,-4.0496,-4.0496,-4.0496,-4.0496,-4.0496,-4.0496,-4.0496,-4.0496,-4.0581,-4.0709,-4.0784,-4.0908,-4.1028,-4.115,-4.1191,-4.1191,-4.1191,-4.1191,-4.1191,-4.1191,-4.1191,-4.1191,-4.1191,-4.1191,-4.1191,-4.1191,-4.1104,-4.0994,-4.0988,-4.0832,-4.0692,-4.068,-4.0582,-4.0496,-4.0496,-4.0496,-4.0496,-4.0496,-4.0496,-4.0496,-4.0496,-4.0473,-4.0381,-4.0139,-4.0071,-3.9808,-3.9152,-3.9063,-3.8975,-3.8735,-3.8707,-3.8707,-3.8707,-3.8707,-3.8707,-3.8707,-3.8707,-3.8358,-3.7547,-3.6725,-3.5917,-3.5041,-3.4215,-3.3807,-3.3807,-3.3807,-3.3807,-3.3807,-3.3346,-3.2921,-3.2484,-3.1968,-3.1528,-2.6499,-2.6499,-2.6624,0.0,-2.8117,-2.9129,-2.9628,-3.0644,-3.1511,-3.1511,-3.1511,-3.1511,-3.1511,-3.1739,-3.2064,0.0,-3.3297,-3.4112,-3.4399,-3.5115,-3.5672,-3.592,-3.6416,-3.6962,-3.756,-3.7998,-3.8366,-3.8692,-3.8707,-3.8707,-3.8707,-3.8707,-3.8707,-3.8707,-3.8961,-3.9178,-3.9302,-3.9848,-4.0158,-4.0278,-4.0433,-4.0496,-4.0496,-4.0496,-4.0496,-4.0496,-4.0496,-4.0581,-4.0703,-4.0726,-4.0807,-4.0905,-4.1026,-4.1081,-4.1083,-4.1171,-4.1191,-4.1191,-4.1191,-4.1191,-4.1191,-4.1191,-4.1191,-4.1191,-4.1191,-4.1151,-4.1103,-4.1023,-4.0883,-4.0747,-4.0701,-4.0596,-4.0496,-4.0496,-4.0496,-4.0496,-4.0496,-4.0496,-4.0496,-4.0496,-4.0496,-4.0465,-4.0356,-4.0339,-4.0185,-3.9746,-3.9339,-3.9044,-3.8947,-3.8788,-3.8707,-3.8707,-3.8707,-3.8707,-3.8707,-3.8707,-3.856,-3.8212,-3.7,-3.6138,-3.5771,-3.4504,-3.3807,-3.3807,-3.3807,-3.3807,-3.3807,-3.3408,-3.2968,-3.2484,-3.2022,-3.1584,-2.6499,0.0,0.0,-2.7517,-2.8363,-2.9223,-3.0103,-3.0925,-3.1511,-3.1511,-3.1511,-3.1511,-3.1511,-3.1511,-3.164,-3.202,-3.2944,-3.3735,-3.4103,-3.4981,-3.56,-3.56,-3.5941,-3.6522,-3.7397,-3.7737,-3.8065,-3.8449,-3.8627,-3.8707,-3.8707,-3.8707,-3.8707,-3.8707,-3.8898,-3.904,-3.9112,-3.9587,-3.9912,-4.0101,-4.0304,-4.0441,-4.0496,-4.0496,-4.0496,-4.0496,-4.0496,-4.0552,-4.0655,-4.068,-4.0726,-4.0788,-4.0944,-4.0996,-4.1021,-4.115,-4.1191,-4.1191,-4.1191,-4.1191,-4.1191,-4.1191,-4.1191,-4.1191,-4.1191,-4.1191,-4.1171,-4.108,-4.0925,-4.0781,-4.0747,-4.0617,-4.0496,-4.0496,-4.0496,-4.0496,-4.0496,-4.0496,-4.0496,-4.0496,-4.0496,-4.0496,-4.0496,-4.0496,-4.0422,-4.0232,-3.9735,-3.9339,-3.9238,-3.899,-3.8773,-3.8723,-3.8707,-3.8707,-3.8707,-3.8707,-3.8707,-3.8707,-3.7184,-3.6303,-3.6303,-3.4688,-3.3807,-3.3807,-3.3807,-3.3807,-3.3807,-3.3508,-3.3136,-3.2681,-3.2213,-3.177,0.0,0.0,-2.6679,-2.7517,-2.8363,-2.9223,-3.0103,-3.0925,-3.1511,-3.1511,-3.1511,-3.1511,-3.1511,-3.1511,-3.1951,-3.3297,-3.3556,-3.4037,-3.5362,-3.5577,-3.56,-3.56,-3.5622,-3.5832,-3.6395,-3.7323,-3.7911,-3.7911,-3.8417,-3.8707,-3.8707,-3.8707,-3.8707,-3.8707,-3.8723,-3.8844,-3.9099,-3.9125,-3.9469,-4.0101,-4.011,-4.0241,-4.0496,-4.0496,-4.0496,-4.0496,-4.0496,-4.0496,-4.0519,-4.0655,-4.0703,-4.0718,-4.0925,-4.0996,-4.1021,-4.115,-4.1191,-4.1191,-4.1191,-4.1191,-4.1191,-4.1191,-4.1191,-4.1191,-4.1191,-4.1191,-4.1191,-4.1191,-4.0998,-4.0797,-4.0793,-4.0645,-4.0496,-4.0496,-4.0496,-4.0496,-4.0496,-4.0496,-4.0496,-4.0496,-4.0496,-4.0496,-4.0496,-4.0496,-4.0496,-4.0489,-4.025,-3.9943,-3.9622,-3.9289,-3.8985,-3.8735,-3.8707,-3.8707,-3.8707,-3.8707,-3.8707,-3.8707,-3.7184,-3.6303,-3.6303,-3.4688,-3.3807,-3.3807,-3.3807,-3.3807,-3.3807,-3.3793,-3.3564,-3.3169,-3.2697,-3.223,0.0,0.0,-2.685,-2.8214,-2.878,-2.938,-3.0777,-3.1307,-3.1511,-3.1511,-3.1511,-3.1511,-3.1511,-3.1511,-3.1824,-3.2788,-3.3313,-3.3912,-3.4807,-3.5316,-3.56,-3.56,-3.56,0.0,0.0,-3.6825,-3.756,-3.7876,-3.8399,-3.8707,-3.8707,-3.8707,-3.8707,-3.8707,-3.8707,-3.8732,-3.8829,-3.8994,-3.9212,-3.9438,-3.9891,-4.0232,-4.0496,-4.0496,-4.0496,-4.0496,-4.0496,-4.0496,-4.0504,-4.0545,-4.0574,-4.0575,-4.0731,-4.0828,-4.0877,-4.1021,-4.1127,-4.1191,-4.1191,-4.1191,-4.1191,-4.1191,-4.1191,-4.1191,-4.1191,-4.1191,-4.1191,-4.1191,-4.1077,-4.0925,-4.0925,-4.0781,-4.0636,-4.0636,-4.0566,-4.0496,-4.0496,-4.0496,-4.0496,-4.0496,-4.0496,-4.0496,-4.0496,-4.0496,-4.0496,-4.0496,-4.0258,-3.9901,-3.9339,-3.916,-3.8999,-3.8735,-3.8707,-3.8707,-3.8707,-3.8707,-3.8707,-3.8707,-3.7679,-3.6868,-3.6321,-3.5202,-3.4344,-3.3807,-3.3807,-3.3807,-3.3807,-3.3807,-3.3592,-3.3199,-3.2713,-3.2247,0.0,-2.6499,-2.6905,-2.8588,-2.9002,-2.9442,-3.1117,-3.1511,-3.1511,-3.1511,-3.1511,-3.1511,-3.1511,-3.1511,-3.1739,-3.2492,-3.296,-3.3556,-3.4479,-3.4965,-3.5339,-3.5577,-3.56,-3.56,0.0,0.0,-3.7323,-3.7632,-3.8283,-3.8707,-3.8707,-3.8707,-3.8707,-3.8707,-3.8707,-3.8707,-3.8707,-3.8869,-3.9082,-3.9295,-3.9848,-4.0232,-4.0496,-4.0496,-4.0496,-4.0496,-4.0496,-4.0496,-4.0496,-4.0496,-4.0496,-4.0512,-4.0655,-4.074,-4.0775,-4.0944,-4.1054,-4.1148,-4.1172,-4.1191,-4.1191,-4.1191,-4.1191,-4.1191,-4.1191,-4.1191,-4.1191,-4.1191,-4.1104,-4.0996,-4.0996,-4.0866,-4.0726,-4.0709,-4.0636,-4.0559,-4.0512,-4.0496,-4.0496,-4.0496,-4.0496,-4.0496,-4.0496,-4.0496,-4.0496,-4.0496,-4.0356,-4.0013,-3.9364,-3.9276,-3.9131,-3.875,-3.8707,-3.8707,-3.8707,-3.8707,-3.8707,-3.8707,-3.7936,-3.7144,-3.6321,-3.5463,-3.4619,-3.3825,-3.3807,-3.3807,-3.3807,-3.3807,-3.3666,-3.339,-3.2968,-3.2501,-2.6499,-2.6499,-2.6871,-2.8524,-2.8971,-2.9442,-3.1058,-3.1467,-3.1511,-3.1511,-3.1511,-3.1511,0.0,0.0,-3.1739,-3.2492,-3.2586,-3.3066,-3.4406,-3.46,-3.4847,0.0,0.0,0.0,0.0,0.0,0.0,-3.7209,-3.8135,-3.8707,-3.8707,-3.8707,-3.8707,-3.8707,-3.8707,-3.8707,-3.8707,-3.8707,-3.8998,-3.9587,-3.9912,-4.0213,-4.0481,-4.0489,-4.0496,-4.0496,-4.0496,-4.0496,-4.0496,-4.0496,-4.0496,-4.0512,-4.0649,-4.0692,-4.0713,-4.0922,-4.0994,-4.1023,-4.115,-4.1191,-4.1191,-4.1191,-4.1191,-4.1191,-4.1191,-4.1191,-4.1191,-4.1191,-4.1105,-4.1019,-4.1019,-4.0914,-4.0781,-4.0735,-4.0709,-4.0674,-4.053,-4.0504,-4.0496,-4.0496,-4.0496,-4.0496,-4.0496,-4.0496,-4.0496,-4.0496,-4.0496,-4.0274,-3.9679,-3.9599,-3.9364,-3.8747,-3.8707,-3.8707,-3.8707,-3.8707,-3.8707,-3.8707,-3.7988,-3.718,-3.6321,-3.55,-3.4674,-3.3825,-3.3807,-3.3807,-3.3807,-3.3807,-3.3807,-3.3775,-3.3361,-3.2937,-2.6499,-2.6499,-2.6748,-2.7769,-2.8524,-2.9286,-3.0359,-3.1058,-3.1511,-3.1511,-3.1511,-3.1511,0.0,0.0,0.0,-3.2492,-3.2586,0.0,-3.4406,-3.46,0.0,-3.5515,0.0,-3.56,-3.56,-3.6224,0.0,-3.7154,-3.8135,-3.8707,-3.8707,-3.8707,-3.8707,-3.8707,-3.8707,-3.8707,-3.8707,-3.8707,-3.8888,-3.9225,-3.9576,-3.9882,-4.0204,-4.0406,-4.0496,-4.0496,-4.0496,-4.0496,-4.0496,-4.0496,-4.0496,-4.0504,-4.053,-4.061,-4.0701,-4.0809,-4.0914,-4.1023,-4.115,-4.1191,-4.1191,-4.1191,-4.1191,-4.1191,-4.1191,-4.1191,-4.1191,-4.1191,-4.1171,-4.115,-4.115,-4.1052,-4.095,-4.0931,-4.0809,-4.0686,-4.0668,-4.0574,-4.0496,-4.0496,-4.0496,-4.0496,-4.0496,-4.0496,-4.0496,-4.0496,-4.0496,-4.0274,-3.9679,-3.9599,-3.9364,-3.8747,-3.8707,-3.8707,-3.8707,-3.8707,-3.8707,-3.8707,-3.8505,-3.7753,-3.6358,-3.6083,-3.5275,-3.3825,-3.3807,-3.3807,-3.3807,-3.3807,-3.3807,-3.3775,-3.3027,-3.2616,-2.6499,-2.6499,-2.6679,-2.7517,-2.8363,-2.9223,-3.0103,-3.0925,-3.1511,-3.1511,-3.1511,0.0,-3.1511,-3.1511,-3.164,0.0,0.0,0.0,-3.3987,-3.4161,-3.452,0.0,-3.56,0.0,-3.56,-3.6075,-3.6623,-3.7171,-3.7912,-3.8449,-3.8692,-3.8707,-3.8707,-3.8707,-3.8707,-3.8707,-3.8707,-3.8707,-3.8829,-3.9093,-3.9438,-3.9775,-4.011,-4.0372,-4.0496,-4.0496,-4.0496,-4.0496,-4.0496,-4.0496,-4.0496,-4.0496,-4.0496,-4.0545,-4.061,-4.0712,-4.0817,-4.0925,-4.1076,-4.115,-4.1191,-4.1191,-4.1191,-4.1191,-4.1191,-4.1191,-4.1191,-4.1191,-4.1191,-4.1191,-4.1191,-4.1149,-4.1077,-4.1002,-4.0866,-4.0736,-4.0715,-4.0589,-4.0496,-4.0496,-4.0496,-4.0496,-4.0496,-4.0496,-4.0496,-4.0496,-4.0496,-4.0336,-3.9872,-3.9679,-3.9408,-3.8923,-3.8777,-3.8707,-3.8707,-3.8707,-3.8707,-3.8707,-3.8707,-3.7973,-3.6358,-3.6303,-3.5514,-3.3825,-3.3807,-3.3807,-3.3807,-3.3807,-3.3807,-3.3775,-3.3121,-3.2697,-2.6624,-2.6658,-2.685,-2.767,-2.8524,-2.938,-3.0133,-3.0925,-3.1511,-3.1511,0.0,-3.1511,-3.1511,-3.1511,-3.1511,-3.1511,0.0,-3.1992,-3.3401,-3.3582,-3.4103,-3.5447,-3.56,-3.56,-3.56,-3.6028,-3.6519,-3.7039,-3.7542,-3.8065,-3.8658,-3.8707,-3.8707,-3.8707,-3.8707,-3.8707,-3.8707,-3.8707,-3.8833,-3.9049,-3.9383,-3.972,-4.0032,-4.0311,-4.0465,-4.0496,-4.0496,-4.0496,-4.0496,-4.0496,-4.0496,-4.0496,-4.0496,-4.0496,-4.0519,-4.0662,-4.0742,-4.0813,-4.0952,-4.1078,-4.1171,-4.1191,-4.1191,-4.1191,-4.1191,-4.1191,-4.1191,-4.1191,-4.1191,-4.1191,-4.1191,-4.1191,-4.1171,-4.1054,-4.092,-4.0809,-4.0721,-4.0603,-4.0496,-4.0496,-4.0496,-4.0496,-4.0496,-4.0496,-4.0496,-4.0496,-4.0496,-4.0425,-4.0177,-3.9861,-3.9541,-3.9199,-3.8909,-3.8747,-3.8747,-3.8719,-3.8707,-3.8707,-3.8707,-3.7973,-3.6358,-3.6303,-3.5514,-3.3825,-3.3807,-3.3807,-3.3807,-3.3807,-3.3807,-3.3775,-3.3375,-3.2952,-2.7317,-2.7484,-2.7703,-2.8556,-2.9442,-3.0103,-3.0269,-3.0925,0.0,0.0,-3.1511,-3.1511,-3.1511,-3.1511,-3.1511,-3.1511,-3.1511,-3.1992,-3.3401,-3.3582,-3.4103,0.0,-3.56,-3.56,-3.56,-3.5672,-3.5963,-3.6498,-3.702,-3.772,-3.8643,-3.8707,-3.8707,-3.8707,-3.8707,-3.8707,-3.8707,-3.8707,-3.8719,-3.8777,-3.9054,-3.9352,-3.9709,-4.0013,-4.0295,-4.0496,-4.0496,0.0,-4.0496,-4.0496,-4.0496,-4.0496,-4.0496,-4.0496,-4.0519,-4.0662,-4.0715,-4.0736,-4.0936,-4.1021,-4.1052,-4.1151,-4.1191,-4.1191,-4.1191,-4.1191,-4.1191,-4.1191,-4.1191,-4.1191,-4.1191,-4.1191,-4.1191,-4.1171,-4.1055,-4.0922,-4.0813,-4.0635,-4.0496,-4.0496,-4.0496,-4.0496,-4.0496,-4.0496,-4.0496,-4.0496,-4.0496,-4.0481,-4.0441,-4.0195,-3.9891,-3.9552,-3.9218,-3.9036,-3.9036,-3.8829,-3.8707,-3.8707,-3.8707,-3.7973,-3.6358,-3.6303,-3.5514,-3.3825,-3.3807,-3.3807,-3.3807,-3.3807,-3.3807,-3.3775,-3.3375,-3.2952,-2.8149,-2.8363,-2.8492,-2.8907,-2.9659,-3.0299,-3.0299,0.0,0.0,0.0,-3.1511,-3.1391,-3.1032,-3.0972,0.0,-3.0972,-3.0972,-3.1582,-3.3354,-3.3582,-3.4103,-3.5447,-3.56,-3.56,-3.56,-3.56,-3.581,-3.6354,-3.6902,-3.7524,-3.8251,-3.8546,-3.8707,-3.8707,-3.8707,-3.8707,-3.8707,-3.8707,-3.8707,-3.8707,-3.8957,-3.9276,-3.9611,-3.9962,-4.026,-4.0496,-4.0496,-4.0496,-4.0496,-4.0496,-4.0496,-4.0496,-4.0496,-4.0496,-4.0504,-4.0581,-4.0649,-4.0721,-4.0814,-4.0916,-4.1019,-4.1078,-4.1149,-4.1191,-4.1191,-4.1191,-4.1191,-4.1191,-4.1191,-4.1191,-4.1191,-4.1191,-4.1191,-4.1191,-4.1031,-4.086,-4.0771,-4.061,-4.0496,-4.0496,-4.0496,-4.0496,-4.0496,-4.0496,-4.0496,-4.0496,-4.0496,-4.0496,-4.0496,-4.0381,-4.0185,-3.9901,-3.9564,-3.9289,-3.9107,-3.9131,-3.9022,-3.8719,-3.8829,-3.812,-3.6372,-3.6303,-3.5514,-3.3825,-3.3807,-3.3807,-3.3807,-3.3807,-3.3807,-3.3775,-3.3375,-3.3075,-2.9034,-2.9286,-2.9317,-2.9473,-3.0042,-3.0554,-3.0554,-3.1058,0.0,0.0,-3.1391,-3.1122,-3.0612,-3.0387,-3.0357,0.0,-3.0507,-3.1229,-3.3306,-3.3582,-3.4103,-3.5447,-3.56,0.0,-3.56,-3.56,-3.5783,-3.6203,-3.6825,-3.7469,-3.8048,-3.8465,-3.8707,-3.8707,-3.8707,-3.8707,-3.8707,-3.8707,-3.8707,-3.8707,-3.8909,-3.9178,-3.9498,-3.9829,-4.0139,-4.0425,-4.0473,-4.0496,-4.0496,-4.0496,-4.0496,-4.0496,-4.0496,-4.0496,-4.0496,-4.0496,-4.0574,-4.0655,-4.0686,-4.0805,-4.0939,-4.0988,-4.1082,-4.1191,-4.1191,-4.1191,-4.1191,-4.1191,-4.1191,-4.1191,-4.1191,-4.1191,-4.1191,-4.1191,-4.1021,-4.0828,-4.0777,-4.0649,-4.0537,-4.0537,-4.0527,-4.0496,-4.0496,-4.0496,-4.0496,-4.0496,-4.0496,-4.0496,-4.0496,-4.0496,-4.0414,-4.0204,-3.9912,-3.9599,-3.9346,-3.9486,-3.9402,-3.8931,-3.9027,-3.8363,-3.6703,-3.6419,-3.5587,-3.41,-3.3899,-3.3807,-3.3807,-3.3807,-3.3807,-3.3775,-3.348,-3.3273,-2.995,-3.0178,-3.0359,-3.1087,-3.1322,-3.138,-3.138,0.0,0.0,-3.1511,-3.1002,-3.0582,-3.0507,-3.0043,0.0,0.0,0.0,-3.1229,-3.3306,-3.3582,-3.4103,-3.5447,0.0,0.0,-3.56,-3.56,-3.5622,-3.5672,-3.6606,-3.7614,-3.858,-3.8658,-3.8707,-3.8707,-3.8707,-3.8707,-3.8707,-3.8707,-3.8707,-3.8707,-3.8719,-3.8884,-3.9165,-3.9486,-3.9819,-4.0148,-4.0389,-4.0496,0.0,-4.0496,-4.0496,-4.0496,-4.0496,-4.0496,-4.0496,-4.0496,-4.0504,-4.0549,-4.0668,-4.0715,-4.0766,-4.0939,-4.1082,-4.1191,-4.1191,-4.1191,-4.1191,-4.1191,-4.1191,-4.1191,-4.1191,-4.1191,-4.1191,-4.1191,-4.1082,-4.0986,-4.0962,-4.0827,-4.068,-4.068,-4.0575,-4.0496,-4.0496,-4.0496,-4.0496,-4.0496,-4.0496,-4.0496,-4.0496,-4.0496,-4.0489,-4.0465,-4.0223,-4.0032,-4.0012,-3.9765,-3.9576,-3.9517,-3.9238,-3.8689,-3.7793,-3.6833,-3.5862,-3.4912,-3.416,-3.3807,-3.3807,-3.3807,-3.3807,-3.3807,-3.3762,-3.355,-3.0807,-3.1029,-3.1087,-3.1409,-3.1511,-3.1511,-3.1511,0.0,-3.1391,-3.0972,-3.0702,-3.0268,-2.9505,-2.916,-2.9071,0.0,0.0,0.0,-3.2787,-3.3687,-3.4544,-3.5492,-3.56,-3.56,-3.56,-3.56,-3.5739,-3.6071,-3.6783,-3.7506,-3.8183,-3.8512,-3.8707,-3.8707,-3.8707,-3.8707,-3.8707,-3.8707,-3.8707,-3.8707,-3.8707,-3.8844,-3.9093,-3.9238,-3.9599,-4.0091,-4.0013,-4.0166,0.0,-4.033,-4.0356,-4.0496,-4.0496,-4.0496,-4.0496,-4.0496,-4.0496,-4.0504,-4.0566,-4.0636,-4.0713,-4.0832,-4.0964,-4.1083,-4.1171,-4.1191,-4.1191,-4.1191,-4.1191,-4.1191,-4.1191,-4.1191,-4.1191,-4.1191,-4.1102,-4.0996,-4.0996,-4.0877,-4.0767,-4.0767,-4.0676,-4.0623,-4.0623,-4.0552,-4.0496,-4.0496,-4.0496,-4.0496,-4.0496,-4.0496,-4.0496,-4.0496,-4.0397,-4.0286,-4.011,-4.0129,-3.9994,-3.9622,-3.9462,-3.8958,-3.7951,-3.6865,-3.5899,-3.5023,-3.4211,-3.3807,-3.3807,-3.3807,-3.3807,-3.3807,-3.3807,-3.3707,-3.1351,-3.1511,-3.1511,-3.1511,-3.1511,-3.1511,0.0,0.0,-3.1062,-3.0612,-3.0208,-2.9669,-2.8771,-2.8427,-2.8368,0.0,0.0,-3.0835,-3.2396,-3.3583,-3.4616,-3.5492,-3.56,-3.56,-3.56,-3.56,-3.581,-3.6354,-3.6744,-3.7173,-3.7667,-3.8167,-3.8546,-3.8692,-3.8707,-3.8707,-3.8707,-3.8707,-3.8707,-3.8707,-3.8707,-3.8803,-3.8985,-3.9058,-3.9352,-3.9797,-3.9656,-3.9842,0.0,-4.0148,-4.0204,-4.0389,-4.0473,-4.0496,-4.0496,-4.0496,-4.0496,-4.0496,-4.0496,-4.0566,-4.0655,-4.0747,-4.0843,-4.0962,-4.1103,-4.1171,-4.1191,-4.1191,-4.1191,-4.1191,-4.1191,-4.1191,-4.1191,-4.1191,-4.1128,-4.1055,-4.1055,-4.0955,-4.086,-4.086,-4.0794,-4.071,-4.0703,-4.0623,-4.0545,-4.0504,-4.0496,-4.0496,-4.0496,-4.0496,-4.0496,-4.0496,-4.0496,-4.0414,-4.0232,-4.0389,-4.0328,-3.9894,-3.9778,-3.9381,-3.8587,-3.7188,-3.6122,-3.5514,-3.4375,-3.3807,-3.3807,-3.3807,-3.3807,-3.3807,-3.3807,-3.3807,-3.1511,-3.1511,-3.1511,-3.1511,-3.1511,-3.1511,0.0,0.0,-3.0507,-3.0507,-2.9505,-2.8622,-2.8607,-2.8064,-2.7824,-2.8487,0.0,0.0,-3.2322,-3.3185,-3.4103,0.0,-3.56,-3.56,-3.56,-3.56,-3.581,-3.6354,-3.6412,-3.6643,-3.7173,-3.7649,-3.815,-3.8673,-3.8707,-3.8707,-3.8707,-3.8707,-3.8707,-3.8707,-3.8707,-3.8707,-3.8704,-3.8971,-3.9093,-3.9139,-3.945,-3.9599,0.0,-3.9953,-4.0101,-4.0129,-4.0389,-4.0496,-4.0496,-4.0496,-4.0496,-4.0496,-4.0496,-4.0496,-4.0515,-4.0668,-4.0742,-4.0839,-4.0959,-4.1083,-4.1191,-4.1191,-4.1191,-4.1191,-4.1191,-4.1191,-4.1191,-4.1191,-4.1191,-4.1191,-4.1191,-4.1082,-4.0994,-4.0994,-4.088,-4.0779,-4.0707,-4.0697,-4.0642,-4.0527,-4.0496,-4.0496,-4.0496,-4.0496,-4.0496,-4.0496,-4.0496,-4.0496,-4.0496,-4.0496,-4.0496,-4.0489,-4.0232,-4.0091,-4.0072,-3.7901,-3.669,-3.6671,-3.4779,-3.3807,-3.3807,-3.3807,-3.3807,-3.3807,-3.3807,-3.3807,-3.1511,-3.1511,-3.1511,-3.1511,-3.1511,-3.1511,-3.1511,0.0,-3.0387,-2.9968,-2.919,-2.8457,-2.8004,-2.775,-2.766,-2.7884,-2.885,0.0,0.0,0.0,0.0,-3.4804,-3.5316,-3.56,-3.56,-3.56,-3.5672,-3.5832,-3.6203,-3.6478,-3.6643,-3.7135,-3.7649,-3.815,-3.8496,-3.8707,-3.8707,-3.8707,-3.8707,-3.8707,-3.8707,-3.8707,-3.8707,-3.8788,-3.8937,-3.9099,-3.9017,-3.9216,-3.9611,-3.9701,-3.9891,-4.0129,-4.0389,-4.0496,-4.0496,-4.0496,-4.0496,-4.0496,-4.0496,-4.0496,-4.0527,-4.0668,-4.0713,-4.0757,-4.0836,-4.1023,-4.1191,-4.1191,-4.1191,-4.1191,-4.1191,-4.1191,-4.1191,-4.1191,-4.1191,-4.1191,-4.1191,-4.1171,-4.1148,-4.1148,-4.0957,-4.0789,-4.077,-4.0647,-4.0545,-4.0504,-4.0496,-4.0496,-4.0496,-4.0496,-4.0496,-4.0496,-4.0496,-4.0496,-4.0496,-4.0496,-4.0496,-4.0496,-4.0241,-4.0101,-4.0101,-3.8102,-3.6883,-3.6702,-3.4959,-3.3986,-3.3807,-3.3807,-3.3807,-3.3807,-3.3807,-3.3807,0.0,-3.1511,-3.1511,-3.1511,-3.1511,0.0,0.0,0.0,-2.9983,-2.934,-2.8682,-2.8109,-2.7675,-2.76,-2.76,-2.76,-2.8505,-2.9541,0.0,-3.2103,-3.3651,-3.4835,-3.5339,-3.56,-3.56,-3.56,-3.56,-3.56,-3.592,-3.6097,-3.6097,-3.6803,-3.7323,-3.7632,-3.8133,-3.8515,-3.8707,-3.8707,-3.8707,-3.8707,-3.8707,-3.8707,-3.8707,-3.8707,-3.8788,-3.8933,-3.8777,-3.8917,0.0,-3.9505,-3.9712,-3.9953,-4.0356,-4.0496,-4.0496,-4.0496,-4.0496,-4.0496,-4.0496,-4.0496,-4.0519,-4.0589,-4.0668,-4.0718,-4.0832,-4.0992,-4.1148,-4.1191,-4.1191,-4.1191,-4.1191,-4.1191,-4.1191,-4.1191,-4.1191,-4.1191,-4.1191,-4.1191,-4.1191,-4.1191,-4.1025,-4.086,-4.0805,-4.0688,-4.0559,-4.0504,-4.0496,-4.0496,-4.0496,-4.0496,-4.0496,-4.0496,-4.0496,-4.0496,-4.0496,-4.0496,-4.0496,-4.0496,-4.0347,-4.0241,-4.0241,-3.8337,-3.7205,-3.7051,-3.5168,-3.4111,-3.3948,-3.3855,-3.3807,-3.3807,-3.3807,-3.3807,0.0,0.0,0.0,0.0,0.0,0.0,0.0,0.0,0.0,0.0,-2.8079,-2.76,-2.76,-2.76,-2.76,-2.76,-2.8143,-2.9063,-3.0356,-3.177,-3.3405,-3.5363,-3.56,-3.56,-3.56,-3.56,-3.56,-3.56,-3.56,-3.56,-3.56,-3.6525,-3.7116,-3.7209,-3.7632,-3.8115,-3.8692,-3.8707,-3.8707,-3.8707,-3.8707,-3.8707,-3.8707,-3.8707,-3.8707,0.0,-3.8707,-3.8707,-3.875,-3.9327,-3.9564,-3.9615,-4.0239,-4.0473,-4.0473,-4.0489,-4.0496,-4.0496,-4.0496,-4.0496,-4.0496,-4.0496,-4.0575,-4.0718,-4.0922,-4.099,-4.1025,-4.1151,-4.1191,-4.1191,-4.1191,-4.1191,-4.1191,-4.1191,-4.1191,-4.1191,-4.1191,-4.1191,-4.1191,-4.1191,-4.1082,-4.0959,-4.0847,-4.0742,-4.0668,-4.0523,-4.0504,-4.0496,-4.0496,-4.0496,-4.0496,-4.0496,-4.0496,-4.0496,-4.0496,-4.0496,-4.0496,-4.0496,-4.0496,-4.0496,-4.0496,-3.8648,-3.7628,-3.7591,-3.5351,-3.42,-3.42,-3.3923,-3.3807,-3.3807,-3.3807,-3.3807,0.0,0.0,0.0,0.0,0.0,0.0,0.0,0.0,0.0,0.0,0.0,-2.76,-2.76,-2.76,-2.76,-2.76,-2.8143,-2.8895,-2.9728,-3.1862,-3.3908,-3.543,-3.56,-3.56,-3.56,-3.56,-3.56,-3.56,-3.56,-3.56,-3.56,-3.5832,-3.6336,-3.7173,-3.7304,-3.779,-3.8692,-3.8707,-3.8707,-3.8707,-3.8707,-3.8707,-3.8707,-3.8707,-3.8707,-3.8707,-3.8707,-3.8707,-3.8719,-3.9063,-3.9212,-3.9276,-3.9934,-4.0186,-4.0213,-4.0414,-4.0496,-4.0496,-4.0496,-4.0496,-4.0496,-4.0496,-4.0527,-4.0568,-4.0729,-4.0886,-4.1025,-4.1151,-4.1191,-4.1191,-4.1191,-4.1191,-4.1191,-4.1191,-4.1191,-4.1191,-4.1191,-4.1191,-4.1191,-4.1191,-4.1082,-4.0992,-4.0957,-4.0803,-4.0686,-4.0668,-4.0566,-4.0496,-4.0496,-4.0496,-4.0496,-4.0496,-4.0496,-4.0496,-4.0496,-4.0496,-4.0496,-4.0496,-4.0496,-4.0496,-4.0496,-3.8835,-3.7811,-3.76,-3.5351,-3.42,-3.42,-3.3923,-3.3807,-3.3807,-3.3807,-3.3807,0.0,0.0,0.0,0.0,0.0,0.0,0.0,0.0,0.0,0.0,0.0,0.0,-2.76,-2.76,-2.76,-2.76,-2.8143,-2.9053,-3.035,-3.2285,-3.3987,-3.5028,-3.5407,-3.56,-3.56,-3.56,-3.56,-3.56,-3.56,-3.56,-3.56,-3.5832,-3.6228,-3.6823,-3.7285,-3.7912,-3.8692,-3.8707,-3.8707,-3.8707,-3.8707,-3.8707,-3.8707,-3.8707,-3.8707,-3.8707,-3.8707,-3.8707,-3.8719,-3.8985,-3.9112,-3.9178,-3.9829,-4.0101,-4.0129,-4.0397,-4.0496,-4.0496,-4.0496,-4.0496,-4.0496,-4.0496,-4.0496,-4.0534,-4.0649,-4.0791,-4.0899,-4.1054,-4.115,-4.1191,-4.1191,-4.1191,-4.1191,-4.1191,-4.1191,-4.1191,-4.1191,-4.1191,-4.1191,-4.1191,-4.1082,-4.0996,-4.0996,-4.0859,-4.0762,-4.0762,-4.0654,-4.0582,-4.0582,-4.053,-4.0496,-4.0496,-4.0496,-4.0496,-4.0496,-4.0496,-4.0496,-4.0496,-4.0496,-4.0496,-4.0496,-3.8892,-3.7455,-3.6283,-3.4899,-3.4147,-3.4006,-3.3863,-3.3807,-3.3807,-3.3807,-3.3807,0.0,0.0,0.0,0.0,0.0,0.0,0.0,0.0,0.0,0.0,0.0,0.0,0.0,-2.76,0.0,-2.76,-2.8233,-2.9509,-3.1612,-3.2897,-3.3887,-3.4664,-3.5253,-3.56,-3.56,-3.56,-3.56,-3.56,-3.56,-3.56,-3.56,-3.6032,-3.6329,-3.6412,-3.7305,-3.8048,-3.8562,-3.8658,-3.8707,-3.8707,-3.8707,-3.8707,-3.8707,-3.8707,-3.8707,-3.8707,-3.8707,0.0,-3.8719,-3.8947,-3.9036,-3.9104,-3.9709,-3.9982,-4.0052,-4.0347,-4.0465,-4.0496,-4.0496,-4.0496,-4.0496,-4.0496,-4.0496,-4.0527,-4.0643,-4.068,-4.0735,-4.0912,-4.1052,-4.1151,-4.1149,-4.115,-4.1171,-4.1171,-4.1171,-4.1171,-4.1191,-4.1191,-4.1191,-4.1191,-4.1105,-4.1026,-4.1026,-4.0917,-4.0824,-4.0824,-4.0767,-4.0697,-4.0697,-4.0575,-4.0496,-4.0496,-4.0496,-4.0496,-4.0496,-4.0496,-4.0496,-4.0496,-4.0496,-4.04,-4.0131,-3.8716,-3.6941,-3.4802,-3.439,-3.4105,-3.385,-3.3815,-3.3807,-3.3807,-3.3807,-3.3807,0.0,0.0,0.0,0.0,0.0,0.0,0.0,0.0,0.0,0.0,0.0,0.0,0.0,-2.76,-2.76,-2.76,-2.8648,-3.0361,-3.2938,-3.3467,-3.4062,-3.5293,-3.5554,-3.56,-3.56,-3.56,-3.56,-3.56,-3.56,-3.56,-3.56,-3.5672,-3.5941,-3.6392,-3.6981,-3.7542,-3.8013,-3.8481,-3.8707,-3.8707,-3.8707,-3.8707,-3.8707,-3.8707,-3.8707,-3.8707,0.0,-3.8707,-3.8707,-3.8732,-3.8762,-3.8788,-3.9131,-3.9445,-3.9731,-4.0042,-4.0313,-4.0496,-4.0496,-4.0496,-4.0496,-4.0496,-4.0496,-4.0504,-4.0515,-4.061,-4.0709,-4.0735,-4.0886,-4.0998,-4.0883,-4.0952,-4.1026,-4.1026,-4.1026,-4.1055,-4.1171,-4.1191,-4.1191,-4.1191,-4.1172,-4.1171,-4.1171,-4.1054,-4.0964,-4.0964,-4.0822,-4.0697,-4.0697,-4.0575,-4.0496,-4.0496,-4.0496,-4.0496,-4.0496,-4.0496,-4.0496,-4.0496,-4.0496,-3.9861,-3.843,-3.7929,-3.6837,-3.5072,-3.45,-3.4183,-3.4147,-3.3915,-3.3807,-3.3807,-3.3807,-3.3807,-3.1511,0.0,0.0,0.0,0.0,0.0,0.0,0.0,0.0,0.0,0.0,0.0,0.0,0.0,-2.7839,-2.8558,-2.9792,-3.1232,-3.2834,-3.3684,-3.4358,-3.5005,-3.5385,-3.56,-3.56,-3.56,-3.56,-3.56,-3.56,-3.56,-3.56,-3.56,-3.5717,-3.5963,-3.6481,-3.7001,-3.7524,-3.8015,-3.8415,-3.8707,-3.8707,-3.8707,-3.8707,-3.8707,-3.8707,-3.8707,0.0,-3.8707,-3.8707,-3.8707,-3.8707,-3.8719,-3.8999,-3.9186,-3.9389,-3.9912,-4.0258,-4.0496,-4.0496,-4.0496,-4.0496,-4.0496,-4.0496,-4.0496,-4.0496,-4.0537,-4.0582,-4.0582,-4.0738,-4.0874,-4.0813,-4.0854,-4.0914,-4.0988,-4.0996,-4.1048,-4.1171,-4.1191,-4.1191,-4.1191,-4.1191,-4.1191,-4.1191,-4.115,-4.1105,-4.1105,-4.0969,-4.0851,-4.0851,-4.0704,-4.061,-4.061,-4.0537,-4.0496,-4.0496,-4.0496,-4.0496,-4.0496,-4.0496,-3.9746,-3.8065,-3.7742,-3.68,-3.5143,-3.4502,-3.42,-3.42,-3.3923,-3.3807,-3.3807,-3.3807,-3.3807,-3.1511,-3.1511,0.0,0.0,0.0,0.0,0.0,0.0,0.0,0.0,0.0,0.0,0.0,-2.7735,-2.8274,-2.9606,-3.0669,-3.1705,-3.2694,-3.371,-3.4479,-3.48,-3.5293,-3.56,-3.56,-3.56,-3.56,-3.56,-3.56,-3.56,-3.56,-3.56,-3.56,-3.56,-3.6118,-3.6664,-3.7192,-3.7488,-3.7985,-3.8707,-3.8707,-3.8707,-3.8689,-3.8505,-3.8414,-3.8414,-3.823,-3.8138,-3.8138,-3.8138,-3.8138,-3.8187,-3.8567,-3.8882,-3.9173,-3.984,-4.0223,-4.0425,-4.0481,-4.0496,-4.0496,-4.0496,-4.0496,-4.0496,-4.0496,-4.0496,-4.0496,-4.0496,-4.0604,-4.0738,-4.0738,-4.0757,-4.08,-4.0916,-4.0931,-4.095,-4.1078,-4.1128,-4.115,-4.115,-4.1171,-4.1191,-4.1191,-4.1191,-4.1191,-4.1191,-4.1081,-4.0996,-4.0996,-4.0832,-4.0718,-4.0703,-4.061,-4.0523,-4.0496,-4.0496,-4.0496,-4.0496,-4.0496,-3.9746,-3.8065,-3.7742,-3.68,-3.5143,-3.4584,-3.4288,-3.42,-3.3981,-3.385,-3.3807,-3.3807,-3.3807,-3.1511,-3.1511,0.0,0.0,0.0,0.0,0.0,0.0,0.0,0.0,0.0,0.0,0.0,-2.8124,-2.8951,-3.0238,-3.0533,-3.1284,-3.3254,-3.3608,-3.4137,-3.5362,-3.5577,-3.56,-3.56,-3.56,-3.56,-3.56,-3.56,-3.56,-3.56,-3.56,-3.56,-3.56,-3.6118,-3.6664,-3.7192,-3.6915,-3.7424,-3.8707,-3.8707,-3.8707,-3.867,-3.7933,-3.7584,-3.7547,-3.6813,-3.6468,-3.6468,-3.6468,-3.6468,-3.6556,-3.732,-3.8214,-3.9173,-3.984,-4.011,-4.0158,-4.0406,-4.0496,-4.0496,-4.0496,-4.0496,-4.0496,-4.0496,-4.0496,-4.0496,-4.0496,-4.0519,-4.0523,-4.0523,-4.0604,-4.0715,-4.0726,-4.0713,-4.0731,-4.0817,-4.0922,-4.1002,-4.1002,-4.1106,-4.1191,-4.1191,-4.1191,-4.1191,-4.1191,-4.1081,-4.0996,-4.0996,-4.087,-4.0766,-4.0715,-4.0686,-4.0643,-4.0512,-4.0496,-4.0496,-4.0496,-4.0496,-3.9746,-3.8065,-3.7742,-3.68,-3.5143,-3.4813,-3.4518,-3.42,-3.4176,-3.4043,-3.3807,-3.3807,-3.3807,-3.1511,-3.1511,0.0,0.0,0.0,0.0,0.0,0.0,0.0,0.0,0.0,0.0,0.0,0.0,-2.9939,-3.0417,-3.1566,-3.2709,-3.3499,-3.4325,-3.5028,-3.5554,-3.56,-3.56,-3.56,-3.56,-3.56,-3.56,-3.5182,-3.4912,-3.4912,-3.4489,-3.4213,-3.4213,-3.4432,-3.4791,-3.5327,-3.5456,-3.5942,-3.6776,-3.7079,-3.7202,-3.7202,-3.689,-3.6758,-3.6725,-3.6431,-3.6303,-3.6303,-3.6303,-3.6303,-3.6376,-3.7199,-3.8149,-3.9139,-3.9377,-3.9742,-4.011,-4.0213,-4.0364,-4.0496,-4.0496,-4.0496,-4.0496,-4.0496,-4.0496,-4.0496,-4.0496,-4.0496,-4.0496,-4.0496,-4.053,-4.0589,-4.0674,-4.0697,-4.0718,-4.0792,-4.0911,-4.0996,-4.0996,-4.1105,-4.1191,-4.1191,-4.1191,-4.1191,-4.1191,-4.115,-4.1127,-4.1127,-4.1017,-4.0911,-4.0896,-4.0767,-4.0655,-4.0512,-4.0496,-4.0496,-4.0496,-4.0496,-3.9996,-3.8854,-3.8189,-3.7306,-3.6128,-3.5335,-3.4889,-3.4765,-3.4383,-3.4147,-3.4043,-3.3876,-3.3807,-3.1511,-3.1511,0.0,0.0,0.0,0.0,0.0,0.0,0.0,0.0,0.0,0.0,0.0,0.0,0.0,-3.0791,-3.2016,-3.3103,-3.3531,-3.4399,-3.5138,-3.5538,-3.56,-3.56,-3.56,-3.538,-3.5245,-3.5245,-3.4573,-3.415,-3.415,-3.3677,-3.3406,-3.3406,-3.3406,-3.3642,-3.4185,-3.4356,-3.4688,-3.5216,-3.5415,-3.5789,-3.6285,-3.6028,-3.5899,-3.5881,-3.5624,-3.5514,-3.5514,-3.5514,-3.5826,-3.634,-3.6905,-3.7874,-3.8985,-3.9058,-3.9389,-3.9808,-4.0022,-4.0148,-4.0239,-4.0347,-4.0372,-4.0372,-4.0372,-4.0422,-4.0496,-4.0496,-4.0496,-4.0496,-4.0496,-4.0496,-4.0527,-4.0616,-4.0643,-4.0655,-4.0707,-4.08,-4.0909,-4.0909,-4.1021,-4.1148,-4.1148,-4.1171,-4.1191,-4.1191,-4.1191,-4.1191,-4.1191,-4.1126,-4.1051,-4.0998,-4.0836,-4.069,-4.0561,-4.0566,-4.0545,-4.0496,-4.0496,-4.015,-3.9342,-3.845,-3.7584,-3.6712,-3.5741,-3.519,-3.5096,-3.4686,-3.4427,-3.4357,-3.4056,-3.3928,-3.1511,0.0,0.0,0.0,0.0,0.0,0.0,0.0,0.0,0.0,0.0,0.0,-3.0402,-3.0507,0.0,-3.1391,-3.1511,-3.1992,-3.3401,-3.3608,-3.4087,-3.5447,-3.5583,-3.5583,-3.5583,-3.4928,-3.4472,-3.4472,-3.3812,-3.3389,-3.3389,-3.3389,-3.3389,-3.3389,-3.3389,-3.3625,-3.4185,-3.3775,-3.387,-3.4372,-3.3994,-3.4669,-3.6248,-3.5371,-3.5004,-3.4949,-3.4156,-3.3807,-3.3807,-3.3807,-3.4798,-3.6303,-3.6303,-3.7276,-3.8735,-3.8999,-3.9099,-3.9186,-3.987,-3.988,-3.9656,-3.9992,-4.0091,-4.0091,-4.0101,-4.0295,-4.0496,-4.0496,-4.0496,-4.0496,-4.0496,-4.0496,-4.0496,-4.0496,-4.0496,-4.0496,-4.0496,-4.0603,-4.0697,-4.0697,-4.0851,-4.0996,-4.0996,-4.1105,-4.1191,-4.1191,-4.1191,-4.1191,-4.1191,-4.1191,-4.115,-4.1002,-4.0877,-4.0775,-4.0715,-4.0697,-4.063,-4.0512,-4.0496,-4.015,-3.9342,-3.8469,-3.7584,-3.6731,-3.5904,-3.5369,-3.5105,-3.5105,-3.4963,-3.4694,-3.4368,-3.42,-3.1511,0.0,0.0,0.0,0.0,0.0,0.0,0.0,0.0,0.0,0.0,-3.0432,-3.1077,-3.1197,-3.1271,-3.1466,-3.1938,-3.2571,-3.3479,-3.4012,-3.4616,-3.5492,-3.5148,-3.4827,-3.4827,-3.4167,-3.3728,-3.3728,-3.3034,-3.2632,-3.2632,-3.2121,-3.185,-3.185,-3.185,-3.193,-3.2091,-3.2581,-3.2904,-3.3069,-3.3556,-3.4064,-3.4523,-3.4266,-3.4174,-3.4137,-3.3899,-3.3807,-3.3807,-3.3807,-3.4798,-3.6303,-3.6303,-3.7276,-3.8723,-3.8788,-3.8933,-3.9139,-3.9327,-3.9493,-3.9622,-3.972,-3.9754,-3.9786,-4.0022,-4.0158,-4.0269,-4.0449,-4.0496,-4.0496,-4.0496,-4.0496,-4.0496,-4.0496,-4.0496,-4.0496,-4.0496,-4.0603,-4.0697,-4.0697,-4.0851,-4.0996,-4.0996,-4.1105,-4.1191,-4.1191,-4.1191,-4.1191,-4.1191,-4.1191,-4.115,-4.1002,-4.0962,-4.0899,-4.0779,-4.0721,-4.068,-4.063,-4.0552,-4.04,-4.015,-3.8757,-3.7873,-3.7623,-3.6212,-3.5453,-3.5376,-3.5198,-3.507,-3.4972,-3.4694,-3.4423,-3.1511,0.0,0.0,0.0,0.0,0.0,0.0,0.0,0.0,0.0,0.0,-3.1017,-3.1436,-3.1511,-3.1511,-3.1511,-3.1881,-3.2504,-3.3453,-3.3695,-3.4116,-3.5037,-3.4506,-3.4066,-3.4066,-3.3389,-3.2949,-3.2949,-3.2293,-3.187,-3.187,-3.1427,-3.119,-3.119,-3.119,-3.119,-3.119,-3.1878,-3.2316,-3.2517,-3.3225,-3.3652,-3.3807,-3.3807,-3.3807,-3.3807,-3.3807,-3.3807,-3.3825,-3.4137,-3.5092,-3.6321,-3.6652,-3.7551,-3.8707,-3.8707,-3.8803,-3.8961,-3.9058,-3.9152,-3.9268,-3.9371,-3.9389,-3.9426,-3.9634,-3.9891,-4.0129,-4.0304,-4.0425,-4.0496,-4.0496,-4.0496,-4.0496,-4.0496,-4.0496,-4.0496,-4.0496,-4.0566,-4.0623,-4.0623,-4.0762,-4.088,-4.0914,-4.1026,-4.1149,-4.1191,-4.1191,-4.1191,-4.1191,-4.1191,-4.1171,-4.1082,-4.108,-4.1025,-4.0883,-4.084,-4.0805,-4.0732,-4.0642,-4.0588,-4.0588,-3.9244,-3.8354,-3.8007,-3.6673,-3.5827,-3.55,-3.5346,-3.5266,-3.5246,-3.4981,-3.4745,0.0,0.0,0.0,0.0,0.0,0.0,-2.9355,-3.0013,-3.0702,-3.1361,0.0,-3.1511,-3.1511,-3.1451,-3.1406,-3.1406,-3.1361,-3.1782,-3.3149,-3.2812,-3.2878,-3.4174,-3.3723,-3.3305,-3.3305,-3.2628,-3.2209,-3.2209,-3.1562,-3.119,-3.119,-3.119,-3.119,-3.119,-3.119,-3.119,-3.119,-3.1603,-3.2004,-3.2451,-3.2968,-3.339,-3.3748,-3.3775,-3.3807,-3.3807,-3.3807,-3.3807,-3.3862,-3.4674,-3.55,-3.6376,-3.7199,-3.7988,-3.8707,-3.8707,-3.8707,-3.8735,-3.8971,-3.8909,-3.875,-3.8985,-3.9058,-3.9058,-3.9099,-3.9529,-4.0022,-4.0081,-4.0286,-4.0473,-4.0489,-4.0496,-4.0496,-4.0496,-4.0496,-4.0496,-4.0496,-4.0496,-4.0496,-4.0496,-4.061,-4.0724,-4.0784,-4.0908,-4.1051,-4.1171,-4.1191,-4.1191,-4.1191,-4.1191,-4.1191,-4.1191,-4.1191,-4.115,-4.1026,-4.1017,-4.0952,-4.0839,-4.0742,-4.0715,-4.0697,-3.9809,-3.8892,-3.8027,-3.7142,-3.6308,-3.55,-3.55,-3.55,-3.5493,-3.5239,-3.5113,0.0,0.0,0.0,0.0,0.0,0.0,-2.8786,-2.9684,-3.0702,-3.1361,-3.1511,-3.1511,-3.1511,-3.1062,-3.0731,-3.0731,-3.0313,-3.0295,-3.1124,-3.1512,-3.2022,-3.2817,-3.2698,-3.2547,-3.2547,-3.187,-3.1427,-3.1427,-3.1275,-3.119,-3.119,-3.119,-3.119,-3.119,-3.119,-3.119,-3.119,-3.1603,-3.1861,-3.1951,-3.2809,-3.3243,-3.3332,-3.3666,-3.3807,-3.3807,-3.3807,-3.3807,-3.3862,-3.4674,-3.55,-3.6376,-3.7199,-3.7988,-3.8707,-3.8707,-3.8707,-3.8723,-3.8777,-3.8747,-3.8723,-3.8777,-3.8788,-3.8815,-3.9036,-3.9199,-3.9414,-3.9943,-4.0139,-4.0232,-4.0449,-4.0496,-4.0496,-4.0496,-4.0496,-4.0496,-4.0496,-4.0496,-4.0496,-4.0496,-4.061,-4.0709,-4.0724,-4.0889,-4.1051,-4.1171,-4.1191,-4.1191,-4.1191,-4.1191,-4.1191,-4.1191,-4.1191,-4.1191,-4.1151,-4.1055,-4.099,-4.0957,-4.0843,-4.0757,-4.0703,-3.9809,-3.8892,-3.8027,-3.7142,-3.6308,-3.55,-3.55,-3.55,-3.55,-3.5439,-3.519,0.0,0.0,0.0,0.0,0.0,0.0,-2.8532,-2.9116,-2.9789,-3.0462,-3.0808,-3.1017,-3.1017,-3.0507,-3.0058,-3.0058,-2.9816,-2.9845,-3.05,-3.0812,-3.1209,-3.1901,-3.1863,-3.1769,-3.1769,-3.143,-3.119,-3.119,-3.119,-3.119,-3.119,-3.119,-3.119,-3.119,-3.119,-3.119,-3.119,-3.1411,-3.1621,-3.1825,-3.2516,-3.2983,-3.3214,-3.3625,-3.3694,-3.3522,-3.3721,-3.4027,-3.4435,-3.5279,-3.6119,-3.696,-3.7768,-3.8322,-3.8707,-3.8707,-3.8707,-3.8707,-3.8707,-3.8707,-3.8707,-3.8707,-3.8707,-3.8719,-3.8869,-3.8999,-3.9218,-3.9731,-3.9982,-4.0158,-4.0441,-4.0496,-4.0473,-4.0339,-4.0417,-4.0496,-4.0496,-4.0496,-4.0496,-4.0496,-4.0559,-4.063,-4.0686,-4.0875,-4.1025,-4.1083,-4.1151,-4.1191,-4.1191,-4.1191,-4.1191,-4.1191,-4.1191,-4.1191,-4.1191,-4.1148,-4.1102,-4.1102,-4.0964,-4.0883,-4.0852,-4.031,-3.958,-3.8649,-3.7777,-3.6904,-3.6077,-3.5692,-3.55,-3.55,-3.55,-3.5354,0.0,0.0,0.0,0.0,0.0,0.0,-2.8293,-2.8517,-2.8757,-2.9295,-2.9909,-3.0342,-3.0342,-2.9834,-2.9442,-2.9442,-2.9337,-2.9445,-2.9991,-3.0163,-3.0431,-3.0991,-3.1148,-3.119,-3.119,-3.119,-3.119,-3.119,-3.119,-3.119,-3.119,-3.119,-3.119,-3.119,-3.119,-3.119,-3.119,-3.119,-3.137,-3.1715,-3.2161,-3.2632,-3.309,-3.3508,-3.3508,-3.3229,-3.3785,-3.438,-3.5078,-3.6083,-3.6905,-3.7584,-3.8395,-3.8707,-3.8707,-3.8707,-3.8707,-3.8707,-3.8707,-3.8707,-3.8707,-3.8707,-3.8707,-3.8707,-3.8707,-3.8855,-3.9104,-3.9414,-3.9701,-4.0022,-4.0336,-4.0389,-4.0302,-4.0139,-4.0258,-4.0441,-4.0441,-4.0473,-4.0496,-4.0496,-4.0496,-4.0537,-4.0674,-4.0843,-4.0952,-4.0992,-4.1083,-4.1171,-4.1191,-4.1191,-4.1191,-4.1191,-4.1191,-4.1191,-4.1191,-4.1191,-4.1191,-4.1191,-4.1102,-4.1025,-4.0996,-4.0883,-4.0422,-3.9578,-3.856,-3.7601,-3.6692,-3.5885,-3.55,-3.55,-3.55,-3.5486,0.0,0.0,0.0,0.0,0.0,0.0,0.0,0.0,-2.8622,0.0,-2.925,-2.9726,-2.9726,-2.9175,-2.8727,-2.8727,-2.8259,-2.7905,-2.8006,-2.8896,-2.9573,-2.9663,-3.0568,-3.119,-3.119,-3.119,-3.119,-3.119,-3.119,-3.119,-3.119,-3.119,-3.119,-3.119,-3.119,-3.119,-3.119,-3.119,-3.123,-3.1291,-3.1696,-3.2127,-3.2599,-3.3075,-3.3258,-3.3265,-3.4355,-3.4912,-3.5133,-3.6688,-3.7401,-3.7584,-3.8395,-3.8707,-3.8707,-3.8707,-3.8707,-3.8707,-3.8707,-3.8707,-3.8707,-3.8707,-3.8707,-3.8707,-3.8707,-3.8719,-3.8818,-3.909,-3.9199,-3.9377,-3.9983,-3.9943,-3.9778,-4.0032,-4.0129,-4.0148,-4.0148,-4.0339,-4.0496,-4.0496,-4.0496,-4.0537,-4.0674,-4.0713,-4.08,-4.0962,-4.1021,-4.1077,-4.1191,-4.1191,-4.1191,-4.1191,-4.1191,-4.1191,-4.1191,-4.1191,-4.1191,-4.1191,-4.1172,-4.1126,-4.0998,-4.0988,-4.085,-4.0604,-3.9009,-3.7693,-3.6692,-3.5885,-3.55,-3.55,-3.55,-3.5376,0.0,0.0,0.0,0.0,0.0,0.0,-2.76,0.0,-2.8049,-2.8049,-2.8274,-2.8603,-2.8966,-2.8472,-2.8049,-2.8049,-2.7794,-2.76,-2.76,-2.8343,-2.9035,-2.9361,-3.0166,-3.0838,-3.1171,-3.119,-3.119,-3.119,-3.119,-3.119,-3.119,-3.119,-3.119,-3.119,-3.119,-3.119,-3.119,-3.119,-3.131,-3.1545,-3.1488,-3.1695,-3.2127,-3.2791,-3.3239,-3.3552,-3.4561,-3.5536,-3.6468,-3.7199,-3.7768,-3.8212,-3.856,-3.8707,-3.8707,-3.8707,-3.8707,-3.8707,-3.8707,-3.8707,-3.8707,-3.8707,-3.8707,-3.8707,-3.8707,-3.8707,-3.8747,-3.9022,-3.9112,-3.9199,-3.969,-3.9701,-3.9599,-3.9552,-3.9819,-4.0061,-3.987,-4.0185,-4.0496,-4.0496,-4.0496,-4.0519,-4.0588,-4.0662,-4.0724,-4.0822,-4.0928,-4.1023,-4.108,-4.115,-4.1191,-4.1191,-4.1191,-4.1191,-4.1191,-4.1191,-4.1191,-4.1191,-4.1191,-4.1171,-4.1106,-4.1105,-4.1052,-4.0917,-3.9563,-3.844,-3.7532,-3.662,-3.5942,-3.55,-3.55,-3.5439,0.0,0.0,0.0,0.0,0.0,0.0,0.0,0.0,-2.76,-2.76,-2.76,-2.775,-2.8248,-2.7944,-2.76,-2.76,-2.76,-2.76,-2.76,-2.8116,-2.8709,-2.9339,-2.9935,-3.0539,-3.1151,-3.119,-3.119,-3.119,-3.119,-3.119,-3.119,-3.119,-3.119,-3.119,-3.119,-3.119,-3.119,-3.119,-3.1391,-3.1807,-3.1391,-3.1513,-3.2118,-3.2743,-3.3398,-3.4147,-3.5064,-3.6142,-3.7308,-3.7509,-3.8028,-3.8692,-3.8546,-3.8578,-3.8707,-3.8707,-3.8707,-3.8707,-3.8707,-3.8707,-3.8707,-3.8707,-3.8707,-3.8707,-3.8707,-3.8707,-3.8732,-3.8933,-3.8999,-3.9063,-3.9396,-3.942,-3.9327,-3.9152,-3.9474,-3.984,-3.9832,-4.0175,-4.0496,-4.0496,-4.0496,-4.0496,-4.0496,-4.0575,-4.0655,-4.0692,-4.0831,-4.0933,-4.0952,-4.1076,-4.115,-4.115,-4.1171,-4.1191,-4.1191,-4.1191,-4.1191,-4.1191,-4.1191,-4.1191,-4.1191,-4.1191,-4.115,-4.1052,-4.024,-3.9272,-3.8215,-3.7229,-3.6325,-3.5528,-3.5501,-3.55,0.0,0.0,0.0,0.0,0.0,0.0,0.0,0.0,-2.76,-2.76,-2.76,-2.76,-2.7645,-2.7615,-2.76,-2.76,-2.76,-2.76,-2.76,-2.8116,-2.8709,-2.9339,-2.9935,-3.0539,-3.1151,-3.119,-3.119,-3.119,-3.119,-3.119,-3.119,-3.119,-3.119,-3.119,-3.119,-3.119,-3.119,-3.119,-3.1391,-3.1807,-3.1391,-3.1803,-3.2951,-3.2986,-3.3802,-3.527,-3.622,-3.6666,-3.6793,-3.7549,-3.8196,-3.8643,-3.815,-3.8251,-3.8707,-3.8707,-3.8707,-3.8707,-3.8707,-3.8707,-3.8707,-3.8707,-3.8707,-3.8707,-3.8707,-3.8707,-3.8707,-3.8719,-3.8719,-3.8773,-3.9063,-3.8937,-3.8803,-3.9049,-3.9139,-3.9383,-4.0255,-4.0481,-4.0496,-4.0496,-4.0496,-4.0496,-4.0496,-4.0504,-4.0552,-4.0674,-4.0709,-4.0736,-4.0793,-4.0922,-4.1019,-4.1019,-4.1127,-4.1191,-4.1191,-4.1191,-4.1191,-4.1191,-4.1191,-4.1191,-4.1191,-4.1191,-4.1191,-4.1191,-4.1013,-4.0042,-3.8287,-3.7347,-3.6443,-3.5595,-3.5522,-3.55,0.0,0.0,0.0,0.0,-2.76,-2.76,-2.76,-2.76,-2.76,-2.76,-2.76,-2.76,-2.76,-2.76,-2.76,-2.76,-2.76,-2.76,-2.76,-2.7785,-2.8165,-2.8756,-2.9361,-2.9957,-3.0559,-3.0975,-3.119,-3.119,-3.119,-3.119,-3.119,-3.119,-3.119,-3.119,-3.119,-3.119,-3.119,-3.119,-3.1271,-3.1428,-3.1746,-3.2139,-3.2591,-3.3526,-3.426,-3.4852,-3.6016,-3.6692,-3.7059,-3.7665,-3.7843,-3.7756,-3.786,-3.8032,-3.8216,-3.8562,-3.8707,-3.8707,-3.8707,-3.8707,-3.8707,-3.8707,-3.8707,-3.8707,-3.8707,-3.8707,-3.8707,-3.8707,-3.8707,-3.8719,-3.8833,-3.8777,-3.8777,-3.9036,-3.9112,-3.9314,-4.0072,-4.0241,-4.0285,-4.0465,-4.0496,-4.0496,-4.0496,-4.0496,-4.0519,-4.0566,-4.0636,-4.0721,-4.0731,-4.0828,-4.0908,-4.0992,-4.103,-4.1104,-4.1191,-4.1191,-4.1191,-4.1191,-4.1191,-4.1191,-4.1191,-4.1191,-4.1191,-4.1191,-4.115,-4.0491,-3.9195,-3.8259,-3.7331,-3.6415,-3.5834,-3.5534,-2.76,0.0,0.0,0.0,0.0,-2.76,-2.76,-2.76,-2.76,-2.76,-2.76,-2.76,-2.76,-2.76,-2.76,-2.76,-2.76,-2.76,-2.76,-2.76,-2.7835,-2.8431,-2.9019,-2.9629,-3.0251,-3.0858,-3.119,-3.119,-3.119,-3.119,-3.119,-3.119,-3.119,-3.119,-3.119,-3.119,-3.119,-3.119,-3.1309,-3.1582,-3.2073,-3.2564,-3.3072,-3.4049,-3.4641,-3.4939,-3.5958,-3.6603,-3.696,-3.7268,-3.7323,-3.7229,-3.7542,-3.7755,-3.7963,-3.8496,-3.8707,-3.8707,-3.8707,-3.8707,-3.8707,-3.8707,-3.8707,-3.8707,-3.8707,-3.8707,-3.8707,-3.8707,-3.8707,-3.8707,-3.8707,-3.8707,-3.8732,-3.8919,-3.8975,-3.9104,-3.9664,-3.9932,-4.0177,-4.0457,-4.0496,-4.0496,-4.0496,-4.0496,-4.0496,-4.0496,-4.0581,-4.0636,-4.0636,-4.0715,-4.0792,-4.0899,-4.0911,-4.099,-4.1126,-4.1129,-4.115,-4.1191,-4.1191,-4.1191,-4.1191,-4.1191,-4.1191,-4.1191,-4.1191,-4.0877,-4.0201,-3.8943,-3.7864,-3.6985,-3.6069,-3.5605,0.0,0.0,0.0,0.0,0.0,0.0,-2.76,-2.76,-2.76,-2.76,-2.76,-2.76,-2.76,-2.76,-2.76,-2.76,-2.76,-2.76,-2.76,-2.76,-2.781,-2.8391,-2.9035,-2.9629,-3.0208,-3.0838,-3.119,-3.119,-3.119,-3.119,-3.119,-3.119,-3.119,-3.119,-3.119,-3.119,-3.119,-3.1207,-3.1599,-3.2293,-3.2344,-3.3123,-3.4489,-3.4506,-3.4928,-3.5644,-3.6161,-3.6392,-3.6374,-3.6395,-3.6704,-3.7154,-3.7154,-3.7451,-3.7929,-3.8465,-3.8676,-3.8676,-3.8658,-3.8692,-3.8692,-3.8692,-3.8692,-3.8707,-3.8707,-3.8707,-3.8707,-3.8707,-3.8707,-3.8707,-3.8707,-3.8707,-3.8707,-3.8707,-3.8707,-3.8777,-3.9049,-3.9611,-4.0158,-4.0422,-4.0489,-4.0489,-4.0496,-4.0496,-4.0496,-4.0496,-4.0496,-4.0496,-4.0496,-4.0616,-4.0692,-4.0697,-4.0762,-4.0854,-4.0988,-4.0994,-4.1052,-4.1191,-4.1191,-4.1191,-4.1191,-4.1191,-4.1191,-4.1191,-4.1191,-4.1191,-4.1191,-3.9322,-3.7995,-3.7211,-3.6173,-3.5652,-2.76,0.0,0.0,0.0,0.0,0.0,-2.76,-2.76,-2.76,-2.76,-2.76,-2.76,-2.76,-2.76,-2.76,-2.76,-2.76,-2.76,-2.76,-2.76,-2.766,-2.7835,-2.8764,-2.9473,-2.9629,-3.058,-3.119,0.0,-3.119,-3.119,-3.119,-3.119,-3.119,-3.119,-3.119,-3.119,-3.119,-3.1735,-3.2107,-3.231,-3.3393,-3.41,-3.4506,-3.5064,-3.5397,-3.5622,-3.5761,-3.581,-3.5854,-3.6245,-3.6249,-3.6097,-3.646,-3.6704,-3.6923,-3.7808,-3.7912,-3.7667,-3.7998,-3.8115,-3.8115,-3.8115,-3.8382,-3.8707,-3.8707,-3.8707,-3.8707,-3.8707,-3.8707,-3.8707,-3.8707,-3.8707,-3.8707,-3.8707,-3.8707,-3.8777,-3.9049,-3.9238,-3.9534,-4.0101,-4.0204,-4.0258,-4.0465,-4.0496,-4.0496,-4.0496,-4.0496,-4.0496,-4.0496,-4.0523,-4.0589,-4.0686,-4.0718,-4.0757,-4.085,-4.086,-4.0914,-4.1051,-4.1054,-4.1103,-4.1191,-4.1191,-4.1191,-4.1191,-4.1191,-4.1191,-4.1191,-3.9413,-3.8389,-3.8032,-3.6448,-3.5652,0.0,0.0,0.0,0.0,0.0,0.0,-2.76,-2.76,-2.76,-2.76,-2.76,-2.76,-2.76,-2.76,-2.76,-2.76,-2.76,-2.76,-2.76,-2.76,-2.76,-2.76,-2.867,-2.9406,-2.9406,-3.0497,-3.119,-3.119,-3.119,-3.119,-3.119,-3.119,-3.119,-3.119,-3.119,-3.1343,-3.1667,-3.209,-3.2615,-3.3241,-3.4083,-3.4658,-3.4979,-3.5397,-3.56,-3.56,-3.56,-3.56,-3.5605,-3.5941,-3.5876,-3.565,-3.6203,-3.6395,-3.6498,-3.7323,-3.7433,-3.7229,-3.7506,-3.7614,-3.7649,-3.7843,-3.8099,-3.8399,-3.8627,-3.8707,-3.8707,-3.8707,-3.8707,-3.8707,-3.8707,-3.8707,-3.8707,-3.8707,-3.8707,-3.8732,-3.8894,-3.8919,-3.9122,-3.9765,-4.0002,-4.0148,-4.0313,-4.0433,-4.0496,-4.0496,-4.0496,-4.0496,-4.0496,-4.0496,-4.0542,-4.061,-4.0616,-4.0667,-4.0752,-4.0767,-4.0796,-4.0911,-4.0917,-4.0986,-4.1105,-4.1126,-4.1149,-4.1191,-4.1191,-4.084,-4.0117,-3.9101,-3.8182,-3.7371,-3.6294,-3.573,0.0,0.0,0.0,0.0,-2.76,0.0,-2.76,-2.76,-2.76,-2.76,-2.76,-2.76,-2.76,-2.76,-2.76,-2.76,-2.76,-2.76,-2.76,-2.76,-2.7625,-2.7685,-2.8662,-2.9361,-2.9496,-3.0477,-3.1131,-3.119,-3.119,-3.119,-3.119,-3.119,-3.119,-3.119,-3.1275,-3.165,-3.2293,-3.2462,-3.3207,-3.4489,-3.4573,-3.4979,-3.56,-3.56,-3.56,-3.56,-3.56,-3.56,-3.56,-3.56,-3.56,-3.5644,-3.6118,-3.6291,-3.6374,-3.6921,-3.7058,-3.702,-3.7078,-3.7097,-3.7173,-3.7596,-3.7807,-3.798,-3.8399,-3.8562,-3.8611,-3.8611,-3.8643,-3.8707,-3.8707,-3.8707,-3.8707,-3.8707,-3.8707,-3.8707,-3.8707,-3.8707,-3.8862,-3.9402,-3.9786,-4.0061,-4.0091,-4.0304,-4.0457,-4.0457,-4.0422,-4.0414,-4.0457,-4.0457,-4.0473,-4.0496,-4.0496,-4.0545,-4.0661,-4.0674,-4.0699,-4.0773,-4.0781,-4.0847,-4.0964,-4.0986,-4.1049,-4.1171,-4.1191,-4.0332,-3.8594,-3.8594,-3.7695,-3.5996,-3.5921,-3.5834,0.0,0.0,0.0,-2.76,-2.76,0.0,-2.76,-2.76,-2.76,-2.76,-2.76,-2.76,-2.76,-2.76,-2.76,-2.76,-2.76,-2.76,-2.76,-2.76,-2.7785,-2.8286,-2.8535,-2.9058,-3.0038,-3.0351,-3.0679,-3.1171,-3.119,-3.119,-3.119,-3.119,-3.119,-3.119,-3.1785,-3.2158,-3.2293,-3.3495,-3.4223,-3.4506,-3.5115,-3.5447,-3.56,-3.56,-3.56,-3.56,-3.56,-3.56,-3.56,-3.56,-3.56,-3.5622,-3.5717,-3.5761,-3.581,-3.6354,-3.6291,-3.5968,-3.6416,-3.656,-3.6563,-3.6664,-3.723,-3.7842,-3.7578,-3.7755,-3.8065,-3.8065,-3.8366,-3.8707,-3.8707,-3.8707,-3.8707,-3.8707,-3.8707,-3.8707,-3.8707,-3.8707,-3.8735,-3.8848,-3.9332,-3.9786,-4.0042,-4.0139,-4.0177,-4.0177,-3.9944,-3.9882,-4.0148,-4.0177,-4.025,-4.0481,-4.0496,-4.0512,-4.0549,-4.053,-4.0589,-4.0713,-4.0724,-4.0767,-4.0843,-4.0847,-4.0908,-4.1048,-4.1149,-4.0332,-3.8594,-3.8594,-3.7695,-3.5996,-3.5921,-3.5834,-2.7779,-2.76,-2.76,-2.76,-2.76,0.0,0.0,-2.76,-2.76,-2.76,-2.76,-2.76,-2.76,-2.76,-2.76,-2.76,-2.76,-2.76,-2.76,-2.786,-2.8271,-2.8873,-2.9203,-2.9629,-3.0251,-3.0559,-3.0878,-3.1171,-3.119,-3.119,-3.119,-3.119,-3.136,-3.1752,-3.2107,-3.2649,-3.3393,-3.4138,-3.4675,-3.5064,-3.5414,-3.56,-3.56,-3.56,-3.56,-3.56,-3.56,-3.56,-3.56,-3.56,-3.56,-3.56,-3.56,-3.56,-3.5627,-3.5898,-3.5832,-3.5644,-3.592,-3.6006,-3.6049,-3.6312,-3.6923,-3.7542,-3.7542,-3.7702,-3.7893,-3.7893,-3.8099,-3.8366,-3.8627,-3.8707,-3.8707,-3.8707,-3.8707,-3.8707,-3.8707,-3.8707,-3.8707,-3.8707,-3.9059,-3.9469,-3.9786,-3.984,-3.9912,-4.0081,-3.9808,-3.9656,-3.9819,-4.0002,-4.0148,-4.0295,-4.0414,-4.0496,-4.0496,-4.0496,-4.0534,-4.0589,-4.0596,-4.0655,-4.0742,-4.0747,-4.0807,-4.0905,-4.1026,-4.0238,-3.8442,-3.8481,-3.7633,-3.5996,-3.5972,-3.5861,-2.7824,-2.76,-2.76,-2.76,-2.76,-2.76,0.0,0.0,0.0,-2.76,-2.76,-2.76,-2.76,-2.7685,-2.7715,-2.7595,-2.7794,-2.7947,-2.7917,-2.8466,-2.8943,-2.9203,-2.9761,-3.0166,-3.0293,-3.0858,-3.119,-3.119,-3.119,-3.119,-3.119,-3.119,-3.1549,-3.2276,-3.2446,-3.3156,-3.4472,-3.4641,-3.5013,-3.56,-3.56,-3.56,-3.56,-3.56,-3.56,-3.56,-3.56,-3.56,-3.56,-3.56,-3.56,-3.56,-3.56,-3.56,-3.56,-3.56,-3.56,-3.56,-3.56,-3.56,-3.5672,-3.6097,-3.6542,-3.6981,-3.7452,-3.7614,-3.7614,-3.7737,-3.7825,-3.8013,-3.8562,-3.8707,-3.8707,-3.8707,-3.8707,-3.8707,-3.8707,-3.8707,-3.8707,-3.8707,-3.8884,-3.9131,-3.9457,-3.9498,-3.9599,-3.987,-3.9641,-3.9463,-3.9505,-3.9742,-3.9932,-4.0002,-4.0258,-4.0414,-4.0414,-4.0473,-4.0496,-4.0496,-4.0496,-4.0545,-4.0668,-4.068,-4.0735,-4.0784,-4.0902,-4.0076,-3.8295,-3.8344,-3.7554,-3.5975,-3.5957,-3.5864,-2.7944,-2.76,-2.76,-2.76,-2.76,-2.76,-2.76,0.0,-2.76,-2.76,0.0,-2.76,-2.76,0.0,0.0,-2.7542,-2.8419,-2.916,-2.9035,-2.9634,-2.9717,-2.8709,-2.9134,-2.9717,-3.0251,-3.0858,-3.119,-3.119,-3.119,-3.119,-3.119,-3.119,-3.1549,-3.2276,-3.2933,-3.3677,-3.4489,-3.5165,-3.5515,-3.56,-3.56,-3.56,-3.56,-3.56,-3.56,-3.56,-3.56,-3.56,-3.56,-3.56,-3.56,-3.56,-3.56,-3.56,-3.56,-3.56,-3.56,-3.56,-3.56,-3.56,-3.5622,-3.5672,-3.5739,-3.5876,-3.6416,-3.6563,-3.6664,-3.7135,-3.7578,-3.8013,-3.8562,-3.8707,-3.8707,-3.8707,-3.8707,-3.8707,-3.8707,-3.8707,-3.8707,-3.8707,-3.8719,-3.8829,-3.9099,-3.9165,-3.916,-3.9199,-3.898,-3.8888,-3.9125,-3.9186,-3.9327,-3.9622,-3.9953,-4.0139,-4.0139,-4.0364,-4.0496,-4.0496,-4.0496,-4.0504,-4.0527,-4.0643,-4.0703,-4.0707,-4.0779,-3.9991,-3.8307,-3.8305,-3.7473,-3.591,-3.5798,-3.5795,-2.7959,-2.76,-2.76,-2.76,-2.76,-2.76,-2.76,-2.76,-2.7685,-2.8042,0.0,0.0,0.0,0.0,0.0,0.0,-2.9035,-2.9383,-2.9335,-2.9884,-3.0251,-3.0102,-3.0293,-3.0539,-3.0797,-3.1055,-3.119,-3.119,-3.119,-3.119,-3.119,-3.1616,-3.2192,-3.2899,-3.3643,-3.4387,-3.5131,-3.5447,-3.56,-3.56,-3.56,-3.56,-3.56,-3.56,-3.56,-3.56,-3.56,-3.56,-3.56,-3.56,-3.56,-3.56,-3.56,-3.56,-3.56,-3.56,-3.56,-3.56,-3.56,-3.56,-3.5667,-3.5963,-3.6054,-3.6097,-3.6312,-3.6395,-3.6437,-3.6664,-3.6884,-3.7229,-3.8032,-3.8251,-3.8251,-3.8251,-3.8481,-3.8611,-3.83,-3.8481,-3.8707,-3.8707,-3.8707,-3.8735,-3.8859,-3.8869,-3.8923,-3.9072,-3.8869,-3.875,-3.884,-3.8994,-3.9147,-3.9289,-3.9611,-3.9891,-4.0081,-4.0195,-4.0339,-4.0489,-4.0496,-4.0441,-4.0267,-4.0326,-4.0356,-4.0356,-3.9959,-3.921,-3.8127,-3.7701,-3.6887,-3.5721,-3.5798,-3.5799,-2.8444,-2.7981,-2.79,-2.8063,-2.7968,-2.786,-2.786,-2.7968,-2.8174,-2.8439,-2.863,0.0,0.0,0.0,0.0,0.0,0.0,-2.9827,-2.961,-3.0157,-3.0597,-3.0699,-3.0858,-3.1015,0.0,-3.119,-3.119,-3.119,-3.119,-3.119,-3.119,-3.1904,-3.2649,-3.3389,-3.4117,-3.4861,-3.5583,-3.56,-3.56,-3.56,-3.56,-3.56,-3.56,-3.56,-3.56,-3.56,-3.56,-3.56,-3.56,-3.56,-3.56,-3.56,-3.56,-3.56,-3.56,-3.56,-3.56,-3.56,-3.56,-3.56,-3.565,-3.6054,-3.6182,-3.6182,-3.6182,-3.6182,-3.6224,-3.6354,-3.6395,-3.6623,-3.7649,-3.7807,-3.7737,-3.7859,-3.82,-3.8382,-3.798,-3.8316,-3.8707,-3.8707,-3.8707,-3.8707,-3.8707,-3.8707,-3.8777,-3.8961,-3.8815,-3.8707,-3.8707,-3.8869,-3.8985,-3.8985,-3.9269,-3.9564,-3.9808,-3.9912,-4.0062,-4.0248,-4.0336,-4.0258,-3.9963,-3.9953,-3.9953,-3.9953,-3.9294,-3.8588,-3.7867,-3.718,-3.6414,-3.5577,-3.5748,-3.5771,-2.9623,-2.9007,-2.8692,-2.9216,-2.8904,-2.8463,-2.8463,-2.8919,-2.918,-2.863,-2.895,-2.9384,-2.9406,0.0,0.0,0.0,0.0,0.0,0.0,-3.0712,-3.074,-2.9585,-2.9957,-3.0576,-3.1151,-3.119,-3.119,-3.119,-3.119,-3.119,-3.119,-3.1904,-3.2649,-3.3389,-3.4117,-3.4861,-3.5583,-3.56,-3.56,-3.56,-3.56,-3.56,-3.56,-3.56,-3.56,-3.56,-3.56,-3.56,-3.56,-3.56,-3.56,-3.56,-3.56,-3.56,-3.56,-3.56,-3.56,-3.56,-3.56,-3.56,-3.56,-3.5622,-3.5622,-3.5622,-3.5622,-3.5622,-3.5739,-3.6249,-3.6395,-3.6623,-3.7649,-3.756,-3.7341,-3.779,-3.7911,-3.7929,-3.7893,-3.8316,-3.8707,-3.8707,-3.8707,-3.8707,-3.8707,-3.8707,-3.8707,-3.8704,-3.8707,-3.8707,-3.8707,-3.8707,-3.8704,-3.8704,-3.8961,-3.9125,-3.912,-3.9426,-3.9622,-3.9634,-3.9932,-3.9953,-3.9634,-3.9611,-3.9611,-3.9611,-3.9086,-3.8375,-3.7498,-3.6968,-3.6302,-3.5494,-3.5571,-3.5633,-2.9739,-2.9106,-2.8636,-2.8839,-2.8682,-2.8487,-2.8487,-2.8966,-2.9451,-2.9651,-2.9848,-3.0123,-3.0518,0.0,0.0,0.0,0.0,0.0,0.0,-3.1038,-3.1055,-3.0638,-3.076,-3.0975,-3.1171,-3.119,-3.119,-3.119,-3.119,-3.141,-3.1904,-3.2628,-3.3372,-3.41,-3.4844,-3.5346,-3.56,-3.56,-3.56,-3.56,-3.56,-3.56,-3.56,-3.56,-3.56,-3.56,-3.56,-3.56,-3.56,-3.56,-3.56,-3.56,-3.56,-3.56,-3.56,-3.56,-3.56,-3.56,-3.56,-3.56,-3.56,-3.56,-3.56,-3.56,-3.56,-3.56,-3.5644,-3.581,-3.5876,-3.6032,-3.6726,-3.6786,-3.6704,-3.6865,-3.7192,-3.7433,-3.7433,-3.7825,-3.8283,-3.8627,-3.8707,-3.8707,-3.8707,-3.8707,-3.8707,-3.8707,-3.8707,-3.8707,-3.8707,-3.8707,-3.8707,-3.8707,-3.8773,-3.8909,-3.9085,-3.942,-3.9599,-3.9599,-3.972,-3.9622,-3.9276,-3.9264,-3.9264,-3.9264,-3.8058,-3.7432,-3.7508,-3.6241,-3.5588,-3.55,-3.5522,-3.556,-3.0359,-2.9768,0.0,-2.9551,-2.9221,-2.8916,-2.9131,-2.9446,-2.9761,-2.9935,-3.0314,-3.0679,-3.0858,0.0,0.0,0.0,0.0,0.0,0.0,-3.119,-3.119,-3.119,-3.119,-3.119,-3.119,-3.119,-3.119,-3.119,-3.119,-3.1512,-3.2259,-3.3,-3.3744,-3.4472,-3.5211,-3.56,-3.56,-3.56,-3.56,-3.56,-3.56,-3.56,-3.56,-3.56,-3.56,-3.56,-3.56,-3.56,-3.56,-3.56,-3.56,-3.56,-3.56,-3.56,-3.56,-3.56,-3.56,-3.56,-3.56,-3.56,-3.56,-3.56,-3.56,-3.56,-3.56,-3.56,-3.5549,-3.5278,-3.5397,-3.5649,-3.5942,-3.6059,-3.6161,-3.6354,-3.6664,-3.6921,-3.6921,-3.7415,-3.7997,-3.835,-3.8562,-3.8707,-3.8707,-3.8707,-3.8707,-3.8707,-3.8707,-3.8707,-3.8707,-3.8707,-3.8707,-3.8707,-3.8707,-3.8777,-3.8933,-3.9244,-3.9383,-3.9294,-3.9371,-3.9282,-3.8975,-3.8961,-3.8961,-3.8961,-3.7461,-3.6868,-3.7205,-3.5704,-3.5096,-3.5361,-3.5361,-3.5423]},{"header":{"parameterUnit":"m.s-1","parameterCategory":1,"la1":30.6,"la2":29.2853,"lo1":-89.7004,"lo2":-87.6739,"dx":0.0162,"dy":0.0183,"nx":112,"ny":82,"refTime":"2023-02-09T06:00:00:Z","depth":0,"parameterNumber":3,"parameterNumberName":"V-component_of_WINDS"},"data":[0.0,0.0,0.0,0.0,0.0,0.0,0.0,0.0,0.0,0.0,0.0,0.0,0.0,0.0,0.0,0.0,0.0,0.0,0.0,0.0,0.0,0.0,0.0,0.0,0.0,0.0,0.0,0.0,0.0,0.0,0.0,0.0,0.0,0.0,0.0,0.0,0.0,0.0,0.0,0.0,0.0,0.0,0.0,0.0,0.0,0.0,0.0,0.0,0.0,0.0,0.0,0.0,0.0,0.0,0.0,0.0,0.0,0.0,0.0,0.0,0.0,0.0,0.0,0.0,0.0,0.0,0.0,0.0,0.0,0.0,0.0,0.0,0.0,0.0,0.0,0.0,0.0,0.0,0.0,0.0,0.0,0.0,0.0,0.0,0.0,0.0,0.0,0.0,0.0,0.0,-1.1959,-1.1124,-1.1774,-1.2305,-1.2305,-1.2305,-1.2305,-1.2305,0.0,0.0,0.0,0.0,0.0,0.0,0.0,0.0,0.0,0.0,0.0,0.0,0.0,0.0,0.0,0.0,0.0,0.0,0.0,0.0,0.0,0.0,0.0,0.0,0.0,0.0,0.0,0.0,0.0,0.0,0.0,0.0,0.0,0.0,0.0,0.0,0.0,0.0,0.0,0.0,0.0,0.0,0.0,0.0,0.0,0.0,0.0,0.0,0.0,0.0,0.0,0.0,0.0,0.0,0.0,0.0,0.0,0.0,0.0,0.0,0.0,0.0,0.0,0.0,0.0,0.0,0.0,0.0,0.0,0.0,0.0,0.0,0.0,0.0,0.0,0.0,0.0,0.0,0.0,0.0,0.0,0.0,0.0,0.0,0.0,0.0,0.0,0.0,0.0,0.0,0.0,0.0,0.0,0.0,0.0,0.0,0.0,0.0,0.0,0.0,0.0,0.0,0.0,0.0,-1.2224,-1.2077,-1.2224,-1.2305,-1.2305,-1.2305,-1.2305,-1.2305,0.0,0.0,0.0,0.0,0.0,0.0,0.0,0.0,0.0,0.0,0.0,0.0,0.0,0.0,0.0,0.0,0.0,0.0,0.0,0.0,0.0,0.0,0.0,0.0,0.0,0.0,0.0,0.0,0.0,0.0,0.0,0.0,0.0,0.0,0.0,0.0,0.0,0.0,0.0,0.0,0.0,0.0,0.0,0.0,0.0,0.0,0.0,0.0,0.0,0.0,0.0,0.0,0.0,0.0,0.0,0.0,0.0,0.0,0.0,0.0,0.0,0.0,0.0,0.0,0.0,0.0,0.0,0.0,0.0,0.0,0.0,0.0,0.0,0.0,0.0,0.0,0.0,0.0,0.0,0.0,0.0,0.0,0.0,0.0,0.0,0.0,0.0,0.0,0.0,0.0,0.0,0.0,0.0,0.0,0.0,0.0,0.0,0.0,0.0,0.0,0.0,0.0,0.0,-1.2305,-1.2305,-1.2305,-1.2305,-1.2305,-1.2305,-1.2305,-1.2305,-1.2305,-1.2305,0.0,0.0,0.0,0.0,0.0,0.0,0.0,0.0,0.0,0.0,0.0,0.0,0.0,0.0,0.0,0.0,0.0,0.0,0.0,0.0,0.0,0.0,0.0,0.0,0.0,0.0,0.0,0.0,0.0,0.0,0.0,0.0,0.0,0.0,0.0,0.0,0.0,0.0,0.0,0.0,0.0,0.0,0.0,0.0,0.0,0.0,0.0,0.0,0.0,0.0,0.0,0.0,0.0,0.0,0.0,0.0,0.0,0.0,0.0,0.0,0.0,0.0,0.0,0.0,0.0,0.0,0.0,0.0,0.0,0.0,0.0,0.0,0.0,0.0,0.0,0.0,0.0,0.0,0.0,0.0,0.0,0.0,0.0,0.0,0.0,0.0,0.0,0.0,0.0,0.0,0.0,0.0,0.0,0.0,0.0,0.0,0.0,0.0,0.0,0.0,0.0,0.0,-1.2345,-1.2305,-1.2305,-1.2305,-1.2305,-1.2305,-1.2305,-1.2305,-1.2305,-1.2305,0.0,0.0,0.0,0.0,0.0,0.0,0.0,0.0,0.0,0.0,0.0,0.0,0.0,0.0,0.0,0.0,0.0,0.0,0.0,0.0,0.0,0.0,0.0,0.0,0.0,0.0,0.0,0.0,0.0,0.0,0.0,0.0,0.0,0.0,0.0,0.0,0.0,0.0,0.0,0.0,0.0,0.0,0.0,0.0,0.0,0.0,0.0,0.0,0.0,0.0,0.0,0.0,0.0,0.0,0.0,0.0,0.0,0.0,0.0,0.0,0.0,0.0,0.0,0.0,0.0,0.0,0.0,0.0,0.0,0.0,0.0,0.0,0.0,0.0,0.0,0.0,0.0,0.0,0.0,0.0,0.0,0.0,0.0,0.0,0.0,0.0,0.0,0.0,0.0,0.0,0.0,0.0,0.0,0.0,0.0,0.0,0.0,0.0,0.0,0.0,0.0,0.0,-1.2472,-1.2305,-1.2305,-1.2305,-1.2305,-1.2305,-1.2305,-1.2305,-1.2305,-1.2305,0.0,0.0,0.0,0.0,0.0,0.0,0.0,0.0,0.0,0.0,0.0,0.0,0.0,0.0,0.0,0.0,0.0,0.0,0.0,0.0,0.0,0.0,0.0,0.0,0.0,0.0,0.0,0.0,0.0,0.0,0.0,0.0,0.0,0.0,0.0,0.0,0.0,0.0,0.0,0.0,0.0,0.0,0.0,0.0,0.0,0.0,0.0,0.0,0.0,0.0,0.0,0.0,0.0,0.0,0.0,0.0,0.0,0.0,0.0,0.0,0.0,0.0,0.0,0.0,0.0,0.0,0.0,0.0,0.0,0.0,0.0,0.0,0.0,0.0,0.0,0.0,0.0,0.0,0.0,0.0,0.0,0.0,0.0,0.0,0.0,0.0,0.0,0.0,0.0,0.0,0.0,0.0,0.0,0.0,0.0,0.0,0.0,0.0,0.0,0.0,0.0,0.0,-1.2522,-1.2305,-1.2305,-1.2305,-1.2305,-1.2305,-1.2305,-1.2305,-1.2305,0.0,0.0,0.0,0.0,0.0,0.0,0.0,0.0,0.0,0.0,0.0,0.0,0.0,0.0,0.0,0.0,0.0,0.0,0.0,0.0,0.0,0.0,0.0,0.0,0.0,0.0,0.0,0.0,0.0,0.0,0.0,0.0,0.0,0.0,0.0,0.0,0.0,0.0,0.0,0.0,0.0,0.0,0.0,0.0,0.0,0.0,0.0,0.0,0.0,0.0,0.0,0.0,0.0,0.0,0.0,0.0,0.0,0.0,0.0,0.0,0.0,0.0,0.0,0.0,0.0,0.0,0.0,0.0,0.0,0.0,0.0,0.0,0.0,0.0,0.0,0.0,0.0,0.0,0.0,0.0,0.0,0.0,0.0,0.0,0.0,0.0,0.0,0.0,0.0,0.0,0.0,0.0,0.0,0.0,0.0,0.0,0.0,0.0,0.0,0.0,0.0,0.0,-1.3058,-1.2772,-1.2552,-1.2452,-1.2445,-1.2405,-1.2311,-1.2305,-1.2305,-1.2305,0.0,0.0,0.0,0.0,0.0,0.0,0.0,0.0,0.0,0.0,0.0,0.0,0.0,0.0,0.0,0.0,0.0,0.0,0.0,0.0,0.0,0.0,0.0,0.0,0.0,0.0,0.0,0.0,0.0,0.0,0.0,0.0,0.0,0.0,0.0,0.0,0.0,0.0,0.0,0.0,0.0,0.0,0.0,0.0,0.0,0.0,0.0,0.0,0.0,0.0,0.0,0.0,0.0,0.0,0.0,0.0,0.0,0.0,0.0,0.0,0.0,0.0,0.0,0.0,0.0,0.0,0.0,0.0,0.0,0.0,0.0,0.0,0.0,0.0,0.0,0.0,0.0,0.0,0.0,0.0,0.0,0.0,0.0,0.0,0.0,0.0,0.0,0.0,0.0,0.0,0.0,0.0,0.0,0.0,0.0,0.0,0.0,0.0,0.0,0.0,0.0,0.0,-1.3567,-1.3353,-1.3093,-1.2824,-1.279,-1.2663,-1.2331,-1.2305,-1.2305,0.0,0.0,0.0,0.0,0.0,0.0,0.0,0.0,0.0,0.0,0.0,0.0,0.0,0.0,0.0,0.0,0.0,0.0,0.0,0.0,0.0,0.0,0.0,0.0,0.0,0.0,0.0,0.0,0.0,0.0,0.0,0.0,0.0,0.0,0.0,0.0,0.0,0.0,0.0,0.0,0.0,0.0,0.0,0.0,0.0,0.0,0.0,0.0,0.0,0.0,0.0,0.0,0.0,0.0,0.0,0.0,0.0,0.0,0.0,0.0,0.0,0.0,0.0,0.0,0.0,0.0,0.0,0.0,0.0,0.0,0.0,0.0,0.0,0.0,0.0,0.0,0.0,0.0,0.0,0.0,0.0,0.0,0.0,0.0,0.0,0.0,0.0,0.0,0.0,0.0,0.0,0.0,0.0,0.0,0.0,0.0,0.0,0.0,0.0,0.0,0.0,0.0,0.0,-1.3593,-1.3353,-1.3173,-1.308,-1.2918,-1.275,-1.2663,-1.2425,-1.2305,-1.2305,0.0,0.0,0.0,0.0,0.0,0.0,0.0,0.0,0.0,0.0,0.0,0.0,0.0,0.0,0.0,0.0,0.0,0.0,0.0,0.0,0.0,0.0,0.0,0.0,0.0,0.0,0.0,0.0,0.0,0.0,0.0,0.0,0.0,0.0,0.0,0.0,0.0,0.0,0.0,0.0,0.0,0.0,0.0,0.0,0.0,0.0,0.0,0.0,0.0,0.0,0.0,0.0,0.0,0.0,0.0,0.0,0.0,0.0,0.0,0.0,0.0,0.0,0.0,0.0,0.0,0.0,0.0,0.0,0.0,0.0,0.0,0.0,0.0,0.0,0.0,0.0,0.0,0.0,0.0,0.0,0.0,0.0,0.0,0.0,0.0,0.0,0.0,0.0,0.0,0.0,0.0,0.0,0.0,0.0,0.0,0.0,0.0,0.0,0.0,0.0,0.0,0.0,-1.378,-1.3667,-1.3514,-1.3353,-1.3213,-1.3045,-1.2804,-1.2623,-1.2425,-1.2311,0.0,0.0,0.0,0.0,0.0,0.0,0.0,0.0,0.0,0.0,0.0,0.0,0.0,0.0,0.0,0.0,0.0,0.0,0.0,0.0,0.0,0.0,0.0,0.0,0.0,0.0,0.0,0.0,0.0,0.0,0.0,0.0,0.0,0.0,0.0,0.0,0.0,0.0,0.0,0.0,0.0,0.0,0.0,0.0,0.0,0.0,0.0,0.0,0.0,0.0,0.0,0.0,0.0,0.0,0.0,0.0,0.0,0.0,0.0,0.0,0.0,0.0,0.0,0.0,0.0,0.0,0.0,0.0,0.0,0.0,0.0,0.0,0.0,0.0,0.0,0.0,0.0,0.0,0.0,0.0,0.0,0.0,0.0,0.0,0.0,0.0,0.0,0.0,0.0,0.0,0.0,0.0,0.0,0.0,0.0,0.0,0.0,0.0,0.0,0.0,0.0,0.0,-1.4088,-1.4088,-1.3981,-1.3673,-1.362,-1.338,-1.2911,-1.2817,-1.267,-1.2365,0.0,0.0,0.0,0.0,0.0,0.0,0.0,0.0,0.0,0.0,0.0,0.0,0.0,0.0,0.0,0.0,0.0,0.0,0.0,0.0,0.0,0.0,0.0,0.0,0.0,0.0,0.0,0.0,0.0,0.0,0.0,0.0,0.0,0.0,0.0,0.0,0.0,0.0,0.0,0.0,0.0,0.0,0.0,0.0,0.0,0.0,0.0,0.0,0.0,0.0,0.0,0.0,0.0,0.0,0.0,0.0,0.0,0.0,0.0,0.0,0.2543,0.1372,0.0,0.0,0.0,0.0,0.0,0.0,0.0,0.0,0.0,0.0,0.0,0.0,0.0,0.0,0.0,0.0,0.0,0.0,0.0,0.0,0.0,0.0,0.0,0.0,0.0,0.0,0.0,0.0,0.0,0.0,0.0,0.0,0.0,0.0,0.0,0.0,0.0,0.0,0.0,0.0,-1.4088,-1.4088,-1.4062,-1.4001,-1.374,-1.3553,-1.3427,-1.3058,-1.2757,-1.269,-1.2432,0.0,0.0,0.0,0.0,0.0,0.0,0.0,0.0,0.0,0.0,0.0,0.0,0.0,0.0,0.0,0.0,0.0,0.0,0.0,0.0,0.0,0.0,0.0,0.0,0.0,0.0,0.0,0.0,0.0,0.0,0.0,0.0,0.0,0.0,0.0,0.0,0.0,0.0,0.0,0.0,0.0,0.0,0.0,0.0,0.0,0.0,0.0,0.0,0.0,0.0,0.0,0.0,0.0,0.0,0.0,0.0,0.0,0.0,0.0,0.2803,0.262,0.0,0.0,0.0,0.0,0.0,0.0,0.0,0.0,0.0,0.0,0.0,0.0,0.0,0.0,0.0,0.0,0.0,0.0,0.0,0.0,0.0,0.0,0.0,0.0,0.0,0.0,0.0,0.0,0.0,0.0,0.0,0.0,0.0,0.0,0.0,0.0,0.0,0.0,0.0,0.0,-1.4088,-1.4088,-1.4088,-1.4088,-1.3948,-1.3801,-1.3613,-1.3233,-1.2945,-1.2797,-1.2502,0.0,0.0,0.0,0.0,0.0,0.0,0.0,0.0,0.0,0.0,0.0,0.0,0.0,0.0,0.0,0.0,0.0,0.0,0.0,0.0,0.0,0.0,0.0,0.0,0.0,0.0,0.0,0.0,0.0,0.0,0.0,0.0,0.0,0.0,0.0,0.0,0.0,0.0,0.0,0.0,0.0,0.0,0.0,0.0,0.0,0.0,0.0,0.0,0.0,0.0,0.0,0.0,0.0,0.6497,0.5451,0.3421,0.3528,0.2932,0.1923,0.2734,0.3519,0.404,0.2306,0.0,0.0,0.0,0.0,0.0,0.0,0.0,0.0,0.0,0.0,0.0,0.0,0.0,0.0,0.0,0.0,0.0,0.0,0.0,0.0,0.0,0.0,0.0,0.0,-0.7683,-0.8483,-0.87,0.0,0.0,0.0,0.0,0.0,0.0,0.0,0.0,0.0,0.0,0.0,-1.4088,-1.4088,-1.4088,-1.4088,-1.4088,-1.3988,-1.37,-1.3413,-1.3153,-1.2884,-1.2583,-1.2358,0.0,0.0,0.0,0.0,0.0,0.0,0.0,0.0,0.0,0.0,0.0,0.0,0.0,0.0,0.0,0.0,0.0,0.0,0.0,0.0,0.0,0.0,0.0,0.0,0.0,0.0,0.0,0.0,0.0,0.0,0.0,0.0,1.1015,1.0663,0.0,0.0,0.0,0.0,0.0,0.0,0.0,0.0,0.0,0.0,0.0,0.0,0.0,0.6549,0.6641,0.6641,0.6641,0.6641,0.6661,0.5959,0.4672,0.4684,0.402,0.2931,0.3037,0.0,0.1993,0.1709,0.0,0.0,0.0,0.0,0.0,0.0,0.0,0.0,0.0,0.0,0.0,0.0,0.0,0.0,0.0,0.0,0.0,0.0,0.0,0.0,0.0,0.0,-0.7045,-0.7061,-0.7197,-0.7588,0.0,-1.0651,-1.1989,-1.0994,-1.2601,-1.3779,0.0,0.0,0.0,0.0,0.0,0.0,-1.4088,-1.4088,-1.4088,-1.4088,-1.4088,-1.4075,-1.4035,-1.3713,-1.342,-1.3166,-1.2898,-1.261,-1.2311,-1.2305,0.0,0.0,0.0,0.0,0.0,0.0,0.0,0.0,0.0,0.0,0.0,0.0,0.0,0.0,0.0,0.0,0.0,0.0,0.0,0.0,0.0,0.0,0.0,0.0,0.0,0.0,0.0,0.0,0.0,1.2693,1.2284,1.2157,1.0885,0.9985,0.0,0.0,0.0,0.0,0.0,0.0,0.0,0.0,0.0,0.66,0.66,0.663,0.6702,0.6702,0.6702,0.6702,0.6787,0.6187,0.4992,0.4448,0.3519,0.2348,0.1655,0.109,0.0741,0.1331,0.1325,0.0857,0.0,0.0,0.0,0.0,0.0,0.0,0.0,0.0,-0.0175,-0.135,0.0,0.0,0.0,0.0,0.0,0.0,0.0,-0.7095,0.0,0.0,-0.7095,-0.7095,-0.7095,-0.7228,-0.7753,-0.9187,-1.0611,-1.1381,-1.2948,-1.3913,-1.3379,-1.3737,0.0,0.0,0.0,-1.4088,-1.4088,-1.4088,-1.4088,-1.4088,-1.4088,-1.4088,-1.4088,-1.3773,-1.348,-1.3227,-1.2958,-1.265,-1.2311,-1.2305,-1.2305,0.0,0.0,0.0,0.0,0.0,0.0,0.0,0.0,0.0,0.0,0.0,0.0,0.0,0.0,0.0,0.0,0.0,0.0,0.0,0.0,0.0,0.0,0.0,0.0,0.0,0.0,0.0,0.0,1.3473,1.3293,1.322,1.2313,1.1702,0.0,0.0,0.0,0.0,0.0,0.0,0.8,0.7186,0.6759,0.6759,0.6759,0.6776,0.6814,0.6814,0.6814,0.6814,0.6886,0.6325,0.5147,0.4387,0.3217,0.1746,0.0852,0.0269,0.0045,0.0881,0.1181,0.1095,0.0312,0.0,0.0,0.0,0.0,0.0,0.0,0.0,-0.0135,-0.1031,-0.1567,-0.1969,-0.2858,0.0,0.0,0.0,0.0,-0.7095,-0.7095,-0.7095,-0.7095,-0.7095,-0.7095,-0.7183,-0.7489,-0.8277,-0.9405,0.0,-1.2644,-1.3646,-1.3646,-1.3913,0.0,-1.4088,-1.4088,-1.4088,-1.4088,-1.4088,-1.4088,-1.4088,-1.4088,-1.4088,-1.4088,-1.3881,-1.356,-1.3233,-1.2993,-1.273,-1.2318,-1.2305,-1.2305,-1.2305,0.0,0.0,0.0,0.0,0.0,0.0,0.0,0.0,0.0,0.0,0.0,0.0,0.0,0.0,0.0,0.0,0.0,0.0,0.0,0.0,0.0,0.0,0.0,0.0,0.0,0.0,0.0,0.0,0.0,1.324,1.2313,0.0,0.0,0.0,0.0,0.8565,0.8614,0.814,0.6871,0.6837,0.6873,0.6873,0.6873,0.694,0.7071,0.7071,0.7071,0.7071,0.7082,0.6508,0.5395,0.5312,0.402,0.179,0.1746,0.1076,0.0,0.0045,0.009,0.009,0.0,0.0,0.0,0.0,0.0,0.0,0.0,0.0,0.0,-0.009,-0.0852,-0.179,-0.1879,-0.3528,0.0,0.0,-0.6248,-0.7095,-0.7095,-0.7095,-0.7095,-0.7095,-0.7095,-0.7404,-0.854,-0.8846,-0.8934,0.0,-1.0869,-1.237,-1.237,0.0,-1.4088,-1.4088,-1.4088,-1.4088,-1.4088,-1.4088,-1.4088,-1.4088,-1.4088,-1.4088,-1.4088,-1.4075,-1.3821,-1.3247,-1.32,-1.2919,-1.2325,-1.2305,-1.2305,-1.2305,-1.2305,0.0,0.0,0.0,0.0,0.0,0.0,0.0,0.0,0.0,0.0,0.0,0.0,0.0,0.0,0.0,0.0,0.0,0.0,0.0,0.0,0.0,0.0,0.0,0.0,0.0,0.0,0.0,0.0,1.3788,1.3478,0.0,1.3223,1.292,1.254,1.2111,1.1424,1.0496,0.928,0.8539,0.7842,0.7065,0.7021,0.7045,0.7095,0.7095,0.7095,0.7095,0.7095,0.6874,0.647,0.5714,0.451,0.2903,0.2147,0.1121,0.0,0.0,0.0,0.0,0.0,0.0,0.0,0.0,0.0,0.0,0.0,0.0,0.0,0.0,-0.0269,-0.0807,-0.1567,-0.2949,-0.4419,-0.5179,-0.6204,-0.7095,-0.7095,-0.7095,-0.7095,-0.7095,-0.7095,-0.7228,-0.7665,-0.7753,-0.8189,-0.9705,-1.1252,-1.2547,-1.3336,-1.3822,-1.4088,-1.4088,-1.4088,-1.4088,-1.4088,-1.4088,-1.4088,-1.4088,-1.4088,-1.4088,-1.4088,-1.4088,-1.3915,-1.3473,-1.3313,-1.3026,-1.2643,-1.2405,-1.2305,-1.2305,-1.2305,-1.3091,0.0,0.0,0.0,0.0,0.0,0.0,0.0,0.0,0.0,0.0,0.0,0.0,0.0,0.0,0.0,0.0,0.0,0.0,0.0,0.0,0.0,0.0,0.0,0.0,0.0,1.5545,1.4657,1.4657,1.4328,1.4088,1.4088,1.4088,1.3913,1.3512,1.2766,1.1809,1.0654,0.9536,0.854,0.7753,0.7316,0.7095,0.7095,0.7095,0.7095,0.7095,0.7095,0.7095,0.7095,0.6337,0.5312,0.415,0.2948,0.1701,0.0584,0.018,0.0,0.0,0.0,0.0,0.0,0.0,0.0,0.0,0.0,0.0,0.0,0.0,0.0,-0.0135,-0.0941,-0.2324,-0.3748,-0.4552,-0.5891,-0.7095,-0.7095,-0.7095,-0.7095,-0.7095,-0.7095,-0.7095,-0.7095,-0.7095,-0.7793,-1.0135,-1.1209,-1.2248,-1.3828,-1.4088,-1.4088,-1.4088,-1.4088,-1.4088,-1.4088,-1.4088,-1.4088,-1.4088,-1.4088,-1.4088,-1.4088,-1.4088,-1.3961,-1.362,-1.3367,-1.3073,-1.2797,-1.2496,-1.2351,-1.2489,-1.2489,-1.3198,-1.4708,0.0,0.0,0.0,0.0,0.0,0.0,0.0,0.0,0.0,0.0,0.0,0.0,0.0,0.0,0.0,0.0,0.0,0.0,0.0,0.0,0.0,0.0,0.0,1.8997,1.7082,1.5696,1.5696,1.4734,1.4088,1.4088,1.4088,1.3603,1.2456,1.237,1.1852,1.0697,0.9623,0.8978,0.889,0.7753,0.7139,0.7095,0.7095,0.7095,0.7095,0.7095,0.7095,0.7095,0.7095,0.647,0.5314,0.4105,0.2903,0.1701,0.0494,0.0,0.0,0.0,0.0,0.0,0.0,0.0,0.0,0.0,0.0,0.0,0.0,0.0,0.0,0.0,-0.17,-0.3614,-0.3614,-0.5307,-0.7095,-0.7095,-0.7095,-0.7095,-0.7095,-0.7095,-0.7095,-0.7095,-0.7095,-0.7793,-1.0135,-1.0611,-1.1348,-1.3695,-1.4088,-1.4088,-1.4088,-1.4088,0.0,-1.4088,-1.4088,-1.4088,-1.4088,-1.4088,-1.4088,-1.4088,-1.4088,-1.3968,-1.3633,-1.3333,-1.3073,-1.2811,-1.2465,-1.2438,-1.2764,-1.2808,-1.3112,-1.3709,0.0,0.0,0.0,0.0,0.0,0.0,0.0,0.0,0.0,0.0,0.0,0.0,0.0,0.0,0.0,0.0,0.0,0.0,0.0,0.0,0.0,2.0808,1.9883,1.9125,1.7082,1.5696,1.5696,1.4734,1.4088,1.4088,1.4088,1.3955,1.3646,1.3603,1.3075,1.1895,1.1552,1.0611,0.8934,0.8584,0.7969,0.7095,0.7095,0.7095,0.7095,0.7095,0.7095,0.7095,0.7095,0.647,0.5314,0.4105,0.2903,0.1701,0.0494,0.0,0.0,0.0,0.0,0.0,0.0,0.0,0.0,0.0,0.0,0.0,0.0,0.0,0.0,0.0,-0.17,-0.3614,-0.3614,-0.5307,-0.7095,-0.7095,-0.7095,-0.7095,-0.7095,-0.7095,-0.7095,-0.7095,-0.7095,-0.7793,-1.0135,-1.0611,-1.1348,-1.3695,-1.4088,-1.4088,-1.4088,-1.4088,0.0,-1.4088,-1.4088,-1.4088,-1.4088,-1.4088,-1.4088,-1.4088,-1.4088,-1.4055,-1.3968,-1.3494,-1.3173,-1.3086,-1.2579,-1.2338,-1.2425,-1.3116,-1.3543,0.0,0.0,0.0,0.0,0.0,0.0,0.0,0.0,0.0,0.0,0.0,0.0,0.0,0.0,0.0,0.0,0.0,0.0,0.0,0.0,0.0,0.0,2.0972,2.0362,1.9766,1.777,1.6355,1.6355,1.5019,1.4088,1.4088,1.4088,1.4088,1.4088,1.4088,1.3779,1.3069,1.2589,1.1681,1.0351,0.9405,0.8584,0.7841,0.7356,0.7095,0.7095,0.7095,0.7095,0.7095,0.7095,0.6738,0.6027,0.4865,0.366,0.2458,0.1254,0.0449,0.0,0.0,0.0,0.0,0.0,0.0,0.0,0.0,0.0,0.0,0.0,0.0,0.0,0.0,-0.17,-0.3614,-0.3614,-0.5307,-0.7095,-0.7095,-0.7095,-0.7095,-0.7095,-0.7095,-0.7095,-0.7095,-0.7095,-0.7661,-0.9531,-1.0269,0.0,-1.3033,-1.3779,-1.4088,-1.4088,-1.4088,-1.4088,-1.4088,-1.4088,-1.4088,-1.4088,-1.4088,-1.4088,-1.4088,-1.4088,0.0,0.0,0.0,-1.31,-1.2839,-1.2612,0.0,0.0,0.0,-1.3263,-1.3135,0.0,0.0,0.0,-1.6419,-1.7104,0.0,0.0,0.0,0.0,0.0,0.0,0.0,0.0,0.0,0.0,0.0,0.0,0.0,0.0,0.0,0.0,2.075,2.0605,2.0605,1.8829,1.7496,1.7496,1.5594,1.4292,1.4292,1.4166,1.4088,1.4088,1.4088,1.4088,1.4088,1.3075,0.0,0.0,0.0,0.9021,0.889,0.7709,0.7095,0.7095,0.7095,0.7095,0.7095,0.7095,0.7095,0.7051,0.5894,0.4776,0.3705,0.237,0.1076,0.0,0.0,0.0,0.0,0.0,0.0,0.0,0.0,0.0,0.0,0.0,0.0,0.0,0.0,-0.17,-0.3614,-0.3614,-0.5307,-0.7095,-0.7095,-0.7095,-0.7095,-0.7095,-0.7095,-0.7095,-0.7095,-0.7095,-0.7445,-0.8671,-0.971,-1.0826,-1.2066,-1.3294,-1.4088,-1.4088,-1.4088,-1.4088,-1.4088,-1.4088,-1.4088,-1.4088,0.0,0.0,-1.4088,-1.4088,-1.4088,-1.4088,-1.3534,-1.2939,-1.2325,-1.2596,-1.261,-1.2305,-1.2596,-1.2603,-1.2305,-1.3244,-1.4207,-1.5234,-1.614,-1.7104,0.0,0.0,0.0,0.0,0.0,0.0,0.0,0.0,0.0,0.0,0.0,0.0,0.0,0.0,0.0,2.285,2.1642,2.0605,2.0605,1.9481,1.8669,1.8669,1.6723,1.5372,1.5372,1.4615,1.4088,1.4088,1.4088,1.4088,1.4088,1.3864,1.3294,1.2328,1.0999,0.9836,0.889,0.7709,0.7095,0.7095,0.7095,0.0,0.7095,0.7095,0.7095,0.7051,0.5894,0.527,0.4865,0.2683,0.1076,0.0,0.0,0.0,0.0,0.0,0.0,0.0,0.0,0.0,0.0,0.0,0.0,0.0,0.0,-0.17,0.0,-0.3614,-0.5307,-0.7095,-0.7095,-0.7095,-0.7095,-0.7095,-0.7095,-0.7095,-0.7095,-0.7095,-0.7445,-0.8671,-0.9065,-0.9879,-1.1938,-1.3294,-1.4088,-1.4088,-1.4088,-1.4088,-1.4088,-1.4088,-1.4088,-1.4088,-1.4088,-1.4088,-1.4088,-1.4088,-1.4088,-1.4088,-1.3534,-1.2939,-1.2325,-1.2358,-1.2365,-1.2305,-1.2358,-1.2358,-1.2305,-1.3244,-1.4207,-1.5234,-1.614,-1.7104,0.0,0.0,0.0,0.0,0.0,0.0,0.0,0.0,0.0,0.0,0.0,2.5734,0.0,0.0,2.3514,2.3514,2.2264,2.1298,2.1298,2.0411,1.9402,1.827,1.6715,1.5504,1.4936,1.4412,1.4088,1.4088,1.4088,1.4088,1.4088,1.4088,1.3822,1.3209,1.152,1.0308,0.9753,0.7965,0.7095,0.7095,0.7095,0.7095,0.7095,0.7095,0.7095,0.7051,0.6517,0.5938,0.5225,0.2816,0.1076,0.0,0.0,0.0,0.0,0.0,0.0,0.0,0.0,0.0,0.0,0.0,0.0,0.0,0.0,-0.1254,-0.2815,-0.3436,-0.4863,-0.6381,-0.6962,-0.7095,-0.7095,-0.7095,-0.7095,-0.7095,-0.7095,-0.7095,-0.7272,-0.7885,-0.8496,-0.9279,-1.0394,-1.1563,-1.2735,-1.3913,-1.4088,-1.4088,-1.4088,-1.4088,-1.4088,-1.4088,-1.4088,-1.4088,-1.4088,-1.4088,-1.4021,-1.3874,-1.3454,-1.3006,-1.2583,-1.2378,-1.2305,-1.2305,-1.2305,-1.2305,-1.2305,-1.3738,-1.47,-1.5234,-1.6645,-1.7535,0.0,0.0,0.0,0.0,0.0,0.0,0.0,0.0,2.6499,2.6499,2.6499,2.6233,2.5441,2.5111,2.4671,2.3661,2.2664,2.1924,2.1735,2.1078,1.9874,1.7868,1.6683,1.5662,1.4824,1.4334,1.4088,1.4088,1.4088,1.4088,1.4088,1.4088,1.4088,1.4088,1.204,1.0821,1.0611,0.8488,0.7316,0.7095,0.7095,0.7095,0.7095,0.7095,0.7095,0.7095,0.7095,0.6473,0.5223,0.3038,0.1433,0.0314,0.009,0.0,0.0,0.0,0.0,0.0,0.0,0.0,0.0,0.0,0.0,0.0,0.0,-0.0852,-0.2013,-0.2992,-0.4285,-0.5628,-0.6517,-0.6918,-0.7095,-0.7095,-0.7095,-0.7095,-0.7095,-0.7095,-0.7095,-0.7095,-0.7885,-0.8627,-0.8846,-0.9666,-1.1047,-1.3385,-1.3737,-1.3822,-1.4088,-1.4088,-1.4088,-1.4088,-1.4088,-1.4088,-1.4088,-1.4088,-1.3961,-1.362,-1.3367,-1.3073,-1.2797,-1.2496,-1.2305,-1.2305,-1.2305,-1.2305,-1.2305,-1.4063,-1.5021,-1.5234,-1.6941,-1.7828,3.1511,3.1511,3.1467,3.138,3.0103,2.8844,0.0,0.0,2.6499,2.6499,2.6499,2.6465,2.6349,2.5594,2.4671,2.3661,2.2664,2.1697,2.0857,2.0673,2.0157,1.8957,1.7827,1.705,1.6927,1.5228,1.4088,1.4088,1.4088,1.4088,1.4088,1.4088,1.4088,1.4088,1.2814,1.1638,1.0611,0.9318,0.8145,0.7095,0.7095,0.7095,0.7095,0.7095,0.7095,0.7095,0.7095,0.6473,0.5314,0.3972,0.2681,0.1478,0.0404,0.0,0.0,0.0,0.0,0.0,0.0,0.0,0.0,0.0,0.0,0.0,0.0,-0.0852,-0.1835,-0.1969,-0.3662,-0.5447,-0.5536,-0.6337,-0.7095,-0.7095,-0.7095,-0.7095,-0.7095,-0.7095,-0.7095,-0.7095,-0.7228,-0.7621,-0.8715,-0.9021,-0.9879,-1.2157,-1.2504,-1.2899,-1.3955,-1.4088,-1.4088,-1.4088,-1.4088,-1.4088,-1.4088,-1.4088,-1.3961,-1.362,-1.3367,-1.3073,-1.2797,-1.2496,-1.2305,-1.2305,-1.2305,-1.2305,-1.2305,-1.3346,-1.4314,-1.5234,-1.6289,-1.7207,3.1511,3.1511,3.138,0.0,2.9889,2.8876,2.8363,2.7351,2.6499,2.6499,2.6499,2.6499,2.6499,2.6164,2.5734,0.0,2.3916,2.2739,2.2339,2.1308,2.044,1.9962,1.8957,1.7779,1.6478,1.5545,1.4776,1.413,1.4088,1.4088,1.4088,1.4088,1.4088,1.4088,1.2942,1.2072,1.1595,0.9797,0.8627,0.8149,0.7448,0.7095,0.7095,0.7095,0.7095,0.7095,0.7095,0.6473,0.5359,0.4865,0.3929,0.2726,0.1522,0.1031,0.0941,0.0269,0.0,0.0,0.0,0.0,0.0,0.0,0.0,0.0,0.0,-0.0359,-0.0897,-0.1612,-0.3038,-0.4508,-0.5223,-0.6248,-0.7095,-0.7095,-0.7095,-0.7095,-0.7095,-0.7095,-0.7095,-0.7095,-0.7095,-0.7272,-0.7753,-0.7841,-0.8404,-1.0048,-1.1466,-1.2498,-1.2984,-1.3688,-1.4088,-1.4088,-1.4088,-1.4088,-1.4088,-1.4088,-1.4035,-1.3908,-1.3467,-1.3153,-1.3019,-1.2559,-1.2305,-1.2305,-1.2305,-1.2305,-1.2305,-1.3244,-1.4207,-1.5234,-1.614,-1.7104,3.1511,0.0,0.0,3.0494,2.9628,2.878,2.7887,2.7061,2.6499,2.6499,2.6499,2.6499,2.6499,2.6499,2.6314,2.5756,2.4433,2.3294,2.2787,2.1489,2.0605,2.0605,1.9923,1.8709,1.6797,1.6067,1.5379,1.4615,1.425,1.4088,1.4088,1.4088,1.4088,1.4088,1.3252,1.2638,1.2285,1.0654,0.9536,0.889,0.8017,0.7404,0.7095,0.7095,0.7095,0.7095,0.7095,0.665,0.5849,0.5536,0.4865,0.3927,0.2415,0.179,0.1657,0.0449,0.0,0.0,0.0,0.0,0.0,0.0,0.0,0.0,0.0,0.0,-0.018,-0.1076,-0.2413,-0.3792,-0.4688,-0.598,-0.7095,-0.7095,-0.7095,-0.7095,-0.7095,-0.7095,-0.7095,-0.7095,-0.7095,-0.7095,-0.7095,-0.7095,-0.7401,-0.8277,-1.0091,-1.1466,-1.1809,-1.2857,-1.373,-1.4046,-1.4088,-1.4088,-1.4088,-1.4088,-1.4088,-1.4088,-1.3534,-1.3213,-1.3213,-1.2625,-1.2305,-1.2305,-1.2305,-1.2305,-1.2305,-1.2989,-1.381,-1.4807,-1.5755,-1.6715,0.0,0.0,3.1307,3.0494,2.9628,2.878,2.7887,2.7061,2.6499,2.6499,2.6499,2.6499,2.6499,2.6499,2.5873,2.3916,2.3551,2.285,2.0934,2.0644,2.0605,2.0605,2.0566,2.0118,1.8997,1.696,1.5703,1.5655,1.4699,1.4088,1.4088,1.4088,1.4088,1.4088,1.4046,1.347,1.2328,1.2242,1.1085,0.889,0.8846,0.8233,0.7095,0.7095,0.7095,0.7095,0.7095,0.7095,0.6962,0.5849,0.5359,0.509,0.2727,0.179,0.1657,0.0449,0.0,0.0,0.0,0.0,0.0,0.0,0.0,0.0,0.0,0.0,0.0,-0.0045,-0.1745,-0.3614,-0.3659,-0.5351,-0.7095,-0.7095,-0.7095,-0.7095,-0.7095,-0.7095,-0.7095,-0.7095,-0.7095,-0.7095,-0.7095,-0.7095,-0.7095,-0.7139,-0.8189,-0.9405,-1.0524,-1.1638,-1.2808,-1.3955,-1.4088,-1.4088,-1.4088,-1.4088,-1.4088,-1.4088,-1.3534,-1.3213,-1.3213,-1.2625,-1.2305,-1.2305,-1.2305,-1.2305,-1.2305,-1.2342,-1.2842,-1.3781,-1.4772,-1.5763,0.0,0.0,3.1161,2.9797,2.9223,2.862,2.7229,2.6679,2.6499,2.6499,2.6499,2.6499,2.6499,2.6499,2.606,2.4707,2.3927,2.3036,2.1697,2.1011,2.0605,2.0605,2.0605,0.0,0.0,1.806,1.6478,1.5737,1.4692,1.4088,1.4088,1.4088,1.4088,1.4088,1.4088,1.3906,1.3512,1.2717,1.1895,1.1123,0.9623,0.8277,0.7095,0.7095,0.7095,0.7095,0.7095,0.7095,0.7051,0.6694,0.6517,0.6381,0.4821,0.3707,0.2858,0.1657,0.0673,0.0,0.0,0.0,0.0,0.0,0.0,0.0,0.0,0.0,0.0,0.0,-0.1165,-0.2413,-0.2413,-0.4196,-0.5983,-0.5983,-0.6561,-0.7095,-0.7095,-0.7095,-0.7095,-0.7095,-0.7095,-0.7095,-0.7095,-0.7095,-0.7095,-0.7095,-0.8145,-0.9579,-1.1466,-1.2066,-1.2766,-1.3955,-1.4088,-1.4088,-1.4088,-1.4088,-1.4088,-1.4088,-1.3714,-1.3373,-1.322,-1.2812,-1.2543,-1.2305,-1.2305,-1.2305,-1.2305,-1.2305,-1.2769,-1.3709,-1.4736,-1.5685,0.0,3.1511,3.1087,2.9411,2.9002,2.8556,2.6871,2.6499,2.6499,2.6499,2.6499,2.6499,2.6499,2.6499,2.6164,2.5158,2.4445,2.3551,2.2178,2.1479,2.0972,2.0644,2.0605,2.0605,0.0,0.0,1.7009,1.6314,1.4936,1.4088,1.4088,1.4088,1.4088,1.4088,1.4088,1.4088,1.4088,1.3336,1.251,1.1686,0.9797,0.8277,0.7095,0.7095,0.7095,0.7095,0.7095,0.7095,0.7095,0.7095,0.7095,0.7007,0.5849,0.4912,0.4061,0.2415,0.1299,0.0584,0.0135,0.0,0.0,0.0,0.0,0.0,0.0,0.0,0.0,0.0,-0.0852,-0.179,-0.179,-0.3261,-0.4865,-0.5314,-0.5983,-0.6605,-0.7007,-0.7095,-0.7095,-0.7095,-0.7095,-0.7095,-0.7095,-0.7095,-0.7095,-0.7095,-0.7753,-0.91,-1.1381,-1.1681,-1.2291,-1.3913,-1.4088,-1.4088,-1.4088,-1.4088,-1.4088,-1.4088,-1.3808,-1.3473,-1.322,-1.2951,-1.2643,-1.2311,-1.2305,-1.2305,-1.2305,-1.2305,-1.2629,-1.3237,-1.4207,-1.5199,3.1511,3.1511,3.1117,2.9473,2.9034,2.8556,2.6939,2.6521,2.6499,2.6499,2.6499,2.6499,0.0,0.0,2.6164,2.5158,2.5004,2.4301,2.2291,2.1989,2.1669,0.0,0.0,0.0,0.0,0.0,0.0,1.7302,1.5311,1.4088,1.4088,1.4088,1.4088,1.4088,1.4088,1.4088,1.4088,1.4088,1.2954,1.0654,0.9536,0.8364,0.7183,0.7139,0.7095,0.7095,0.7095,0.7095,0.7095,0.7095,0.7095,0.7007,0.5894,0.5447,0.5134,0.2772,0.1835,0.1612,0.0404,0.0,0.0,0.0,0.0,0.0,0.0,0.0,0.0,0.0,-0.0807,-0.1701,-0.1701,-0.2592,-0.3792,-0.4956,-0.5314,-0.5716,-0.6782,-0.7051,-0.7095,-0.7095,-0.7095,-0.7095,-0.7095,-0.7095,-0.7095,-0.7095,-0.7095,-0.7965,-1.0308,-1.0611,-1.152,-1.3864,-1.4088,-1.4088,-1.4088,-1.4088,-1.4088,-1.4088,-1.378,-1.3487,-1.322,-1.2965,-1.2663,-1.2311,-1.2305,-1.2305,-1.2305,-1.2305,-1.2305,-1.2335,-1.331,-1.4279,3.1511,3.1511,3.1248,3.0238,2.9473,2.8716,2.7637,2.6939,2.6499,2.6499,2.6499,2.6499,0.0,0.0,0.0,2.5158,2.5004,0.0,2.2291,2.1989,0.0,2.0712,0.0,2.0605,2.0605,1.9362,0.0,1.7374,1.5311,1.4088,1.4088,1.4088,1.4088,1.4088,1.4088,1.4088,1.4088,1.4088,1.3343,1.1852,1.0697,0.9575,0.8408,0.7489,0.7095,0.7095,0.7095,0.7095,0.7095,0.7095,0.7095,0.7051,0.6782,0.616,0.5223,0.3705,0.2592,0.1612,0.0404,0.0,0.0,0.0,0.0,0.0,0.0,0.0,0.0,0.0,-0.0225,-0.0449,-0.0449,-0.1344,-0.2325,-0.2638,-0.4109,-0.5492,-0.5761,-0.6517,-0.7095,-0.7095,-0.7095,-0.7095,-0.7095,-0.7095,-0.7095,-0.7095,-0.7095,-0.7965,-1.0308,-1.0611,-1.152,-1.3864,-1.4088,-1.4088,-1.4088,-1.4088,-1.4088,-1.4088,-1.4015,-1.3741,-1.3233,-1.3133,-1.2839,-1.2311,-1.2305,-1.2305,-1.2305,-1.2305,-1.2305,-1.2335,-1.4019,-1.495,3.1511,3.1511,3.1307,3.0494,2.9628,2.878,2.7887,2.7061,2.6499,2.6499,2.6499,0.0,2.6499,2.6499,2.6314,0.0,0.0,0.0,2.2925,2.2664,2.2151,0.0,2.0605,0.0,2.0605,1.9638,1.851,1.7383,1.5752,1.4615,1.413,1.4088,1.4088,1.4088,1.4088,1.4088,1.4088,1.4088,1.3512,1.2279,1.1123,1.0009,0.8846,0.7665,0.7095,0.7095,0.7095,0.7095,0.7095,0.7095,0.7095,0.7095,0.7095,0.6694,0.6024,0.4819,0.3616,0.2413,0.121,0.0449,0.0,0.0,0.0,0.0,0.0,0.0,0.0,0.0,0.0,0.0,0.0,-0.0494,-0.1165,-0.1656,-0.3261,-0.4776,-0.527,-0.6293,-0.7095,-0.7095,-0.7095,-0.7095,-0.7095,-0.7095,-0.7095,-0.7095,-0.7095,-0.7749,-0.9618,-1.0308,-1.13,-1.3118,-1.3779,-1.4088,-1.4088,-1.4088,-1.4088,-1.4088,-1.4088,-1.3821,-1.3233,-1.3213,-1.2926,-1.2311,-1.2305,-1.2305,-1.2305,-1.2305,-1.2305,-1.2335,-1.3846,-1.4772,3.138,3.1351,3.1161,3.0329,2.9473,2.862,2.7855,2.7061,2.6499,2.6499,0.0,2.6499,2.6499,2.6499,2.6499,2.6499,0.0,2.5791,2.377,2.3514,2.2787,2.0828,2.0605,2.0605,2.0605,1.9766,1.8758,1.7617,1.6519,1.5379,1.4166,1.4088,1.4088,1.4088,1.4088,1.4088,1.4088,1.4088,1.3561,1.2547,1.1386,1.0226,0.9104,0.7881,0.7272,0.7095,0.7095,0.7095,0.7095,0.7095,0.7095,0.7095,0.7095,0.7095,0.6962,0.5805,0.4732,0.366,0.2281,0.1121,0.0225,0.0045,0.0,0.0,0.0,0.0,0.0,0.0,0.0,0.0,0.0,0.0,-0.0269,-0.1299,-0.2503,-0.3705,-0.491,-0.6204,-0.7095,-0.7095,-0.7095,-0.7095,-0.7095,-0.7095,-0.7095,-0.7095,-0.7095,-0.7492,-0.854,-0.9662,-1.0826,-1.1938,-1.316,-1.3864,-1.3864,-1.3997,-1.4088,-1.4088,-1.4088,-1.3821,-1.3233,-1.3213,-1.2926,-1.2311,-1.2305,-1.2305,-1.2305,-1.2305,-1.2305,-1.2335,-1.3273,-1.4243,3.0673,3.0524,3.0299,2.9442,2.8556,2.7887,2.7736,2.7061,0.0,0.0,2.6499,2.6499,2.6499,2.6499,2.6499,2.6499,2.6499,2.5791,2.377,2.3514,2.2787,0.0,2.0605,2.0605,2.0605,2.044,1.9883,1.8798,1.7658,1.6157,1.4208,1.4088,1.4088,1.4088,1.4088,1.4088,1.4088,1.4088,1.3997,1.3779,1.2595,1.1423,1.0269,0.91,0.8061,0.7095,0.7095,0.0,0.7095,0.7095,0.7095,0.7095,0.7095,0.7095,0.6962,0.5805,0.527,0.4776,0.2549,0.1657,0.1344,0.0314,0.0,0.0,0.0,0.0,0.0,0.0,0.0,0.0,0.0,0.0,-0.0045,-0.0269,-0.1254,-0.2458,-0.366,-0.5575,-0.7095,-0.7095,-0.7095,-0.7095,-0.7095,-0.7095,-0.7095,-0.7095,-0.7095,-0.7183,-0.7404,-0.8452,-0.9623,-1.0783,-1.1943,-1.2589,-1.2589,-1.3512,-1.4088,-1.4088,-1.4088,-1.3821,-1.3233,-1.3213,-1.2926,-1.2311,-1.2305,-1.2305,-1.2305,-1.2305,-1.2305,-1.2335,-1.3273,-1.4243,2.9858,2.9628,2.9504,2.9097,2.833,2.7703,2.7703,0.0,0.0,0.0,2.6499,2.6399,2.6097,2.6047,0.0,2.6047,2.6047,2.546,2.3736,2.3514,2.2787,2.0828,2.0605,2.0605,2.0605,2.0605,2.0157,1.9076,1.7948,1.6609,1.5019,1.4412,1.4088,1.4088,1.4088,1.4088,1.4088,1.4088,1.4088,1.4088,1.2893,1.1681,1.0567,0.941,0.8237,0.7095,0.7095,0.7095,0.7095,0.7095,0.7095,0.7095,0.7095,0.7095,0.7051,0.6473,0.5894,0.5225,0.4065,0.2861,0.1701,0.1121,0.0494,0.0,0.0,0.0,0.0,0.0,0.0,0.0,0.0,0.0,0.0,0.0,-0.1388,-0.3081,-0.4285,-0.5888,-0.7095,-0.7095,-0.7095,-0.7095,-0.7095,-0.7095,-0.7095,-0.7095,-0.7095,-0.7095,-0.7095,-0.7621,-0.8404,-0.9579,-1.074,-1.1638,-1.2237,-1.2291,-1.282,-1.3997,-1.3512,-1.3172,-1.3194,-1.3213,-1.2926,-1.2311,-1.2305,-1.2305,-1.2305,-1.2305,-1.2305,-1.2335,-1.3273,-1.3954,2.8971,2.8716,2.8684,2.8524,2.7953,2.7451,2.7451,2.6939,0.0,0.0,2.6399,2.6172,2.5686,2.5498,2.5473,0.0,2.5598,2.512,2.3702,2.3514,2.2787,2.0828,2.0605,0.0,2.0605,2.0605,2.0245,1.9402,1.806,1.6731,1.5421,1.4573,1.4088,1.4088,1.4088,1.4088,1.4088,1.4088,1.4088,1.4088,1.316,1.2072,1.0907,0.9792,0.8623,0.7492,0.7228,0.7095,0.7095,0.7095,0.7095,0.7095,0.7095,0.7095,0.7095,0.7095,0.6517,0.5714,0.5492,0.4154,0.2504,0.1969,0.0986,0.0,0.0,0.0,0.0,0.0,0.0,0.0,0.0,0.0,0.0,0.0,-0.1657,-0.3482,-0.4421,-0.5758,-0.6738,-0.6738,-0.6918,-0.7095,-0.7095,-0.7095,-0.7095,-0.7095,-0.7095,-0.7095,-0.7095,-0.7095,-0.7445,-0.8408,-0.9536,-1.0611,-1.1515,-1.095,-1.1391,-1.3215,-1.2681,-1.2511,-1.2907,-1.3121,-1.2953,-1.2412,-1.2338,-1.2305,-1.2305,-1.2305,-1.2305,-1.2335,-1.3062,-1.3528,2.8051,2.7835,2.7637,2.6905,2.6692,2.6624,2.6624,0.0,0.0,2.6499,2.6072,2.5661,2.5598,2.5209,0.0,0.0,0.0,2.512,2.3702,2.3514,2.2787,2.0828,0.0,0.0,2.0605,2.0605,2.0566,2.044,1.8501,1.6404,1.4377,1.4166,1.4088,1.4088,1.4088,1.4088,1.4088,1.4088,1.4088,1.4088,1.3997,1.3294,1.2114,1.095,0.9836,0.8671,0.7577,0.7095,0.0,0.7095,0.7095,0.7095,0.7095,0.7095,0.7095,0.7095,0.7051,0.6786,0.5761,0.527,0.469,0.2504,0.0986,0.0,0.0,0.0,0.0,0.0,0.0,0.0,0.0,0.0,0.0,0.0,-0.0986,-0.2013,-0.2102,-0.3931,-0.5536,-0.5536,-0.6381,-0.7095,-0.7095,-0.7095,-0.7095,-0.7095,-0.7095,-0.7095,-0.7095,-0.7095,-0.7139,-0.7272,-0.8321,-0.9104,-0.9192,-1.0053,-1.0697,-1.0913,-1.1809,-1.2199,-1.2052,-1.2772,-1.3053,-1.275,-1.2476,-1.2305,-1.2305,-1.2305,-1.2305,-1.2305,-1.2372,-1.2879,2.7196,2.6973,2.6905,2.6589,2.6499,2.6499,2.6499,0.0,2.6399,2.6047,2.5762,2.5398,2.4757,2.4469,2.4393,0.0,0.0,0.0,2.3118,2.2776,2.2113,2.075,2.0605,2.0605,2.0605,2.0605,2.0323,1.9687,1.8189,1.665,1.5137,1.4447,1.4088,1.4088,1.4088,1.4088,1.4088,1.4088,1.4088,1.4088,1.4088,1.347,1.2279,1.1809,1.0611,0.8934,0.91,0.84,0.0,0.7885,0.7753,0.7095,0.7095,0.7095,0.7095,0.7095,0.7095,0.7051,0.6561,0.5983,0.5134,0.3438,0.2057,0.0941,0.0225,0.0,0.0,0.0,0.0,0.0,0.0,0.0,0.0,0.0,-0.0942,-0.179,-0.179,-0.3127,-0.433,-0.433,-0.5265,-0.6071,-0.6071,-0.665,-0.7095,-0.7095,-0.7095,-0.7095,-0.7095,-0.7095,-0.7095,-0.7095,-0.7533,-0.8105,-0.8846,-0.8667,-0.9096,-1.0524,-1.1037,-1.1448,-1.1875,-1.2739,-1.3066,-1.279,-1.2452,-1.2305,-1.2305,-1.2305,-1.2305,-1.2305,-1.2305,-1.2519,2.6658,2.6499,2.6499,2.6499,2.6499,2.6499,0.0,0.0,2.6122,2.5686,2.5347,2.4895,2.4142,2.3853,2.3803,0.0,0.0,2.3501,2.279,2.2546,2.2,2.075,2.0605,2.0605,2.0605,2.0605,2.0157,1.9076,1.827,1.7334,1.6232,1.5179,1.4412,1.413,1.4088,1.4088,1.4088,1.4088,1.4088,1.4088,1.4088,1.3646,1.2808,1.2456,1.1423,0.9923,1.0394,0.9657,0.0,0.8671,0.8408,0.7577,0.7228,0.7095,0.7095,0.7095,0.7095,0.7095,0.7095,0.6561,0.5714,0.4508,0.3304,0.2102,0.0897,0.0269,0.0,0.0,0.0,0.0,0.0,0.0,0.0,0.0,-0.0628,-0.1254,-0.1254,-0.2236,-0.3081,-0.3081,-0.4063,-0.4999,-0.5359,-0.6071,-0.6694,-0.7051,-0.7095,-0.7095,-0.7095,-0.7095,-0.7095,-0.7095,-0.7095,-0.7445,-0.8277,-0.7577,-0.7793,-0.944,-0.9918,-1.0368,-1.0974,-1.2083,-1.2615,-1.2402,-1.2342,-1.2305,-1.2305,-1.2305,-1.2305,-1.2305,-1.2305,-1.2305,2.6499,2.6499,2.6499,2.6499,2.6499,2.6499,0.0,0.0,2.5598,2.5598,2.4757,2.4017,2.4004,2.3496,2.3296,2.3904,0.0,0.0,2.2896,2.3128,2.2787,0.0,2.0605,2.0605,2.0605,2.0605,2.0157,1.9076,1.9006,1.847,1.7334,1.6273,1.522,1.4124,1.4088,1.4088,1.4088,1.4088,1.4088,1.4088,1.4088,1.4088,1.4039,1.2851,1.2279,1.22,1.108,1.0611,0.0,0.9362,0.889,0.8759,0.7577,0.7095,0.7095,0.7095,0.7095,0.7095,0.7095,0.7095,0.6871,0.5761,0.4552,0.3349,0.2147,0.0941,0.0,0.0,0.0,0.0,0.0,0.0,0.0,0.0,0.0,0.0,0.0,-0.0986,-0.1835,-0.1835,-0.2814,-0.4016,-0.5179,-0.5403,-0.5802,-0.6918,-0.7095,-0.7095,-0.7095,-0.7095,-0.7095,-0.7095,-0.7095,-0.7095,-0.7095,-0.7095,-0.7095,-0.7139,-0.8277,-0.8934,-0.893,-1.06,-1.1524,-1.1518,-1.2018,-1.2305,-1.2305,-1.2305,-1.2305,-1.2305,-1.2305,-1.2305,2.6499,2.6499,2.6499,2.6499,2.6499,2.6499,2.6499,0.0,2.5498,2.5146,2.4494,2.3879,2.3446,2.3233,2.3158,2.3346,2.331,0.0,0.0,0.0,0.0,2.159,2.1011,2.0605,2.0605,2.0605,2.044,2.0118,1.9402,1.8838,1.847,1.7415,1.6322,1.522,1.4489,1.4088,1.4088,1.4088,1.4088,1.4088,1.4088,1.4088,1.4088,1.3688,1.3075,1.2328,1.2772,1.2083,1.0567,1.0221,0.9623,0.8759,0.7577,0.7095,0.7095,0.7095,0.7095,0.7095,0.7095,0.7095,0.6918,0.5761,0.5134,0.4599,0.3393,0.1612,0.0,0.0,0.0,0.0,0.0,0.0,0.0,0.0,0.0,0.0,0.0,-0.0314,-0.0584,-0.0584,-0.2191,-0.3703,-0.4105,-0.5487,-0.6694,-0.7051,-0.7095,-0.7095,-0.7095,-0.7095,-0.7095,-0.7095,-0.7095,-0.7095,-0.7095,-0.7095,-0.7095,-0.7095,-0.8233,-0.889,-0.889,-0.9854,-1.075,-1.1484,-1.1359,-1.162,-1.2305,-1.2305,-1.2305,-1.2305,-1.2305,-1.2305,0.0,2.6499,2.6499,2.6499,2.6499,0.0,0.0,0.0,2.5159,2.4619,2.4067,2.3534,2.317,2.3108,2.3108,2.3108,2.3083,2.3132,0.0,2.2426,2.1697,2.1504,2.0972,2.0605,2.0605,2.0605,2.0605,2.0605,1.9962,1.9599,1.9599,1.8149,1.7009,1.6314,1.5262,1.4496,1.4088,1.4088,1.4088,1.4088,1.4088,1.4088,1.4088,1.4088,1.3688,1.3027,1.3779,1.3258,0.0,1.0956,1.0178,0.9362,0.7753,0.7095,0.7095,0.7095,0.7095,0.7095,0.7095,0.7095,0.6962,0.6293,0.5761,0.509,0.3438,0.1879,0.0584,0.0135,0.0,0.0,0.0,0.0,0.0,0.0,0.0,0.0,0.0,0.0,0.0,0.0,-0.1567,-0.3081,-0.3525,-0.5176,-0.6605,-0.7051,-0.7095,-0.7095,-0.7095,-0.7095,-0.7095,-0.7095,-0.7095,-0.7095,-0.7095,-0.7095,-0.7095,-0.7095,-0.7797,-0.8233,-0.8233,-0.8895,-0.9578,-1.0232,-1.0626,-1.1124,-1.1731,-1.2114,-1.2305,-1.2305,-1.2305,-1.2305,0.0,0.0,0.0,0.0,0.0,0.0,0.0,0.0,0.0,0.0,2.3509,2.3108,2.3108,2.3108,2.3108,2.3108,2.3615,2.3852,2.3451,2.3029,2.2215,2.0778,2.0605,2.0605,2.0605,2.0605,2.0605,2.0605,2.0605,2.0605,2.0605,1.8661,1.7455,1.7302,1.6314,1.5255,1.413,1.4088,1.4088,1.4088,1.4088,1.4088,1.4088,1.4088,1.4088,0.0,1.4088,1.4088,1.3913,1.1649,1.074,1.0476,0.8141,0.7228,0.7228,0.7139,0.7095,0.7095,0.7095,0.7095,0.7095,0.7095,0.6381,0.509,0.2772,0.1924,0.1567,0.0359,0.0,0.0,0.0,0.0,0.0,0.0,0.0,0.0,0.0,0.0,0.0,0.0,-0.0986,-0.2147,-0.326,-0.4552,-0.5761,-0.6827,-0.7051,-0.7095,-0.7095,-0.7095,-0.7095,-0.7095,-0.7095,-0.7095,-0.7095,-0.7095,-0.7095,-0.7095,-0.7095,-0.7095,-0.7095,-0.7731,-0.8127,-0.8205,-0.9928,-1.0783,-1.0783,-1.1805,-1.2305,-1.2305,-1.2305,-1.2305,0.0,0.0,0.0,0.0,0.0,0.0,0.0,0.0,0.0,0.0,0.0,2.3108,2.3108,2.3108,2.3108,2.3108,2.3615,2.4085,2.4397,2.3793,2.2657,2.0818,2.0605,2.0605,2.0605,2.0605,2.0605,2.0605,2.0605,2.0605,2.0605,2.0118,1.9067,1.7334,1.705,1.5992,1.413,1.4088,1.4088,1.4088,1.4088,1.4088,1.4088,1.4088,1.4088,1.4088,1.4088,1.4088,1.3997,1.2504,1.1895,1.1681,0.9357,0.8496,0.8364,0.7445,0.7095,0.7095,0.7095,0.7095,0.7095,0.7095,0.6918,0.6425,0.5001,0.3263,0.1567,0.0359,0.0,0.0,0.0,0.0,0.0,0.0,0.0,0.0,0.0,0.0,0.0,0.0,-0.0986,-0.1879,-0.2191,-0.3974,-0.5492,-0.5761,-0.6561,-0.7095,-0.7095,-0.7095,-0.7095,-0.7095,-0.7095,-0.7095,-0.7095,-0.7095,-0.7095,-0.7095,-0.7095,-0.7095,-0.7095,-0.7066,-0.7435,-0.8164,-0.9928,-1.0783,-1.0783,-1.1805,-1.2305,-1.2305,-1.2305,-1.2305,0.0,0.0,0.0,0.0,0.0,0.0,0.0,0.0,0.0,0.0,0.0,0.0,2.3108,2.3108,2.3108,2.3108,2.3615,2.411,2.4467,2.3944,2.2925,2.1413,2.0857,2.0605,2.0605,2.0605,2.0605,2.0605,2.0605,2.0605,2.0605,2.0118,1.9313,1.8109,1.709,1.5752,1.413,1.4088,1.4088,1.4088,1.4088,1.4088,1.4088,1.4088,1.4088,1.4088,1.4088,1.4088,1.3997,1.2808,1.2285,1.2072,0.9792,0.889,0.8759,0.7533,0.7095,0.7095,0.7095,0.7095,0.7095,0.7095,0.7095,0.6874,0.5758,0.4467,0.3084,0.1299,0.0449,0.0,0.0,0.0,0.0,0.0,0.0,0.0,0.0,0.0,0.0,0.0,-0.0986,-0.179,-0.179,-0.335,-0.4554,-0.4554,-0.5578,-0.6337,-0.6337,-0.6782,-0.7095,-0.7095,-0.7095,-0.7095,-0.7095,-0.7095,-0.7095,-0.7095,-0.7095,-0.7095,-0.7095,-0.6858,-0.7323,-0.8669,-1.009,-1.1013,-1.1502,-1.2033,-1.2305,-1.2305,-1.2305,-1.2305,0.0,0.0,0.0,0.0,0.0,0.0,0.0,0.0,0.0,0.0,0.0,0.0,0.0,2.3108,0.0,2.3108,2.369,2.4109,2.4093,2.3737,2.3073,2.1924,2.1078,2.0605,2.0605,2.0605,2.0605,2.0605,2.0605,2.0605,2.0605,1.9717,1.9164,1.9006,1.7001,1.5421,1.437,1.4166,1.4088,1.4088,1.4088,1.4088,1.4088,1.4088,1.4088,1.4088,1.4088,0.0,1.3997,1.2984,1.2589,1.2376,1.0269,0.9323,0.9017,0.7797,0.7272,0.7095,0.7095,0.7095,0.7095,0.7095,0.7095,0.6918,0.5938,0.5536,0.4956,0.2906,0.1344,0.0314,0.0494,0.0404,0.0269,0.0269,0.0269,0.0225,0.0045,0.0,0.0,0.0,-0.0807,-0.1522,-0.1522,-0.2547,-0.3303,-0.3303,-0.451,-0.5403,-0.5403,-0.6381,-0.7095,-0.7095,-0.7095,-0.7095,-0.7095,-0.7095,-0.7095,-0.7095,-0.7095,-0.7078,-0.7031,-0.6957,-0.76,-0.9041,-1.0228,-1.1205,-1.207,-1.2224,-1.2305,-1.2305,-1.2305,-1.2305,0.0,0.0,0.0,0.0,0.0,0.0,0.0,0.0,0.0,0.0,0.0,0.0,0.0,2.3108,2.3108,2.3108,2.3985,2.4422,2.3712,2.3543,2.2813,2.1049,2.0683,2.0605,2.0605,2.0605,2.0605,2.0605,2.0605,2.0605,2.0605,2.044,1.9923,1.9045,1.7738,1.6519,1.5455,1.4531,1.4088,1.4088,1.4088,1.4088,1.4088,1.4088,1.4088,1.4088,0.0,1.4088,1.4088,1.3906,1.3822,1.3688,1.2291,1.1171,1.0183,0.9061,0.7973,0.7095,0.7095,0.7095,0.7095,0.7095,0.7095,0.7051,0.6871,0.616,0.5314,0.4956,0.3263,0.1745,0.2769,0.2281,0.1522,0.1522,0.1522,0.1254,0.0225,0.0,0.0,0.0,-0.0135,-0.0269,-0.0269,-0.1299,-0.2057,-0.2057,-0.3976,-0.5403,-0.5403,-0.6381,-0.7095,-0.7095,-0.7095,-0.7095,-0.7095,-0.7095,-0.7095,-0.7095,-0.7095,-0.6984,-0.6776,-0.7544,-0.7998,-0.8016,-0.9852,-1.0901,-1.1013,-1.1885,-1.2305,-1.2305,-1.2305,-1.2305,2.6499,0.0,0.0,0.0,0.0,0.0,0.0,0.0,0.0,0.0,0.0,0.0,0.0,0.0,2.3308,2.391,2.4287,2.4456,2.4351,2.3368,2.2366,2.1451,2.0895,2.0605,2.0605,2.0605,2.0605,2.0605,2.0605,2.0605,2.0605,2.0605,2.0362,1.9883,1.8789,1.7698,1.656,1.5504,1.465,1.4088,1.4088,1.4088,1.4088,1.4088,1.4088,1.4088,0.0,1.4088,1.4088,1.4088,1.4088,1.3997,1.2766,1.198,1.1295,0.9536,0.8145,0.7095,0.7095,0.7095,0.7095,0.7095,0.7095,0.7095,0.7095,0.6738,0.6337,0.6337,0.4596,0.2903,0.3436,0.317,0.2592,0.1969,0.179,0.1478,0.0269,0.0,0.0,0.0,0.0,0.0,0.0,-0.0449,-0.0807,-0.0807,-0.2326,-0.3439,-0.3439,-0.5043,-0.616,-0.616,-0.6738,-0.7095,-0.7095,-0.7095,-0.7095,-0.7095,-0.7095,-0.6964,-0.6712,-0.7679,-0.8074,-0.7791,-0.9771,-1.0783,-1.0783,-1.1805,-1.2305,-1.2305,-1.2305,-1.2305,2.6499,2.6499,0.0,0.0,0.0,0.0,0.0,0.0,0.0,0.0,0.0,0.0,0.0,2.3221,2.3672,2.4788,2.4725,2.4548,2.4637,2.3331,2.2178,2.1745,2.1049,2.0605,2.0605,2.0605,2.0605,2.0605,2.0605,2.0605,2.0605,2.0605,2.0605,2.0605,1.9559,1.843,1.7293,1.6154,1.5107,1.4088,1.4088,1.4088,1.4082,1.4015,1.3981,1.3981,1.3915,1.3881,1.3881,1.3881,1.3881,1.3805,1.2951,1.2493,1.2023,0.9749,0.8321,0.7492,0.7183,0.7095,0.7095,0.7095,0.7095,0.7095,0.7095,0.7095,0.7095,0.7095,0.5797,0.4417,0.4417,0.4239,0.3794,0.2861,0.2638,0.2325,0.1121,0.0628,0.0404,0.0404,0.018,0.0,0.0,0.0,0.0,0.0,-0.1031,-0.179,-0.179,-0.3662,-0.509,-0.5359,-0.616,-0.6827,-0.7095,-0.7095,-0.7095,-0.7095,-0.7095,-0.6964,-0.6712,-0.7679,-0.8074,-0.7791,-0.955,-1.0565,-1.0783,-1.1576,-1.207,-1.2305,-1.2305,-1.2305,2.6499,2.6499,0.0,0.0,0.0,0.0,0.0,0.0,0.0,0.0,0.0,0.0,0.0,2.3547,2.4293,2.5372,2.5507,2.5052,2.3775,2.3478,2.2702,2.0934,2.0644,2.0605,2.0605,2.0605,2.0605,2.0605,2.0605,2.0605,2.0605,2.0605,2.0605,2.0605,1.9559,1.843,1.7293,1.6003,1.4931,1.4088,1.4088,1.4088,1.4075,1.376,1.3633,1.362,1.3353,1.3273,1.3273,1.3273,1.3273,1.326,1.3445,1.3019,1.2023,0.9749,0.8846,0.8627,0.7489,0.7095,0.7095,0.7095,0.7095,0.7095,0.7095,0.7095,0.7095,0.7095,0.6962,0.6827,0.6827,0.6068,0.527,0.5181,0.5134,0.4821,0.3616,0.2458,0.1656,0.1656,0.0762,0.0,0.0,0.0,0.0,0.0,-0.1031,-0.179,-0.179,-0.2948,-0.415,-0.527,-0.5492,-0.5938,-0.7007,-0.7095,-0.7095,-0.7095,-0.7095,-0.6964,-0.6712,-0.7679,-0.8074,-0.7791,-0.8841,-0.9857,-1.0783,-1.0858,-1.1391,-1.2305,-1.2305,-1.2305,2.6499,2.6499,0.0,0.0,0.0,0.0,0.0,0.0,0.0,0.0,0.0,0.0,0.0,0.0,2.5121,2.5523,2.4885,2.4093,2.3565,2.2451,2.1413,2.0683,2.0605,2.0605,2.0605,2.0605,2.0605,2.0605,2.0312,2.0156,2.0156,1.9912,1.9803,1.9803,1.9381,1.8645,1.7565,1.6439,1.5349,1.4394,1.3817,1.354,1.354,1.3427,1.3333,1.3367,1.326,1.3213,1.3213,1.3213,1.3213,1.324,1.3493,1.3089,1.22,1.1338,1.0139,0.8846,0.8364,0.7709,0.7095,0.7095,0.7095,0.7095,0.7095,0.7095,0.7095,0.7095,0.7095,0.7095,0.7095,0.6782,0.6293,0.5581,0.5403,0.509,0.3883,0.2637,0.179,0.179,0.0807,0.0,0.0,0.0,0.0,0.0,-0.0404,-0.0673,-0.0673,-0.1746,-0.2637,-0.3129,-0.451,-0.5849,-0.7007,-0.7095,-0.7095,-0.7095,-0.7095,-0.7007,-0.6851,-0.7121,-0.7167,-0.6982,-0.7915,-0.8537,-0.895,-1.0185,-1.1013,-1.1391,-1.1996,-1.2305,2.6499,2.6499,0.0,0.0,0.0,0.0,0.0,0.0,0.0,0.0,0.0,0.0,0.0,0.0,0.0,2.5837,2.507,2.4217,2.3588,2.2339,2.127,2.0673,2.0605,2.0605,2.0605,2.0478,2.04,2.04,1.9961,1.9717,1.9717,1.9443,1.9287,1.9287,1.9287,1.8792,1.7701,1.6618,1.5535,1.4452,1.3417,1.3026,1.3206,1.3113,1.3066,1.306,1.2966,1.2926,1.2926,1.2926,1.3039,1.3227,1.3387,1.3226,1.2808,1.2456,1.1295,0.9879,0.9148,0.858,0.8141,0.7797,0.7665,0.7665,0.7665,0.7401,0.7095,0.7095,0.7095,0.7095,0.7095,0.7095,0.6918,0.6115,0.5938,0.5714,0.4863,0.3794,0.295,0.295,0.1657,0.0584,0.0584,0.0269,0.0,0.0,0.0,0.0,0.0,-0.0718,-0.1389,-0.1745,-0.3618,-0.5312,-0.647,-0.6561,-0.6694,-0.7095,-0.7095,-0.7034,-0.6893,-0.678,-0.6627,-0.6515,-0.7028,-0.748,-0.7821,-0.9173,-1.0034,-1.034,-1.1354,-1.1848,2.6499,0.0,0.0,0.0,0.0,0.0,0.0,0.0,0.0,0.0,0.0,0.0,2.5511,2.5598,0.0,2.6399,2.6499,2.5791,2.377,2.3478,2.2776,2.0828,2.0595,2.0595,2.0595,2.0166,1.9902,1.9902,1.9521,1.9277,1.9277,1.9277,1.9277,1.9277,1.9277,1.8783,1.7701,1.6428,1.5258,1.4194,1.2922,1.2619,1.3193,1.2918,1.2784,1.2764,1.2432,1.2305,1.2305,1.2305,1.2665,1.3213,1.3213,1.3567,1.3955,1.2766,1.2328,1.198,0.971,0.9666,1.0394,0.9279,0.8934,0.8934,0.889,0.8061,0.7095,0.7095,0.7095,0.7095,0.7095,0.7095,0.7095,0.7095,0.7095,0.7095,0.7095,0.6204,0.5403,0.5403,0.3439,0.179,0.179,0.0807,0.0,0.0,0.0,0.0,0.0,0.0,-0.0449,-0.1656,-0.2858,-0.4061,-0.527,-0.5403,-0.5891,-0.7007,-0.7095,-0.7034,-0.6893,-0.6783,-0.6627,-0.6518,-0.6371,-0.6795,-0.7783,-0.7783,-0.8313,-0.9296,-1.0303,-1.0783,2.6499,0.0,0.0,0.0,0.0,0.0,0.0,0.0,0.0,0.0,0.0,2.5536,2.6135,2.6235,2.6298,2.6461,2.5921,2.4992,2.3661,2.2888,2.2,2.075,2.0293,2.0107,2.0107,1.9727,1.9473,1.9473,1.9072,1.8792,1.8792,1.8545,1.8389,1.8389,1.8389,1.8249,1.7926,1.6244,1.5212,1.4897,1.3134,1.2398,1.2565,1.2472,1.2438,1.2425,1.2338,1.2305,1.2305,1.2305,1.2665,1.3213,1.3213,1.3567,1.4046,1.3688,1.3027,1.22,1.1509,1.0999,1.0524,1.0226,1.0096,0.9966,0.9148,0.8627,0.8193,0.736,0.7095,0.7095,0.7095,0.7095,0.7095,0.7095,0.7095,0.7095,0.7095,0.6204,0.5403,0.5403,0.3439,0.179,0.179,0.0807,0.0,0.0,0.0,0.0,0.0,0.0,-0.0449,-0.1656,-0.2102,-0.2815,-0.4016,-0.491,-0.5536,-0.5891,-0.665,-0.7078,-0.7034,-0.6834,-0.6678,-0.6634,-0.6426,-0.6451,-0.6756,-0.7442,-0.7936,-0.8275,-0.9296,-1.0115,2.6499,0.0,0.0,0.0,0.0,0.0,0.0,0.0,0.0,0.0,0.0,2.6084,2.6436,2.6499,2.6499,2.6499,2.599,2.5111,2.3697,2.2834,2.1839,2.0484,1.9922,1.9668,1.9668,1.9277,1.9023,1.9023,1.8598,1.8354,1.8354,1.8144,1.8008,1.8008,1.8008,1.8008,1.8008,1.6507,1.5587,1.5163,1.3593,1.2666,1.2305,1.2305,1.2305,1.2305,1.2305,1.2305,1.2311,1.2425,1.2772,1.322,1.334,1.3667,1.4088,1.4088,1.3646,1.2942,1.2456,1.2157,1.1912,1.1429,1.1295,1.1166,1.0481,0.9623,0.8759,0.8017,0.7492,0.7095,0.7095,0.7095,0.7095,0.7095,0.7095,0.7095,0.7095,0.6561,0.6071,0.6071,0.4554,0.3083,0.2592,0.1522,0.0539,0.009,0.0,0.0,0.0,0.0,-0.0269,-0.0986,-0.1076,-0.1567,-0.2769,-0.3573,-0.4154,-0.4641,-0.5802,-0.6428,-0.6428,-0.6655,-0.6763,-0.6702,-0.6508,-0.6358,-0.63,-0.6911,-0.7215,-0.7211,-0.8237,-0.9026,0.0,0.0,0.0,0.0,0.0,0.0,2.4632,2.5184,2.5762,2.6373,0.0,2.6499,2.6499,2.6449,2.6411,2.6411,2.6373,2.5679,2.3754,2.3082,2.2124,2.018,1.9519,1.9228,1.9228,1.8838,1.8549,1.8549,1.8223,1.8008,1.8008,1.8008,1.8008,1.8008,1.8008,1.8008,1.8008,1.707,1.6175,1.5305,1.4207,1.3237,1.2409,1.2335,1.2305,1.2305,1.2305,1.2305,1.2325,1.2663,1.2965,1.324,1.3493,1.378,1.4088,1.4088,1.4088,1.3955,1.2851,1.316,1.3913,1.2808,1.2456,1.2456,1.2328,1.0869,0.9148,0.8978,0.8105,0.7228,0.7139,0.7095,0.7095,0.7095,0.7095,0.7095,0.7095,0.7095,0.7095,0.7095,0.616,0.5045,0.3972,0.2681,0.1389,0.018,0.0,0.0,0.0,0.0,0.0,0.0,0.0,-0.0449,-0.1522,-0.1746,-0.2281,-0.3349,-0.4552,-0.527,-0.5403,-0.635,-0.6858,-0.6705,-0.6549,-0.6443,-0.63,-0.63,-0.63,-0.6338,-0.7249,-0.7744,0.0,0.0,0.0,0.0,0.0,0.0,2.4155,2.4908,2.5762,2.6373,2.6499,2.6499,2.6499,2.6122,2.5787,2.5787,2.5435,2.4752,2.3507,2.2685,2.1752,2.0606,1.9453,1.8744,1.8744,1.8354,1.8144,1.8144,1.8057,1.8008,1.8008,1.8008,1.8008,1.8008,1.8008,1.8008,1.8008,1.707,1.6498,1.628,1.4522,1.36,1.3382,1.2629,1.2305,1.2305,1.2305,1.2305,1.2325,1.2663,1.2965,1.324,1.3493,1.378,1.4088,1.4088,1.4088,1.4046,1.3779,1.3864,1.4046,1.3779,1.3688,1.3555,1.2589,1.1938,1.1209,0.9405,0.8715,0.8277,0.736,0.7095,0.7095,0.7095,0.7095,0.7095,0.7095,0.7095,0.7095,0.7095,0.616,0.5314,0.5045,0.3218,0.1389,0.018,0.0,0.0,0.0,0.0,0.0,0.0,0.0,-0.009,-0.0359,-0.1254,-0.1924,-0.2191,-0.3304,-0.4419,-0.5359,-0.635,-0.6858,-0.6705,-0.6549,-0.6443,-0.63,-0.63,-0.63,-0.63,-0.6528,-0.748,0.0,0.0,0.0,0.0,0.0,0.0,2.3941,2.4431,2.4996,2.5561,2.5908,2.6084,2.6084,2.5598,2.5222,2.5222,2.4963,2.4439,2.3456,2.2386,2.1349,2.0372,1.9098,1.8295,1.8295,1.81,1.8008,1.8008,1.8008,1.8008,1.8008,1.8008,1.8008,1.8008,1.8008,1.8008,1.8008,1.7501,1.7035,1.6567,1.5119,1.4171,1.3673,1.2739,1.2556,1.2952,1.2482,1.2385,1.2576,1.2884,1.3146,1.3407,1.37,1.3948,1.4088,1.4088,1.4088,1.4088,1.4088,1.4088,1.4088,1.4088,1.4088,1.3997,1.3336,1.2766,1.1943,1.0183,0.9323,0.8627,0.7404,0.7095,0.7228,0.7841,0.7536,0.7095,0.7095,0.7095,0.7095,0.7095,0.6605,0.6027,0.5492,0.3396,0.1567,0.0941,0.0359,0.0,0.0,0.0,0.0,0.0,0.0,0.0,0.0,-0.0584,-0.0942,-0.0942,-0.2057,-0.3038,-0.3664,-0.4726,-0.5783,-0.6771,-0.6661,-0.6549,-0.6402,-0.6334,-0.63,-0.63,-0.63,-0.6872,0.0,0.0,0.0,0.0,0.0,0.0,2.374,2.3929,2.413,2.4582,2.5096,2.546,2.546,2.5034,2.465,2.465,2.4562,2.4218,2.3379,2.2116,2.0964,2.0126,1.8809,1.8008,1.8008,1.8008,1.8008,1.8008,1.8008,1.8008,1.8008,1.8008,1.8008,1.8008,1.8008,1.8008,1.8008,1.8008,1.7613,1.6819,1.5904,1.4914,1.3918,1.2989,1.2989,1.3637,1.2758,1.2556,1.2811,1.3133,1.3387,1.3633,1.3975,1.4088,1.4088,1.4088,1.4088,1.4088,1.4088,1.4088,1.4088,1.4088,1.4088,1.4088,1.4088,1.3379,1.2376,1.1209,1.0221,0.9148,0.7749,0.7577,0.7925,0.8715,0.8145,0.7404,0.7404,0.7228,0.7095,0.7095,0.7095,0.6738,0.5581,0.3753,0.2281,0.1879,0.0941,0.0225,0.0045,0.0,0.0,0.0,0.0,0.0,0.0,0.0,0.0,0.0,-0.0942,-0.1567,-0.179,-0.2769,-0.4249,-0.6313,-0.6366,-0.6419,-0.6511,-0.6368,-0.63,-0.63,-0.63,-0.6377,0.0,0.0,0.0,0.0,0.0,0.0,0.0,0.0,2.4017,0.0,2.4544,2.4888,2.4888,2.4481,2.4104,2.4104,2.3659,2.326,2.3138,2.1725,2.0659,2.053,1.9008,1.8008,1.8008,1.8008,1.8008,1.8008,1.8008,1.8008,1.8008,1.8008,1.8008,1.8008,1.8008,1.8008,1.8008,1.8008,1.794,1.7794,1.6853,1.593,1.4985,1.3954,1.3564,1.3651,1.3016,1.275,1.2831,1.3353,1.3567,1.3633,1.3975,1.4088,1.4088,1.4088,1.4088,1.4088,1.4088,1.4088,1.4088,1.4088,1.4088,1.4088,1.4088,1.3997,1.3603,1.2419,1.1938,1.1338,0.9231,0.9405,0.9918,0.9104,0.8759,0.8671,0.8671,0.7841,0.7095,0.7095,0.7095,0.6738,0.5581,0.5134,0.4198,0.2102,0.1657,0.1165,0.0135,0.0,0.0,0.0,0.0,0.0,0.0,0.0,0.0,0.0,-0.0135,-0.0718,-0.1745,-0.1969,-0.2677,-0.3999,-0.4747,-0.5591,-0.6511,-0.6368,-0.63,-0.63,-0.63,-0.6756,0.0,0.0,0.0,0.0,0.0,0.0,2.3108,0.0,2.3484,2.3484,2.3672,2.3948,2.4305,2.3891,2.3484,2.3484,2.3271,2.3108,2.3108,2.2094,2.1144,2.0655,1.9497,1.8529,1.8042,1.8008,1.8008,1.8008,1.8008,1.8008,1.8008,1.8008,1.8008,1.8008,1.8008,1.8008,1.8008,1.8008,1.7759,1.7217,1.732,1.6897,1.5974,1.5772,1.5324,1.4676,1.3353,1.2978,1.3273,1.3493,1.37,1.3908,1.4035,1.4088,1.4088,1.4088,1.4088,1.4088,1.4088,1.4088,1.4088,1.4088,1.4088,1.4088,1.4088,1.4088,1.3864,1.2632,1.2285,1.1938,1.0265,1.0221,1.0611,1.0783,0.9836,0.9065,0.971,0.8404,0.7095,0.7095,0.7095,0.6962,0.6428,0.5805,0.5045,0.3976,0.2683,0.1612,0.1076,0.0404,0.0,0.0,0.0,0.0,0.0,0.0,0.0,0.0,0.0,-0.0225,-0.0762,-0.0807,-0.1344,-0.2547,-0.4202,-0.5189,-0.5609,-0.6128,-0.6378,-0.63,-0.63,-0.6528,0.0,0.0,0.0,0.0,0.0,0.0,0.0,0.0,2.3108,2.3108,2.3108,2.3233,2.3703,2.3396,2.3108,2.3108,2.3108,2.3108,2.3108,2.2414,2.1585,2.0687,1.9814,1.8944,1.8076,1.8008,1.8008,1.8008,1.8008,1.8008,1.8008,1.8008,1.8008,1.8008,1.8008,1.8008,1.8008,1.8008,1.7535,1.6602,1.7535,1.7558,1.6764,1.7045,1.688,1.6196,1.4256,1.3648,1.4042,1.4117,1.4124,1.413,1.4412,1.4328,1.4088,1.4088,1.4088,1.4088,1.4088,1.4088,1.4088,1.4088,1.4088,1.4088,1.4088,1.4088,1.3906,1.3027,1.2766,1.2504,1.1343,1.1257,1.1649,1.2157,1.0994,0.9749,0.9701,0.8356,0.7095,0.7095,0.7095,0.7095,0.7095,0.6381,0.5714,0.5447,0.3887,0.2593,0.2281,0.121,0.0449,0.0449,0.018,0.0,0.0,0.0,0.0,0.0,0.0,0.0,0.0,0.0,-0.0404,-0.1344,-0.3255,-0.4344,-0.4481,-0.5522,-0.5997,-0.5906,-0.618,-0.63,0.0,0.0,0.0,0.0,0.0,0.0,0.0,0.0,2.3108,2.3108,2.3108,2.3108,2.3145,2.312,2.3108,2.3108,2.3108,2.3108,2.3108,2.2414,2.1585,2.0687,1.9814,1.8944,1.8076,1.8008,1.8008,1.8008,1.8008,1.8008,1.8008,1.8008,1.8008,1.8008,1.8008,1.8008,1.8008,1.8008,1.7535,1.6602,1.7535,1.7719,1.7153,1.7171,1.7549,1.8068,1.6032,1.5188,1.524,1.5506,1.4998,1.4208,1.522,1.5019,1.4088,1.4088,1.4088,1.4088,1.4088,1.4088,1.4088,1.4088,1.4088,1.4088,1.4088,1.4088,1.4088,1.3997,1.3997,1.373,1.2504,1.3075,1.3646,1.2547,1.22,1.1246,0.7962,0.7183,0.7095,0.7095,0.7095,0.7095,0.7095,0.7051,0.665,0.5581,0.5314,0.4776,0.3659,0.2458,0.1701,0.1701,0.0673,0.0,0.0,0.0,0.0,0.0,0.0,0.0,0.0,0.0,-0.0045,-0.009,-0.1343,-0.2449,-0.3392,-0.4338,-0.4798,-0.4805,-0.5825,-0.63,0.0,0.0,0.0,0.0,2.3108,2.3108,2.3108,2.3108,2.3108,2.3108,2.3108,2.3108,2.3108,2.3108,2.3108,2.3108,2.3108,2.3108,2.3108,2.2854,2.2353,2.1522,2.0655,1.9781,1.8911,1.8337,1.8008,1.8008,1.8008,1.8008,1.8008,1.8008,1.8008,1.8008,1.8008,1.8008,1.8008,1.8008,1.7828,1.751,1.8099,1.8276,1.8112,1.868,1.9088,1.9269,1.8153,1.7256,1.6548,1.5939,1.5869,1.6124,1.5827,1.5462,1.5054,1.437,1.4088,1.4088,1.4088,1.4088,1.4088,1.4088,1.4088,1.4088,1.4088,1.4088,1.4088,1.4088,1.4088,1.3997,1.3561,1.3779,1.3779,1.2589,1.2285,1.1552,0.8838,0.8233,0.8013,0.7272,0.7095,0.7095,0.7095,0.7095,0.6962,0.6561,0.5847,0.5225,0.4821,0.3707,0.2681,0.1879,0.1433,0.0852,0.0045,0.0,0.0,0.0,0.0,0.0,0.0,0.0,0.0,0.0,-0.0404,-0.1149,-0.2226,-0.3263,-0.413,-0.4713,-0.5076,-0.5628,2.3108,0.0,0.0,0.0,0.0,2.3108,2.3108,2.3108,2.3108,2.3108,2.3108,2.3108,2.3108,2.3108,2.3108,2.3108,2.3108,2.3108,2.3108,2.3108,2.2793,2.2013,2.1132,2.0268,1.9365,1.8496,1.8008,1.8008,1.8008,1.8008,1.8008,1.8008,1.8008,1.8008,1.8008,1.8008,1.8008,1.8008,1.8076,1.8188,1.8471,1.8754,1.9046,1.9658,2.0,2.007,1.9321,1.855,1.7827,1.7082,1.7009,1.7212,1.6519,1.6026,1.5579,1.4489,1.4088,1.4088,1.4088,1.4088,1.4088,1.4088,1.4088,1.4088,1.4088,1.4088,1.4088,1.4088,1.4088,1.4088,1.4088,1.4088,1.3906,1.3069,1.2899,1.2376,1.0443,0.9449,0.854,0.7316,0.7095,0.7095,0.7095,0.7095,0.7095,0.7095,0.6473,0.5983,0.5983,0.4954,0.3883,0.3084,0.2637,0.1924,0.0718,0.0583,0.0449,0.0045,0.0,0.0,0.0,0.0,0.0,0.0,0.0,-0.0357,-0.1053,-0.2169,-0.3063,-0.3683,-0.399,-0.4727,0.0,0.0,0.0,0.0,0.0,0.0,2.3108,2.3108,2.3108,2.3108,2.3108,2.3108,2.3108,2.3108,2.3108,2.3108,2.3108,2.3108,2.3108,2.3108,2.2823,2.2032,2.1144,2.0268,1.9431,1.8529,1.8008,1.8008,1.8008,1.8008,1.8008,1.8008,1.8008,1.8008,1.8008,1.8008,1.8008,1.8018,1.8198,1.8598,1.8627,1.9075,1.9912,1.9922,2.0166,2.0527,1.9481,1.9045,1.9036,1.8997,1.835,1.7374,1.7374,1.6723,1.5662,1.4573,1.4173,1.4173,1.4166,1.413,1.413,1.413,1.413,1.4088,1.4088,1.4088,1.4088,1.4088,1.4088,1.4088,1.4088,1.4088,1.4088,1.4088,1.4088,1.3779,1.2547,1.0567,0.8627,0.7401,0.7139,0.7139,0.7095,0.7095,0.7095,0.7095,0.7095,0.7095,0.7095,0.6115,0.5447,0.5403,0.4374,0.317,0.1969,0.1835,0.1344,0.0135,0.0045,0.0045,0.0,0.0,0.0,0.0,0.0,0.0,0.0,-0.103,-0.1576,-0.1625,-0.2648,-0.3669,2.3108,0.0,0.0,0.0,0.0,0.0,2.3108,2.3108,2.3108,2.3108,2.3108,2.3108,2.3108,2.3108,2.3108,2.3108,2.3108,2.3108,2.3108,2.3108,2.3005,2.2793,2.1479,2.0494,2.0268,1.8877,1.8008,0.0,1.8008,1.8008,1.8008,1.8008,1.8008,1.8008,1.8008,1.8008,1.8008,1.8276,1.849,1.8607,1.9231,1.9687,1.9922,2.0244,2.0488,2.0566,2.0284,2.0157,2.0079,1.9323,1.9274,1.9599,1.8829,1.835,1.7859,1.5951,1.5752,1.6281,1.5545,1.5255,1.5255,1.5255,1.4734,1.4088,1.4088,1.4088,1.4088,1.4088,1.4088,1.4088,1.4088,1.4088,1.4088,1.4088,1.4088,1.3779,1.2547,1.1809,1.0778,0.8798,0.8408,0.8145,0.7272,0.7095,0.7095,0.7095,0.7095,0.7095,0.7095,0.6827,0.6293,0.5492,0.509,0.4419,0.3215,0.3081,0.2592,0.1389,0.1299,0.0897,0.0045,0.0,0.0,0.0,0.0,0.0,0.0,-0.0301,-0.0838,-0.1619,-0.2629,-0.3669,0.0,0.0,0.0,0.0,0.0,0.0,2.3108,2.3108,2.3108,2.3108,2.3108,2.3108,2.3108,2.3108,2.3108,2.3108,2.3108,2.3108,2.3108,2.3108,2.3108,2.3108,2.1604,2.059,2.059,1.9011,1.8008,1.8008,1.8008,1.8008,1.8008,1.8008,1.8008,1.8008,1.8008,1.8096,1.8237,1.8481,1.8783,1.9143,1.9678,2.001,2.0195,2.0488,2.0605,2.0605,2.0605,2.0605,2.0557,1.9923,2.004,2.0479,1.9402,1.8997,1.8798,1.7009,1.6764,1.7212,1.6601,1.6355,1.6273,1.5869,1.5296,1.4692,1.425,1.4088,1.4088,1.4088,1.4088,1.4088,1.4088,1.4088,1.4088,1.4088,1.4088,1.3906,1.3203,1.3069,1.2382,1.0053,0.9235,0.8671,0.7973,0.7448,0.7095,0.7095,0.7095,0.7095,0.7095,0.7095,0.683,0.616,0.6115,0.5625,0.4463,0.433,0.3838,0.2637,0.2547,0.2013,0.0807,0.0763,0.0494,0.0,0.0,0.0,0.0,0.0,-0.0333,-0.0938,-0.1981,-0.3047,0.0,0.0,0.0,0.0,2.3108,0.0,2.3108,2.3108,2.3108,2.3108,2.3108,2.3108,2.3108,2.3108,2.3108,2.3108,2.3108,2.3108,2.3108,2.3108,2.3078,2.2975,2.1647,2.0655,2.0462,1.9044,1.811,1.8008,1.8008,1.8008,1.8008,1.8008,1.8008,1.8008,1.8057,1.8227,1.8598,1.8695,1.9124,1.9912,1.9961,2.0195,2.0605,2.0605,2.0605,2.0605,2.0605,2.0605,2.0605,2.0605,2.0605,2.0527,1.9559,1.9195,1.9036,1.7908,1.7577,1.7658,1.7536,1.7496,1.7334,1.6396,1.5902,1.5538,1.4692,1.437,1.4292,1.4292,1.4208,1.4088,1.4088,1.4088,1.4088,1.4088,1.4088,1.4088,1.4088,1.4088,1.3476,1.1391,0.9966,0.9065,0.8934,0.8017,0.7316,0.7316,0.7401,0.7445,0.7316,0.7316,0.7228,0.7095,0.7095,0.6694,0.5669,0.5581,0.5087,0.3881,0.3792,0.326,0.2057,0.2013,0.1433,0.0225,0.009,0.0,0.0,0.0,0.0,-0.0039,-0.1097,-0.2152,0.0,0.0,0.0,2.3108,2.3108,0.0,2.3108,2.3108,2.3108,2.3108,2.3108,2.3108,2.3108,2.3108,2.3108,2.3108,2.3108,2.3108,2.3108,2.3108,2.2854,2.2199,2.1846,2.1112,1.9694,1.9243,1.8754,1.8042,1.8008,1.8008,1.8008,1.8008,1.8008,1.8008,1.8305,1.852,1.8598,1.929,1.9709,1.9922,2.0273,2.0517,2.0605,2.0605,2.0605,2.0605,2.0605,2.0605,2.0605,2.0605,2.0605,2.0566,2.0362,2.0284,2.0157,1.9076,1.9195,1.9835,1.8957,1.8678,1.863,1.843,1.7163,1.582,1.6486,1.6075,1.5379,1.5379,1.4776,1.4088,1.4088,1.4088,1.4088,1.4088,1.4088,1.4088,1.4088,1.4088,1.3955,1.3519,1.1697,0.9966,0.9061,0.8715,0.854,0.854,0.9314,0.9575,0.8671,0.854,0.8189,0.7183,0.7095,0.7007,0.6786,0.6782,0.6293,0.5134,0.5045,0.451,0.3304,0.326,0.2681,0.1478,0.0494,0.0,0.0,0.0,0.0,-0.0039,-0.1097,-0.2152,2.3258,2.3108,2.3108,2.3108,2.3108,0.0,0.0,2.3108,2.3108,2.3108,2.3108,2.3108,2.3108,2.3108,2.3108,2.3108,2.3108,2.3108,2.3108,2.2763,2.2187,2.1365,2.0878,2.0268,1.9365,1.8911,1.8462,1.8042,1.8008,1.8008,1.8008,1.8008,1.8105,1.8286,1.849,1.8802,1.9231,1.966,2.0019,2.0244,2.0498,2.0605,2.0605,2.0605,2.0605,2.0605,2.0605,2.0605,2.0605,2.0605,2.0605,2.0605,2.0605,2.0605,2.0518,2.0001,2.0118,2.0527,1.9962,1.9805,1.9726,1.9155,1.7859,1.6519,1.6519,1.615,1.5696,1.5696,1.5296,1.4776,1.425,1.4088,1.4088,1.4088,1.4088,1.4088,1.4088,1.4088,1.4088,1.4088,1.2644,1.1085,0.9966,0.9749,0.9536,0.8978,0.9879,1.0394,0.9836,0.9235,0.8671,0.8061,0.7445,0.7095,0.7095,0.7095,0.6874,0.6293,0.6248,0.5714,0.4552,0.4508,0.3929,0.2726,0.1522,0.1142,0.1636,0.1092,0.0534,0.0,-0.0549,-0.1644,2.3296,2.3108,2.3108,2.3108,2.3108,2.3108,0.0,0.0,0.0,2.3108,2.3108,2.3108,2.3108,2.2975,2.2847,2.2747,2.2658,2.2531,2.2256,2.1744,2.127,2.0878,2.0074,1.9497,1.9299,1.8496,1.8008,1.8008,1.8008,1.8008,1.8008,1.8008,1.8169,1.8588,1.8685,1.9095,1.9902,2.0,2.0215,2.0605,2.0605,2.0605,2.0605,2.0605,2.0605,2.0605,2.0605,2.0605,2.0605,2.0605,2.0605,2.0605,2.0605,2.0605,2.0605,2.0605,2.0605,2.0605,2.0605,2.0605,2.044,1.9599,1.8669,1.7738,1.6675,1.6355,1.6306,1.6067,1.5861,1.5455,1.437,1.4088,1.4088,1.4088,1.4088,1.4088,1.4088,1.4088,1.4088,1.4088,1.3294,1.2291,1.1128,1.0907,1.0611,0.971,1.0529,1.1176,1.0956,1.0139,0.9449,0.9235,0.8145,0.7445,0.7445,0.7228,0.7095,0.7095,0.7095,0.6694,0.5761,0.5536,0.4956,0.3972,0.2771,0.2539,0.3308,0.2387,0.1352,0.0314,0.0078,-0.1017,2.3396,2.3108,2.3108,2.3108,2.3108,2.3108,2.3108,0.0,2.3108,2.3108,0.0,2.3108,2.3108,0.0,0.0,2.147,2.1125,2.0465,1.9263,1.9383,2.0139,2.1585,2.0974,2.0139,1.9365,1.8496,1.8008,1.8008,1.8008,1.8008,1.8008,1.8008,1.8169,1.8588,1.9014,1.9443,1.9912,2.0303,2.0556,2.0605,2.0605,2.0605,2.0605,2.0605,2.0605,2.0605,2.0605,2.0605,2.0605,2.0605,2.0605,2.0605,2.0605,2.0605,2.0605,2.0605,2.0605,2.0605,2.0605,2.0605,2.0566,2.044,2.0323,2.004,1.8957,1.863,1.843,1.7415,1.6437,1.5455,1.437,1.4088,1.4088,1.4088,1.4088,1.4088,1.4088,1.4088,1.4088,1.4088,1.3997,1.3512,1.2328,1.2114,1.2066,1.1938,1.2948,1.3343,1.2242,1.198,1.1509,1.0524,0.9362,0.8715,0.8715,0.7709,0.7095,0.7095,0.7095,0.7051,0.6918,0.5938,0.5359,0.5179,0.4016,0.3411,0.3394,0.3183,0.2538,0.1411,0.043,-0.0625,2.3409,2.3108,2.3108,2.3108,2.3108,2.3108,2.3108,2.3108,2.2975,2.2506,0.0,0.0,0.0,0.0,0.0,0.0,2.071,2.0384,1.9833,1.95,1.9365,1.9595,1.9299,1.8944,1.8596,1.8202,1.8008,1.8008,1.8008,1.8008,1.8008,1.8208,1.8539,1.8994,1.9424,1.9853,2.0283,2.0517,2.0605,2.0605,2.0605,2.0605,2.0605,2.0605,2.0605,2.0605,2.0605,2.0605,2.0605,2.0605,2.0605,2.0605,2.0605,2.0605,2.0605,2.0605,2.0605,2.0605,2.0605,2.0605,2.0489,1.9883,1.9678,1.9599,1.9155,1.8997,1.8917,1.843,1.794,1.7212,1.5462,1.5019,1.5019,1.5019,1.4531,1.4292,1.4894,1.4531,1.4088,1.4088,1.4088,1.3955,1.3428,1.3336,1.3118,1.2413,1.3336,1.3913,1.3421,1.2717,1.2109,1.1638,1.0567,0.9623,0.8978,0.8452,0.7841,0.7139,0.7095,0.7404,0.8101,0.7702,0.7434,0.7434,0.615,0.5467,0.5316,0.4504,0.3877,0.3361,0.172,0.0351,2.3344,2.3169,2.3205,2.2574,2.2598,2.2763,2.2763,2.2598,2.231,2.197,2.1721,0.0,0.0,0.0,0.0,0.0,0.0,1.9836,1.9738,1.9258,1.8888,1.8721,1.8496,1.8269,0.0,1.8008,1.8008,1.8008,1.8008,1.8008,1.8008,1.8373,1.8802,1.9277,1.9697,2.0127,2.0595,2.0605,2.0605,2.0605,2.0605,2.0605,2.0605,2.0605,2.0605,2.0605,2.0605,2.0605,2.0605,2.0605,2.0605,2.0605,2.0605,2.0605,2.0605,2.0605,2.0605,2.0605,2.0605,2.0605,2.0479,1.9678,1.9441,1.9441,1.9441,1.9441,1.9362,1.9076,1.8997,1.851,1.6273,1.5902,1.6067,1.5779,1.5095,1.4734,1.5538,1.4852,1.4088,1.4088,1.4088,1.4088,1.4088,1.4088,1.3779,1.2942,1.3555,1.4088,1.4088,1.3336,1.2808,1.2808,1.1772,1.074,0.9879,0.9536,0.8973,0.8097,0.7749,0.8145,0.9318,0.9362,0.9362,0.9362,0.8084,0.7326,0.7146,0.5847,0.5158,0.5079,0.3285,0.1875,2.3248,2.3333,2.3442,2.1227,2.129,2.1939,2.1939,2.1302,2.091,2.1721,2.1227,2.0623,2.059,0.0,0.0,0.0,0.0,0.0,0.0,1.7821,1.8654,2.0333,1.9781,1.8921,1.8076,1.8008,1.8008,1.8008,1.8008,1.8008,1.8008,1.8373,1.8802,1.9277,1.9697,2.0127,2.0595,2.0605,2.0605,2.0605,2.0605,2.0605,2.0605,2.0605,2.0605,2.0605,2.0605,2.0605,2.0605,2.0605,2.0605,2.0605,2.0605,2.0605,2.0605,2.0605,2.0605,2.0605,2.0605,2.0605,2.0605,2.0566,2.0566,2.0566,2.0566,2.0566,2.0323,1.9274,1.8997,1.851,1.6273,1.6478,1.6968,1.5944,1.5655,1.5662,1.5696,1.4852,1.4088,1.4088,1.4088,1.4088,1.4088,1.4088,1.4088,1.4039,1.4088,1.4088,1.4088,1.4088,1.4039,1.4039,1.2942,1.2242,1.2194,1.1166,1.0524,1.0481,0.9449,0.9362,1.0481,1.0567,1.0567,1.0567,0.9294,0.8551,0.8356,0.706,0.636,0.6219,0.5118,0.4021,2.4352,2.4046,2.3817,2.3042,2.2359,2.1908,2.1908,2.1239,2.0526,2.0236,1.9944,1.9562,1.8977,0.0,0.0,0.0,0.0,0.0,0.0,1.792,1.8202,1.8821,1.862,1.8337,1.8042,1.8008,1.8008,1.8008,1.8008,1.8135,1.8373,1.8838,1.9268,1.9687,2.0117,2.0458,2.0605,2.0605,2.0605,2.0605,2.0605,2.0605,2.0605,2.0605,2.0605,2.0605,2.0605,2.0605,2.0605,2.0605,2.0605,2.0605,2.0605,2.0605,2.0605,2.0605,2.0605,2.0605,2.0605,2.0605,2.0605,2.0605,2.0605,2.0605,2.0605,2.0605,2.0527,2.0157,2.004,1.9717,1.8261,1.8141,1.835,1.798,1.7293,1.6764,1.6764,1.591,1.4936,1.425,1.4088,1.4088,1.4088,1.4088,1.4088,1.4088,1.4088,1.4088,1.4088,1.4088,1.4088,1.4088,1.373,1.316,1.237,1.1257,1.0611,1.0611,1.0226,1.0524,1.1681,1.1724,1.1724,1.1724,1.1048,0.9943,0.8401,0.7703,0.6998,0.63,0.5944,0.5196,2.4859,2.4593,0.0,2.3559,2.2779,2.2088,2.1803,2.0907,2.0074,1.9814,1.9266,1.8754,1.8496,0.0,0.0,0.0,0.0,0.0,0.0,1.8008,1.8008,1.8008,1.8008,1.8008,1.8008,1.8008,1.8008,1.8008,1.8008,1.8193,1.8578,1.9053,1.9482,1.9902,2.038,2.0605,2.0605,2.0605,2.0605,2.0605,2.0605,2.0605,2.0605,2.0605,2.0605,2.0605,2.0605,2.0605,2.0605,2.0605,2.0605,2.0605,2.0605,2.0605,2.0605,2.0605,2.0605,2.0605,2.0605,2.0605,2.0605,2.0605,2.0605,2.0605,2.0605,2.0605,2.0576,2.0419,2.0488,2.0323,1.9061,1.9173,1.9481,1.9076,1.843,1.7908,1.7908,1.6756,1.5496,1.4817,1.437,1.4088,1.4088,1.4088,1.4088,1.4088,1.4088,1.4088,1.4088,1.4088,1.4088,1.4088,1.4088,1.3779,1.3027,1.1858,1.1386,1.1826,1.1429,1.1729,1.2899,1.2942,1.2942,1.2942,1.2127,1.1008,0.9578,0.8737,0.7821,0.6834,0.6834,0.6286]}]]